[[{"header":{"parameterUnit":"m.s-1","parameterCategory":1,"la1":31.0,"la2":29.5877,"lo1":-88.7671,"lo2":-86.6584,"dy":0.0162,"dx":0.0185,"nx":115,"ny":88,"refTime":"2023-08-18T12:00:00:Z","depth":0,"parameterNumber":2,"parameterNumberName":"U-component_of_WINDS"},"data":[0.0,0.0,0.0,0.0,0.0,0.0,0.0,0.0,0.0,0.0,0.0,0.0,0.0,0.0,0.0,0.0,0.0,0.0,0.0,0.0,0.0,0.0,0.0,0.0,0.0,0.0,0.0,0.0,0.0,0.0,0.0,0.0,0.0,0.0,0.0,0.0,0.0,0.0,0.0,0.0,0.0,0.0,0.0,0.0,0.0,0.0,0.0,0.0,0.0,0.0,0.0,0.0,0.0,0.0,0.0,0.0,0.0,0.0,0.0,0.0,0.0,0.0,0.0,0.0,0.0,0.0,0.0,0.0,0.0,0.0,0.0,0.0,0.0,0.0,0.0,0.0,0.0,0.0,0.0,0.0,0.0,0.0,0.0,0.0,0.0,0.0,0.0,0.0,0.0,0.0,0.0,0.0,0.0,0.0,0.0,0.0,0.0,0.0,0.0,0.0,0.0,0.0,0.0,0.0,0.0,0.0,0.0,0.0,0.0,0.0,0.0,0.0,0.0,0.0,0.0,0.0,0.0,0.0,0.0,0.0,0.0,0.0,0.0,0.0,0.0,0.0,0.0,0.0,0.0,0.0,0.0,0.0,0.0,0.0,0.0,0.0,0.0,0.0,0.0,0.0,0.0,0.0,0.0,0.0,0.0,0.0,0.0,0.0,0.0,0.0,0.0,0.0,0.0,0.0,0.0,0.0,0.0,0.0,0.0,0.0,0.0,0.0,0.0,0.0,0.0,0.0,0.0,0.0,0.0,0.0,0.0,0.0,0.0,0.0,0.0,0.0,0.0,0.0,0.0,0.0,0.0,0.0,0.0,0.0,0.0,0.0,0.0,0.0,0.0,0.0,0.0,0.0,0.0,0.0,0.0,0.0,0.0,0.0,0.0,0.0,0.0,0.0,0.0,0.0,0.0,0.0,0.0,0.0,0.0,0.0,0.0,0.0,0.0,0.0,0.0,0.0,0.0,0.0,0.0,0.0,0.0,0.0,0.0,0.0,0.0,0.0,0.0,0.0,0.0,0.0,0.0,0.0,0.0,0.0,0.0,0.0,0.0,0.0,0.0,0.0,0.0,0.0,0.0,0.0,0.0,0.0,0.0,0.0,0.0,0.0,0.0,0.0,0.0,0.0,0.0,0.0,0.0,0.0,0.0,0.0,0.0,0.0,0.0,0.0,0.0,0.0,0.0,0.0,0.0,0.0,0.0,0.0,0.0,0.0,0.0,0.0,0.0,0.0,0.0,0.0,0.0,0.0,0.0,0.0,0.0,0.0,0.0,0.0,0.0,0.0,0.0,0.0,0.0,0.0,0.0,0.0,0.0,0.0,0.0,0.0,0.0,0.0,0.0,0.0,0.0,0.0,0.0,0.0,0.0,0.0,0.0,0.0,0.0,0.0,0.0,0.0,0.0,0.0,0.0,0.0,0.0,0.0,0.0,0.0,0.0,0.0,0.0,0.0,0.0,0.0,0.0,0.0,0.0,0.0,0.0,0.0,0.0,0.0,0.0,0.0,0.0,0.0,0.0,0.0,0.0,0.0,0.0,0.0,0.0,0.0,0.0,0.0,0.0,0.0,0.0,0.0,0.0,0.0,0.0,0.0,0.0,0.0,0.0,0.0,0.0,0.0,0.0,0.0,0.0,0.0,0.0,0.0,0.0,0.0,0.0,0.0,0.0,0.0,0.0,0.0,0.0,0.0,0.0,0.0,0.0,0.0,0.0,0.0,0.0,0.0,0.0,0.0,0.0,0.0,0.0,0.0,0.0,0.0,0.0,0.0,0.0,0.0,0.0,0.0,0.0,0.0,0.0,0.0,0.0,0.0,0.0,0.0,0.0,0.0,0.0,0.0,0.0,0.0,0.0,0.0,0.0,0.0,0.0,0.0,0.0,0.0,0.0,0.0,0.0,0.0,0.0,0.0,0.0,0.0,0.0,0.0,0.0,0.0,0.0,0.0,0.0,0.0,0.0,0.0,0.0,0.0,0.0,0.0,0.0,0.0,0.0,0.0,0.0,0.0,0.0,0.0,0.0,0.0,0.0,0.0,0.0,0.0,0.0,0.0,0.0,0.0,0.0,0.0,0.0,0.0,0.0,0.0,0.0,0.0,0.0,0.0,0.0,0.0,0.0,0.0,0.0,0.0,0.0,0.0,0.0,0.0,0.0,0.0,0.0,0.0,0.0,0.0,0.0,0.0,0.0,0.0,0.0,0.0,0.0,0.0,0.0,0.0,0.0,0.0,0.0,0.0,0.0,0.0,0.0,0.0,0.0,0.0,0.0,0.0,0.0,0.0,0.0,0.0,0.0,0.0,0.0,0.0,0.0,0.0,0.0,0.0,0.0,0.0,0.0,0.0,0.0,0.0,0.0,0.0,0.0,0.0,0.0,0.0,0.0,0.0,0.0,0.0,0.0,0.0,0.0,0.0,0.0,0.0,0.0,0.0,0.0,0.0,0.0,0.0,0.0,0.0,0.0,0.0,0.0,0.0,0.0,0.0,0.0,0.0,0.0,0.0,0.0,0.0,0.0,0.0,0.0,0.0,0.0,0.0,0.0,0.0,0.0,0.0,0.0,0.0,0.0,0.0,0.0,0.0,0.0,0.0,0.0,0.0,0.0,0.0,0.0,0.0,0.0,0.0,0.0,0.0,0.0,0.0,0.0,0.0,0.0,0.0,0.0,0.0,0.0,0.0,0.0,0.0,0.0,0.0,0.0,0.0,0.0,0.0,0.0,0.0,0.0,0.0,0.0,0.0,0.0,0.0,0.0,0.0,0.0,0.0,0.0,0.0,0.0,0.0,0.0,0.0,0.0,0.0,0.0,0.0,0.0,0.0,0.0,0.0,0.0,0.0,0.0,0.0,0.0,0.0,0.0,0.0,0.0,0.0,0.0,0.0,0.0,0.0,0.0,0.0,0.0,0.0,0.0,0.0,0.0,0.0,0.0,0.0,0.0,0.0,0.0,0.0,0.0,0.0,0.0,0.0,0.0,0.0,0.0,0.0,0.0,0.0,0.0,0.0,0.0,0.0,0.0,0.0,0.0,0.0,0.0,0.0,0.0,0.0,0.0,0.0,0.0,0.0,0.0,0.0,0.0,0.0,0.0,0.0,0.0,0.0,0.0,0.0,0.0,0.0,0.0,0.0,0.0,0.0,0.0,0.0,0.0,0.0,0.0,0.0,0.0,0.0,0.0,0.0,0.0,0.0,0.0,0.0,0.0,0.0,0.0,0.0,0.0,0.0,0.0,0.0,0.0,0.0,0.0,0.0,0.0,0.0,0.0,0.0,0.0,0.0,0.0,0.0,0.0,0.0,0.0,0.0,0.0,0.0,0.0,0.0,0.0,0.0,0.0,0.0,0.0,0.0,0.0,0.0,0.0,0.0,0.0,0.0,0.0,0.0,0.0,0.0,0.0,0.0,0.0,0.0,0.0,0.0,0.0,0.0,0.0,0.0,0.0,0.0,0.0,0.0,0.0,0.0,0.0,0.0,0.0,0.0,0.0,0.0,0.0,0.0,0.0,0.0,0.0,0.0,0.0,0.0,0.0,0.0,0.0,0.0,0.0,0.0,0.0,0.0,0.0,0.0,0.0,0.0,0.0,0.0,0.0,0.0,0.0,0.0,0.0,0.0,0.0,0.0,0.0,0.0,0.0,0.0,0.0,0.0,0.0,0.0,0.0,0.0,0.0,0.0,0.0,0.0,0.0,0.0,0.0,0.0,0.0,0.0,0.0,0.0,0.0,0.0,0.0,0.0,0.0,0.0,0.0,0.0,0.0,0.0,0.0,0.0,0.0,0.0,0.0,0.0,0.0,0.0,0.0,0.0,0.0,0.0,0.0,0.0,0.0,0.0,0.0,0.0,0.0,0.0,0.0,0.0,0.0,0.0,0.0,0.0,0.0,0.0,0.0,0.0,0.0,0.0,0.0,0.0,0.0,0.0,0.0,0.0,0.0,0.0,0.0,0.0,0.0,0.0,0.0,0.0,0.0,0.0,0.0,0.0,0.0,0.0,0.0,0.0,0.0,0.0,0.0,0.0,0.0,0.0,0.0,0.0,0.0,0.0,0.0,0.0,0.0,0.0,0.0,0.0,0.0,0.0,0.0,0.0,0.0,0.0,0.0,0.0,0.0,0.0,0.0,0.0,0.0,0.0,0.0,0.0,0.0,0.0,0.0,0.0,0.0,0.0,0.0,0.0,0.0,0.0,0.0,0.0,0.0,0.0,0.0,0.0,0.0,0.0,0.0,0.0,0.0,0.0,0.0,0.0,0.0,0.0,0.0,0.0,0.3302,0.0,0.0,0.0,0.0,0.0,0.0,0.0,0.0,0.0,0.0,0.0,0.0,0.0,0.0,0.0,0.0,0.0,0.0,0.0,0.0,0.0,0.0,0.0,0.0,0.0,0.0,0.0,0.0,0.0,0.0,0.0,0.0,0.0,0.0,0.0,0.0,0.0,0.0,0.0,0.0,0.0,0.0,0.0,0.0,0.0,0.0,0.0,0.0,0.0,0.0,0.0,0.0,0.0,0.0,0.0,0.0,0.0,0.0,0.0,0.0,0.0,0.0,0.0,0.0,0.0,0.0,0.0,0.0,0.0,0.0,0.0,0.0,0.0,0.0,0.0,0.0,0.0,0.0,0.0,0.0,0.0,0.0,0.0,0.0,0.0,0.0,0.0,0.0,0.0,0.0,0.0,0.0,0.0,0.0,0.0,0.0,0.0,0.0,0.0,0.0,0.0,0.0,0.0,0.0,0.0,0.0,0.0,0.0,0.0,0.0,0.4635,0.4555,0.4048,0.3716,0.3612,0.0,0.0,0.0,0.0,0.0,0.0,0.0,0.0,0.0,0.0,0.0,0.0,0.0,0.0,0.0,0.0,0.0,0.0,0.0,0.0,0.0,0.0,0.0,0.0,0.0,0.0,0.0,0.0,0.0,0.0,0.0,0.0,0.0,0.0,0.0,0.0,0.0,0.0,0.0,0.0,0.0,0.0,0.0,0.0,0.0,0.0,0.0,0.0,0.0,0.0,0.0,0.0,0.0,0.0,0.0,0.0,0.0,0.0,0.0,0.0,0.0,0.0,0.0,0.0,0.0,0.0,0.0,0.0,0.0,0.0,0.0,0.0,0.0,0.0,0.0,0.0,0.0,0.0,0.0,0.0,0.0,0.0,0.0,0.0,0.0,0.0,0.0,0.0,0.0,0.0,0.0,0.0,0.0,0.0,0.0,0.0,0.0,0.0,0.0,0.0,0.0,0.0,0.0,0.0,0.0,0.0,0.0,0.0,0.0,0.0,0.0,0.0,0.4457,0.4079,0.388,0.0,0.0,0.0,0.0,0.0,0.0,0.0,0.0,0.0,0.0,0.0,0.0,0.0,0.0,0.0,0.0,0.0,0.0,0.0,0.0,0.0,0.0,0.0,0.0,0.0,0.0,0.0,0.0,0.0,0.0,0.0,0.0,0.0,0.0,0.0,0.0,0.0,0.0,0.0,0.0,0.0,0.0,0.0,0.0,0.0,0.0,0.0,0.0,0.0,0.0,0.0,0.0,0.0,0.0,0.0,0.0,0.0,0.0,0.0,0.0,0.0,0.0,0.0,0.0,0.0,0.0,0.0,0.0,0.0,0.0,0.0,0.0,0.0,0.0,0.0,0.0,0.0,0.0,0.0,0.0,0.0,0.0,0.0,0.0,0.0,0.0,0.0,0.0,0.0,0.0,0.0,0.0,0.0,0.0,0.0,0.0,0.0,0.0,0.0,0.0,0.0,0.0,0.0,0.0,0.0,0.0,0.0,0.0,0.0,0.0,0.5342,0.5863,0.5285,0.0,0.4188,0.0,0.0,0.0,0.0,0.0,0.0,0.0,0.0,0.0,0.0,0.0,0.0,0.0,0.0,0.0,0.0,0.0,0.0,0.0,0.0,0.0,0.0,0.0,0.0,0.0,0.0,0.0,0.0,0.0,0.0,0.0,0.0,0.0,0.0,0.0,0.0,0.0,0.0,0.0,0.0,0.0,0.0,0.0,0.0,0.0,0.0,0.0,0.0,0.0,0.0,0.0,0.0,0.0,0.0,0.0,0.0,0.0,0.0,0.0,0.0,0.0,0.0,0.0,0.0,0.0,0.0,0.0,0.0,0.0,0.0,0.0,0.0,0.0,0.0,0.0,0.0,0.0,0.0,0.0,0.0,0.0,0.0,0.0,0.0,0.0,0.0,0.0,0.0,0.0,0.0,0.0,0.0,0.0,0.0,0.0,0.0,0.0,0.0,0.0,0.0,0.0,0.0,0.0,0.0,0.0,0.0,0.0,0.0,0.0,0.0,0.5692,0.617,0.5574,0.4921,0.0,0.0,0.0,0.0,0.0,0.0,0.0,0.0,0.0,0.0,0.0,0.0,0.0,0.0,0.0,0.0,0.0,0.0,0.0,0.0,0.0,0.0,0.0,0.0,0.0,0.0,0.0,0.0,0.0,0.0,0.0,0.0,0.0,0.0,0.0,0.0,0.0,0.0,0.0,0.0,0.0,0.0,0.0,0.0,0.0,0.0,0.0,0.0,0.0,0.0,0.0,0.0,0.0,0.0,0.0,0.0,0.0,0.0,0.0,0.0,0.0,0.0,0.0,0.0,0.0,0.0,0.0,0.0,0.0,0.0,0.0,0.0,0.0,0.0,0.0,0.0,0.0,0.0,0.0,0.0,0.0,0.0,0.0,0.0,0.0,0.0,0.0,0.0,0.0,0.0,0.0,0.0,0.0,0.0,0.0,0.0,0.0,0.0,0.0,0.0,0.0,0.0,0.0,0.0,0.0,0.0,0.0,0.0,0.0,0.0,0.6195,0.6061,0.6262,0.5648,0.4992,0.4364,0.0,0.0,0.0,0.0,0.0,0.0,0.0,0.0,0.0,0.0,0.0,0.0,0.0,0.0,0.0,0.0,0.0,0.0,0.0,0.0,0.0,0.0,0.0,0.0,0.0,0.0,0.0,0.0,0.0,0.0,0.0,0.0,0.0,0.0,0.0,0.0,0.0,0.0,0.0,0.0,0.0,0.0,0.0,0.0,0.0,0.0,0.0,0.0,0.0,0.0,0.0,0.0,0.0,0.0,0.0,0.0,0.0,0.0,0.0,0.0,0.0,0.0,0.0,0.0,0.0,0.0,0.0,0.0,0.0,0.0,0.0,0.0,0.0,0.0,0.0,0.0,0.0,0.0,0.0,0.0,0.0,0.0,0.0,0.0,0.0,0.0,0.0,0.0,0.0,0.0,0.0,0.0,0.0,0.0,0.0,0.0,0.0,0.0,0.0,0.0,0.0,0.0,0.0,0.0,0.0,0.0,0.0,0.0,0.8077,0.7119,0.6511,0.641,0.5521,0.5004,0.0,0.0,0.0,0.0,0.0,0.0,0.0,0.0,0.0,0.0,0.0,0.0,0.0,0.0,0.0,0.0,0.0,0.0,0.0,0.0,0.0,0.0,0.0,0.0,0.0,0.0,0.0,0.0,0.0,0.0,0.0,0.0,0.0,0.0,0.0,0.0,0.0,0.0,0.0,0.0,0.0,0.0,0.0,0.0,0.0,0.0,0.0,0.0,0.0,0.0,0.0,0.0,0.0,0.0,0.0,0.0,0.0,0.0,0.0,0.0,0.0,0.0,0.0,0.0,0.0,0.0,0.0,0.0,0.0,0.0,0.0,0.0,0.0,0.0,0.0,0.0,0.0,0.0,0.0,0.0,0.0,0.0,0.0,0.0,0.0,0.0,0.0,0.0,0.0,0.0,0.0,0.0,0.0,0.0,0.0,0.0,0.0,0.0,0.0,0.0,0.0,0.0,0.0,0.0,0.0,0.0,0.0,0.0,0.0,0.7761,0.7764,0.753,0.7048,0.6388,0.5898,0.0,0.0,0.0,0.0,0.0,0.0,0.0,0.0,0.0,0.0,0.0,0.0,0.0,0.0,0.0,0.0,0.0,0.0,0.0,0.0,0.0,0.0,0.0,0.0,0.0,0.0,0.0,0.0,0.0,0.0,0.0,0.0,0.0,0.0,0.0,0.0,0.0,0.0,0.0,0.0,0.0,0.0,0.0,0.0,0.0,0.0,0.0,0.0,0.0,0.0,0.0,0.0,0.0,0.0,0.0,0.0,0.0,0.0,0.0,0.0,0.0,0.0,0.0,0.0,0.0,0.0,0.0,0.0,0.0,0.0,0.0,0.0,0.0,0.0,0.0,0.0,0.0,0.0,0.0,0.0,0.0,0.0,0.0,0.0,0.0,0.0,0.0,0.0,0.0,0.0,0.0,0.0,0.0,0.0,0.0,0.0,0.0,0.0,0.0,0.0,0.0,0.0,0.0,0.0,0.0,0.0,0.0,0.0,0.0,0.8055,0.0,0.8418,0.7642,0.6984,0.6405,0.0,0.0,0.0,0.0,0.0,0.0,0.0,0.0,0.0,0.0,0.0,0.0,0.0,0.0,0.0,0.0,0.0,0.0,0.0,0.0,0.0,0.0,0.0,0.0,0.0,0.0,0.0,0.0,0.0,0.0,0.0,0.0,0.0,0.0,0.0,0.0,0.0,0.0,0.0,0.0,0.0,0.0,0.0,0.0,0.0,0.0,0.0,0.0,0.0,0.0,0.0,0.0,0.0,0.0,0.0,0.0,0.0,0.0,0.0,0.0,0.0,0.0,0.0,0.0,0.0,0.0,0.0,0.0,0.0,0.0,0.0,0.0,0.0,0.0,0.0,0.0,0.0,0.0,0.0,0.0,0.0,0.0,0.0,0.0,0.0,0.0,0.0,0.0,0.0,0.0,0.0,0.0,0.0,0.0,0.0,0.0,0.0,0.0,0.0,0.0,0.0,0.0,0.0,0.0,0.0,0.0,0.0,0.0,0.8518,0.9177,0.9439,0.9151,0.815,0.7259,0.6488,0.0,0.0,0.0,0.0,0.0,0.0,0.0,0.0,0.0,0.0,0.0,0.0,0.0,0.0,0.0,0.0,0.0,0.0,0.0,0.0,0.0,0.0,0.0,0.0,0.0,0.0,0.0,0.0,0.0,0.0,0.0,0.0,0.0,0.0,0.0,0.0,0.0,0.0,0.0,0.0,0.0,0.0,0.0,0.0,0.0,0.0,0.0,0.0,0.0,0.0,0.0,0.0,0.0,0.0,0.0,0.0,0.0,0.0,0.0,0.0,0.0,0.0,0.0,0.0,0.0,0.0,0.0,0.0,0.0,0.0,0.0,0.0,0.0,0.0,0.0,0.0,0.0,0.0,0.0,0.0,0.0,0.0,0.0,0.0,0.0,0.0,0.0,0.0,0.0,0.0,0.0,0.0,0.0,0.0,0.0,0.0,0.0,0.0,0.0,0.0,0.0,0.0,0.0,0.0,0.0,0.0,0.0,0.0,0.0,1.0288,1.0037,0.9856,0.9755,0.8332,0.7602,0.0,0.0,0.0,0.0,0.0,0.0,0.0,0.0,0.0,0.0,0.0,0.0,0.0,0.0,0.0,0.0,0.0,0.0,0.0,0.0,0.0,0.0,0.0,0.0,0.0,0.0,0.0,0.0,0.0,0.0,0.0,0.0,0.0,0.0,0.0,0.0,0.0,0.0,0.0,0.0,0.0,0.0,0.0,0.0,0.0,0.0,0.0,0.0,0.0,0.0,0.0,0.0,0.0,0.0,0.0,0.0,0.0,0.0,0.0,0.0,0.0,0.0,0.0,0.0,0.0,0.0,0.0,0.0,0.0,0.0,0.0,0.0,0.0,0.0,0.0,0.0,0.0,0.0,0.0,0.0,0.0,0.0,0.0,0.0,0.0,0.0,0.0,0.0,0.0,0.0,0.0,0.0,0.0,0.0,0.0,0.0,0.0,0.0,0.0,0.0,0.0,0.0,0.0,0.0,0.0,0.0,0.0,0.0,0.0,1.1336,1.0578,1.016,1.0229,0.8829,0.8142,0.8322,0.0,0.0,0.0,0.0,0.0,0.0,0.0,0.0,0.0,0.0,0.0,0.0,0.0,0.0,0.0,0.0,0.0,0.0,0.0,0.0,0.0,0.0,0.0,0.0,0.0,0.0,0.0,0.0,0.0,0.0,0.0,0.0,0.0,0.0,0.0,0.0,0.0,0.0,0.0,0.0,0.0,0.0,0.0,0.0,0.0,0.0,0.0,0.0,0.0,0.0,0.0,0.0,0.0,0.0,0.0,0.0,0.0,0.0,0.0,0.0,0.0,0.0,0.0,0.0,0.0,0.0,0.0,0.0,0.0,0.0,0.0,0.0,0.0,0.0,0.0,0.0,0.0,0.0,0.0,0.0,0.0,0.0,0.0,0.0,0.0,0.0,0.0,0.0,0.0,0.0,0.0,0.0,0.0,0.0,0.0,0.0,0.0,0.0,0.0,0.0,0.0,0.0,0.0,0.0,0.0,0.0,0.0,0.0,1.224,1.1023,1.0199,0.9768,0.89,0.833,0.0,0.0,0.0,0.0,0.0,0.0,0.0,0.0,0.0,0.0,0.0,0.0,0.0,0.0,0.0,0.0,0.0,0.0,0.0,0.0,0.0,0.0,0.0,0.0,0.0,0.0,0.0,0.0,0.0,0.0,0.0,0.0,0.0,0.0,0.0,0.0,0.0,0.0,0.0,0.0,0.0,0.0,0.0,0.0,0.0,0.0,0.0,0.0,0.0,0.0,0.0,0.0,0.0,0.0,0.0,0.0,0.0,0.0,0.0,0.0,0.0,0.0,0.0,0.0,0.0,0.0,0.0,0.0,0.0,0.0,0.0,0.0,0.0,0.0,0.0,0.0,0.0,0.0,0.0,0.0,0.0,0.0,0.0,0.0,0.0,0.0,0.0,0.0,0.0,0.0,0.0,0.0,0.0,0.0,0.0,0.0,0.0,0.0,0.0,0.0,0.0,0.0,0.0,0.0,0.0,0.0,0.0,0.0,0.0,1.1609,1.0869,1.0689,1.1105,1.0365,0.9643,0.0,0.0,0.0,0.0,0.0,0.0,0.0,0.0,0.0,0.0,0.0,0.0,0.0,0.0,0.0,0.0,0.0,0.0,0.0,0.0,0.0,0.0,0.0,0.0,0.0,0.0,0.0,0.0,0.0,0.0,0.0,0.0,0.0,0.0,0.0,0.0,0.0,0.0,0.0,0.0,0.0,0.0,0.0,0.0,0.0,0.0,0.0,0.0,0.0,0.0,0.0,0.0,0.0,0.0,0.0,0.0,0.0,0.0,0.0,0.0,0.0,0.0,0.0,0.0,0.0,0.0,0.0,0.0,0.0,0.0,0.0,0.0,0.0,0.0,0.0,0.0,0.0,0.0,0.0,0.0,0.0,0.0,0.0,0.0,0.0,0.0,0.0,0.0,0.0,0.0,0.0,0.0,0.0,0.0,0.0,0.0,0.0,0.0,0.0,0.0,0.0,0.0,0.0,0.0,0.0,0.0,0.0,0.0,1.211,1.1959,1.1635,1.1452,1.1407,1.0575,0.9846,0.0,0.0,0.0,0.0,0.0,0.0,0.0,0.0,0.0,0.0,0.0,0.0,0.0,0.0,0.0,0.0,0.0,0.0,0.0,0.0,0.0,0.0,0.0,0.0,0.0,0.0,0.0,0.0,0.0,0.0,0.0,0.0,0.0,0.0,0.0,0.0,0.0,0.0,0.0,0.0,0.0,0.0,0.0,0.0,0.0,0.0,0.0,0.0,0.0,0.0,0.0,0.0,0.0,0.0,0.0,0.0,0.0,0.0,0.0,0.0,0.0,0.0,0.0,0.0,0.0,0.0,0.0,0.0,0.0,0.0,0.0,0.0,0.0,0.0,0.0,0.0,0.0,0.0,0.0,0.0,0.0,0.0,0.0,0.0,0.0,0.0,0.0,0.0,0.0,0.0,0.0,0.0,0.0,0.0,0.0,0.0,0.0,0.0,0.0,0.0,0.0,0.0,0.0,0.0,0.0,0.0,0.0,0.0,1.2458,1.2673,1.2705,1.2139,1.0964,1.018,0.9528,0.0,0.0,0.0,0.0,0.0,0.0,0.0,0.0,0.0,0.0,0.0,0.0,0.0,0.0,0.0,0.0,0.0,0.0,0.0,0.0,0.0,0.0,0.0,0.0,0.0,0.0,0.0,0.0,0.0,0.0,0.0,0.0,0.0,0.0,0.0,0.0,0.0,0.0,0.0,0.0,0.0,0.0,0.0,0.0,0.0,0.0,0.0,0.0,0.0,0.0,0.0,0.0,0.0,0.0,0.0,0.0,0.0,0.0,0.0,0.0,0.0,0.0,0.0,0.0,0.0,0.0,0.0,0.0,0.0,0.0,0.0,0.0,0.0,0.0,0.0,0.0,0.0,0.0,0.0,0.0,0.0,0.0,0.0,0.0,0.0,0.0,0.0,0.0,0.0,0.0,0.0,0.0,0.0,0.0,0.0,0.0,0.0,0.0,0.0,0.0,0.0,0.0,0.0,0.0,0.0,0.0,0.0,0.0,1.277,1.2609,1.2272,1.1586,1.0553,1.0741,1.0242,0.0,0.0,0.0,0.0,0.0,0.0,0.0,0.0,0.0,0.0,0.0,0.0,0.0,0.0,0.0,0.0,0.0,0.0,0.0,0.0,0.0,0.0,0.0,0.0,0.0,0.0,0.0,0.0,0.0,0.0,0.0,0.0,0.0,0.0,0.0,0.0,0.0,0.0,0.0,0.0,0.0,0.0,0.0,0.0,0.0,0.0,0.0,0.0,1.1716,0.0,0.0,0.0,0.0,0.0,0.0,0.0,0.0,0.0,0.0,0.0,0.0,0.0,0.0,0.0,0.0,0.0,0.0,0.0,0.0,0.0,0.0,0.0,0.0,0.0,0.0,0.0,0.0,0.0,0.0,0.0,0.0,0.0,0.0,0.0,0.0,0.0,0.0,0.0,0.0,0.0,0.0,0.0,0.0,0.0,0.0,0.0,0.0,0.0,0.0,0.0,0.0,0.0,0.0,0.0,0.0,0.0,0.0,0.0,1.28,1.2212,1.2343,1.179,1.0562,1.0673,1.0058,0.0,0.0,0.0,0.0,0.0,0.0,0.0,0.0,0.0,0.0,0.0,0.0,0.0,0.0,0.0,0.0,0.0,0.0,0.0,0.0,0.0,0.0,0.0,0.0,0.0,0.0,0.0,0.0,0.0,0.0,0.0,0.0,0.0,0.0,0.0,0.0,0.0,0.0,0.0,0.0,0.0,0.0,0.0,0.0,0.0,0.0,0.0,0.0,0.0,0.0,0.0,0.0,0.0,0.0,0.0,0.0,0.0,0.0,0.0,0.0,0.0,0.0,0.0,0.0,0.0,0.0,0.0,0.0,0.0,0.0,0.0,0.0,0.0,0.0,0.0,0.0,0.0,0.0,0.0,0.0,0.0,0.0,0.0,0.0,0.0,0.0,0.0,0.0,0.0,0.0,0.0,0.0,0.0,0.0,0.0,0.0,0.0,0.0,0.0,0.0,0.0,0.0,0.0,0.0,0.0,0.0,0.0,1.289,1.2824,1.2104,1.2656,1.2258,1.0725,1.0462,0.964,0.8209,0.0,0.0,0.0,0.0,0.0,0.0,0.0,0.0,0.0,0.0,0.0,0.0,0.0,0.0,0.0,0.0,0.0,0.0,0.0,0.0,0.0,0.0,0.0,0.0,0.0,0.0,0.0,0.0,0.0,0.0,0.0,0.0,0.0,0.0,0.0,0.0,0.0,0.0,1.0723,1.1305,0.0,0.0,0.0,0.0,0.0,0.0,0.0,0.0,1.2579,0.0,0.0,0.0,0.0,0.0,0.0,0.0,0.0,0.0,0.0,0.0,0.0,0.0,0.0,0.0,0.0,0.0,0.0,0.0,0.0,0.0,0.0,0.0,0.0,0.0,0.0,0.0,0.0,0.0,0.0,0.0,0.0,0.0,0.0,0.0,0.0,0.0,0.0,0.0,0.0,0.0,0.0,0.0,0.0,0.0,0.0,0.0,0.0,0.0,0.0,0.0,0.0,0.0,0.0,0.0,0.0,1.3488,1.3289,1.3306,1.3547,1.3141,1.2277,1.098,1.063,0.9764,0.8396,0.0,0.0,0.0,0.0,0.0,0.0,0.0,0.0,0.0,0.0,0.0,0.0,0.0,0.0,0.0,0.0,0.0,0.0,0.0,0.0,0.0,0.0,0.0,0.0,0.0,0.0,0.0,0.0,0.0,0.0,0.0,0.0,0.0,0.0,0.0,0.0,0.0,0.0,0.0,1.1022,1.1307,0.0,0.0,0.0,0.0,0.0,0.0,0.0,0.0,1.2077,0.0,0.0,0.0,0.0,0.0,0.0,0.0,0.0,0.0,0.0,0.0,0.0,0.0,0.0,0.0,0.0,0.0,0.0,0.0,0.0,0.0,0.0,0.0,0.0,0.0,0.0,0.0,0.0,0.0,0.0,0.0,0.0,0.0,0.0,0.0,0.0,0.0,0.0,0.0,0.0,0.0,0.0,0.0,0.0,0.0,0.0,0.0,0.0,0.0,0.0,0.0,0.0,0.0,0.0,0.0,1.3371,1.3529,1.3592,1.3482,1.3001,1.2212,1.108,1.0191,0.9243,0.0,0.0,0.0,0.0,0.0,0.0,0.0,0.0,0.0,0.0,0.0,0.0,0.0,0.0,0.0,0.0,0.0,0.0,0.0,0.0,0.0,0.0,0.0,0.0,0.0,0.0,0.0,0.0,0.0,0.0,0.0,0.0,0.0,0.0,0.0,0.0,0.0,0.0,0.0,0.0,1.1958,1.2122,1.2213,0.0,0.0,0.0,0.0,0.0,0.0,1.2473,1.2294,0.0,0.0,0.0,0.0,0.0,0.0,0.0,0.0,0.0,0.0,0.0,0.0,0.0,0.0,0.0,0.0,0.0,0.0,0.0,0.0,0.0,0.0,0.0,0.0,0.0,0.0,0.0,0.0,0.0,0.0,0.0,0.0,0.0,0.0,0.0,0.0,0.0,0.0,0.0,0.0,0.0,0.0,0.0,0.0,0.0,0.0,0.0,0.0,0.0,0.0,0.0,0.0,0.0,0.0,0.0,1.3282,1.375,1.3809,1.339,1.2878,1.214,1.1176,0.9844,0.8892,0.0,0.0,0.0,0.0,0.0,0.0,0.0,0.0,0.0,0.0,0.0,0.0,0.0,0.0,0.0,0.0,0.0,0.0,0.0,0.0,0.0,0.0,0.0,0.0,0.0,0.0,0.0,0.0,0.0,0.0,0.0,0.0,0.0,0.0,0.0,0.0,0.0,0.0,0.0,0.0,0.0,1.3116,1.2706,1.3169,0.0,0.0,0.0,0.0,1.2779,1.2615,0.0,0.0,0.0,0.0,0.0,0.0,0.0,0.0,0.0,0.0,0.0,0.0,0.0,0.0,0.0,0.0,0.0,0.0,0.0,0.0,0.0,0.0,0.0,0.0,0.0,0.0,0.0,0.0,0.0,0.0,0.0,0.0,0.0,0.0,0.0,0.0,0.0,0.0,0.0,0.0,0.0,0.0,0.0,0.0,0.0,0.0,0.0,0.0,0.0,0.0,0.0,0.0,0.0,0.0,0.0,0.0,1.4129,1.4064,1.4105,1.4264,1.319,1.2221,1.1455,1.0218,0.9433,0.0,0.0,0.0,0.0,0.0,0.0,0.0,0.0,0.0,0.0,0.0,0.0,0.0,0.0,0.0,0.0,0.0,0.0,0.0,0.0,0.0,0.0,0.0,0.0,0.0,0.0,0.0,0.0,0.0,0.0,0.0,0.0,0.0,0.0,0.0,0.0,0.0,0.0,0.0,0.0,0.0,1.3578,1.2953,1.3881,1.435,0.0,0.0,1.3228,1.2698,1.2054,0.0,0.0,0.0,0.0,0.0,0.0,0.0,0.0,0.0,0.0,0.0,0.0,0.0,0.0,0.0,0.0,0.0,0.0,0.0,0.0,0.0,0.0,0.0,0.0,0.0,0.0,0.0,0.0,0.0,0.0,0.0,0.0,0.0,0.0,0.0,0.0,0.0,0.0,0.0,0.0,0.0,0.0,0.0,0.0,0.0,0.0,0.0,0.0,0.0,0.0,0.0,0.0,0.0,0.0,0.0,1.4219,1.4471,1.4525,1.4394,1.4027,1.2917,1.1759,1.0612,0.9324,0.8688,0.0,0.0,0.0,0.0,0.0,0.0,0.0,0.0,0.0,0.0,0.0,0.0,0.0,0.0,0.0,0.0,0.0,0.0,0.0,0.0,0.0,0.0,0.0,0.0,0.0,0.0,0.0,0.0,0.0,0.0,0.0,0.0,0.0,0.0,0.0,0.0,0.0,0.0,0.0,0.0,0.0,0.0,1.354,1.4136,0.0,0.0,0.0,1.3887,1.3566,0.0,0.0,0.0,0.0,0.0,0.0,0.0,0.0,0.0,0.0,0.0,0.0,0.0,0.0,0.0,0.0,0.0,0.0,0.0,0.0,0.0,0.0,0.0,0.0,0.0,0.0,0.0,0.0,0.0,0.0,0.0,0.0,0.0,0.0,0.0,0.0,0.0,0.0,0.0,0.0,0.0,0.0,0.0,0.0,0.0,0.0,0.0,0.0,0.0,0.0,0.0,0.0,0.0,0.0,0.0,0.0,0.0,1.4297,1.4557,1.4259,1.3363,1.2331,1.1212,0.9999,0.8623,0.0,0.0,0.0,0.0,0.0,0.0,0.0,0.0,0.0,0.0,0.0,0.0,0.0,0.0,0.0,0.0,0.0,0.0,0.0,0.0,0.0,0.0,0.0,0.0,0.0,0.0,0.0,1.11,0.0,0.0,0.0,0.0,0.0,0.0,0.0,0.0,0.0,0.0,0.0,0.0,0.0,0.0,1.4033,1.3905,1.4364,1.4565,0.0,0.0,1.456,1.411,1.3265,1.2602,0.0,0.0,0.0,0.0,0.0,0.0,0.0,0.0,0.0,0.0,0.0,0.0,0.0,0.0,0.0,0.0,0.0,0.0,0.0,0.0,0.0,0.0,0.0,0.0,0.0,0.0,0.0,0.0,0.0,0.0,0.0,0.0,0.0,0.0,0.0,0.0,0.0,0.0,0.0,0.0,0.0,0.0,0.0,0.0,0.0,0.0,0.0,0.0,0.0,0.0,0.0,0.0,0.0,0.0,0.0,1.3422,1.3716,1.3406,1.2411,1.1467,1.0723,1.0155,0.8637,0.8185,0.0,0.0,0.0,0.0,0.0,0.0,0.0,0.0,0.0,0.0,0.0,0.0,0.0,0.0,0.0,0.0,0.0,0.0,0.0,0.0,0.0,0.0,0.0,0.0,0.0,0.0,0.0,0.0,0.0,0.0,0.0,0.0,0.0,0.0,0.0,0.0,0.0,0.0,0.0,0.0,0.0,1.4458,1.3744,1.4764,1.5312,0.0,0.0,1.5139,1.3752,1.2915,1.2361,1.2194,0.0,0.0,0.0,0.0,0.0,0.0,0.0,0.0,0.0,0.0,0.0,0.0,0.0,0.0,0.0,0.0,0.0,0.0,0.0,0.0,0.0,0.0,0.0,0.0,0.0,0.0,0.0,0.0,0.0,0.0,0.0,0.0,0.0,0.0,0.0,0.0,0.0,0.0,0.0,0.0,0.0,0.0,0.0,0.0,0.0,0.0,0.0,0.0,0.0,0.0,0.0,0.0,0.0,1.4057,1.3313,1.3664,1.3149,1.174,1.1199,1.0649,0.9967,0.8954,0.8726,0.0,0.0,0.0,0.0,0.0,0.0,0.0,0.0,0.0,0.0,0.0,0.0,0.0,0.0,0.0,0.0,0.0,0.0,0.0,0.0,0.0,0.0,0.0,0.0,0.0,0.0,0.0,0.0,1.1453,1.1139,1.0956,0.0,0.0,0.0,0.0,0.0,0.0,0.0,0.0,0.0,0.0,1.4462,1.4044,1.4521,0.0,0.0,1.4967,1.5089,1.4618,1.3971,1.3462,1.3326,1.3457,0.0,0.0,0.0,0.0,0.0,0.0,0.0,0.0,0.0,0.0,0.0,0.0,0.0,0.0,0.0,0.0,0.0,0.0,0.0,0.0,0.0,0.0,0.0,0.0,0.0,0.0,0.0,0.0,0.0,0.0,0.0,0.0,0.0,0.0,0.0,0.0,0.0,0.0,0.0,0.0,0.0,0.0,0.0,0.0,0.0,0.0,0.0,0.0,0.0,0.0,0.0,0.0,1.4088,1.3309,1.3474,1.2844,1.135,1.1066,1.0485,0.9598,0.9247,0.9207,0.0,0.0,0.0,0.0,0.0,0.0,0.0,0.0,0.0,0.0,0.0,0.0,0.0,0.0,0.0,0.0,0.0,0.0,0.0,0.0,0.0,0.0,0.0,0.0,0.0,0.0,0.0,0.0,1.1977,1.1576,1.1109,0.0,0.0,0.0,0.0,0.0,0.0,0.0,0.0,0.0,0.0,1.4764,1.4655,1.487,1.5041,1.5118,1.536,1.5469,1.5286,1.4788,1.4277,1.3872,0.0,0.0,0.0,0.0,0.0,0.0,0.0,0.0,0.0,0.0,0.0,0.0,0.0,0.0,0.0,0.0,0.0,0.0,0.0,0.0,0.0,0.0,0.0,0.0,0.0,0.0,0.0,0.0,0.0,0.0,0.9496,0.0,0.0,0.0,0.0,0.0,0.0,0.0,0.0,0.0,0.0,0.0,0.0,0.0,0.0,0.0,0.0,0.0,0.0,0.0,0.0,0.0,0.0,1.4156,1.333,1.3001,1.237,1.1434,1.0952,1.0209,0.9146,0.9458,0.945,0.896,0.0,0.0,0.0,0.0,0.0,0.0,0.0,0.0,0.0,0.0,0.0,0.0,0.0,0.0,0.0,0.0,0.0,0.0,0.0,0.0,0.0,0.0,0.0,0.0,0.0,0.0,1.2535,1.2428,1.2255,0.0,0.0,0.0,0.0,0.0,0.0,0.0,0.0,0.0,0.0,1.5647,1.5548,1.5647,1.6123,1.6271,1.6138,1.6481,1.6426,1.5496,1.5132,1.4482,0.0,0.0,0.0,0.0,0.0,0.0,0.0,0.0,0.0,0.0,0.0,0.0,0.0,0.0,0.0,0.0,0.0,0.0,0.0,0.0,0.0,0.0,0.0,0.0,0.0,0.0,0.0,0.9872,0.9737,0.0,0.0,0.0,0.0,0.0,0.0,0.0,0.0,0.0,0.0,0.0,1.3924,1.427,0.0,0.0,0.0,0.0,0.0,0.0,0.0,0.0,0.0,0.0,0.0,0.0,1.3465,1.327,1.2824,1.2397,1.201,1.1763,1.1517,1.1248,1.0977,1.0503,0.9853,0.0,0.0,0.0,0.0,0.0,0.0,0.0,0.0,0.0,0.0,0.0,0.0,0.0,0.0,0.0,0.0,0.0,0.0,0.0,0.0,0.0,0.0,0.0,0.0,0.0,1.3178,0.0,0.0,0.0,0.0,0.0,0.0,0.0,0.0,0.0,0.0,0.0,1.551,1.5154,1.5803,1.6097,1.5625,1.5579,1.5479,0.0,0.0,0.0,0.0,0.0,0.0,0.0,0.0,0.0,0.0,0.0,0.0,0.0,0.0,1.3691,1.283,1.2697,1.2697,1.2603,0.0,0.0,0.0,0.0,0.0,0.0,0.0,0.0,0.0,0.0,0.0,0.0,0.0,0.0,0.0,0.0,1.1002,0.0,0.0,0.0,0.0,0.0,0.0,0.0,0.0,1.4397,1.4501,1.4579,1.469,1.4753,0.0,1.4715,1.4549,0.0,0.0,0.0,0.0,0.0,0.0,0.0,0.0,1.361,1.37,1.3222,1.2914,1.2798,1.2501,1.2261,1.2092,1.1498,1.0907,1.0332,1.0235,1.0187,0.0,0.0,0.0,0.0,0.0,0.0,0.0,0.0,0.0,0.0,0.0,0.0,0.0,0.0,0.0,0.0,0.0,0.0,0.0,0.0,0.0,0.0,0.0,1.3416,0.0,0.0,0.0,0.0,0.0,0.0,0.0,0.0,0.0,1.4552,1.5354,1.5885,1.5713,1.6228,1.6506,1.6282,0.0,0.0,0.0,0.0,0.0,0.0,0.0,1.6126,1.5757,1.585,1.5782,1.5217,1.5064,1.5151,1.5545,0.0,0.0,1.3334,1.3178,1.3166,1.303,1.3018,1.3188,1.3698,1.3797,1.3944,0.0,0.0,0.0,0.0,0.0,0.0,0.0,0.0,1.1282,1.138,0.0,1.1451,0.0,0.0,0.0,0.0,0.0,1.3925,0.0,0.0,1.4916,1.5042,1.5094,1.5018,1.4988,1.5005,1.4803,1.4715,1.4706,1.4705,0.0,0.0,0.0,0.0,0.0,0.0,1.4558,1.4472,1.4023,1.3802,1.381,1.3182,1.2451,1.1619,1.1119,1.0705,1.0356,1.0653,1.0801,1.0613,1.1255,0.0,0.0,0.0,0.0,0.0,0.0,0.0,0.0,0.0,0.0,0.0,0.0,0.0,0.0,0.0,0.0,0.0,0.0,0.0,0.0,1.3619,0.0,0.0,0.0,0.0,0.0,0.0,0.0,0.0,0.0,0.0,1.573,1.5831,1.6197,1.7316,0.0,0.0,0.0,0.0,1.6438,1.6972,1.6976,1.6735,1.6429,1.6411,1.6132,1.529,0.0,0.0,1.5222,1.5679,1.5899,1.5736,1.5513,1.5011,1.4041,1.4014,1.4046,1.3697,1.3915,1.4213,1.4368,1.4301,1.4233,0.6459,0.0,0.0,0.0,0.0,1.1224,1.1785,1.1673,1.2009,1.2163,1.2237,1.2297,0.0,0.0,0.0,0.0,0.0,0.0,1.4802,1.495,1.4916,1.5021,1.517,1.4997,1.4992,1.5122,1.498,1.5018,1.5196,1.5144,1.484,1.4268,0.0,0.0,0.0,0.0,1.3938,1.4689,1.414,1.3975,1.4344,1.409,1.3515,1.2655,1.1942,1.1372,1.0884,1.0616,1.056,1.0752,1.0903,0.0,0.0,0.0,0.0,0.0,0.0,0.0,0.0,0.0,0.0,0.0,0.0,0.0,0.0,0.0,0.0,0.0,0.0,0.0,1.3955,1.356,1.3523,0.0,0.0,0.0,0.0,0.0,0.0,0.0,0.0,0.0,1.5788,1.5882,1.6177,0.0,0.0,1.7505,1.7544,1.7001,1.6446,1.5915,1.6088,0.0,0.0,1.5887,1.6182,1.5936,1.5393,1.5163,1.5923,1.5788,1.5689,1.6081,1.6046,1.577,1.5034,1.4535,1.4325,1.4304,1.4185,1.4289,1.4829,1.5008,1.5171,0.8584,0.8143,0.8992,0.9705,1.0369,1.1344,1.1824,1.197,1.2246,1.2443,1.2581,1.2626,1.2965,1.3457,1.3386,0.0,0.0,0.0,1.4881,1.4927,1.4912,1.498,1.5133,1.4976,1.4993,1.5187,1.5119,1.5196,1.5416,1.5249,1.4972,1.4573,0.0,0.0,1.4322,1.4015,1.4175,1.4813,1.436,1.4273,1.456,1.4144,1.3619,1.3013,1.238,1.1809,1.1267,1.0902,1.0856,1.1168,1.1248,1.1429,0.0,0.0,0.0,0.0,0.0,0.0,0.0,0.0,0.0,0.0,0.0,1.3417,0.0,0.0,0.0,0.0,1.3942,1.3817,1.3996,1.3792,0.0,0.0,0.0,0.0,0.0,0.0,0.0,1.4684,1.4918,1.5389,1.6184,1.623,1.642,1.6996,1.721,1.7317,1.7312,0.0,1.612,1.5768,1.5856,1.5879,1.5563,1.5825,1.61,1.6057,1.5757,1.5721,1.6262,1.5966,1.5879,1.6439,1.6324,1.5976,1.5856,1.5283,1.4821,1.4862,1.4779,1.4911,1.5411,1.5569,1.5752,0.9978,0.9792,0.9654,0.9943,1.0596,1.1193,1.1775,1.2241,1.2252,1.2403,1.2703,1.2668,1.2947,1.3508,1.4029,0.0,1.3225,1.4317,1.4837,1.482,1.4898,1.4977,1.5094,1.495,1.5012,1.5195,1.5197,1.5253,1.5376,1.5158,1.5022,1.502,1.5009,1.4825,1.4532,1.4787,1.4893,1.4775,1.4651,1.4531,1.444,1.3634,1.3071,1.2829,1.2503,1.205,1.1534,1.1362,1.1435,1.1803,1.1952,1.204,1.2091,0.0,0.0,0.0,0.0,0.0,0.0,0.0,0.0,0.0,0.0,0.0,0.0,0.0,0.0,0.0,1.3445,0.0,1.3881,1.4111,0.0,0.0,0.0,1.4497,1.4163,1.4314,1.4572,1.499,0.0,0.0,1.6734,1.6768,1.6851,1.7338,1.6849,1.6584,1.6915,1.6207,1.5711,1.6139,1.6064,1.6088,1.617,1.6107,1.6001,1.5881,1.6132,1.6367,1.6466,1.6293,1.6411,1.6905,1.6293,1.58,1.6466,1.5884,1.5513,1.5299,1.549,1.5724,1.592,1.5952,1.5996,0.9241,0.9189,1.0467,1.1329,1.1866,1.1953,1.2313,1.2795,1.2604,1.2636,1.2852,1.2929,1.3423,1.4174,1.4663,1.4776,1.4625,1.4882,1.5021,1.5035,1.504,1.5106,1.5172,1.4973,1.5024,1.525,1.5113,1.5163,1.5385,1.5283,1.5158,1.5013,1.5018,1.4835,1.4518,1.4485,1.4485,1.4566,1.4439,1.4211,1.3902,1.3425,1.3071,1.2794,1.2522,1.2143,1.1659,1.1279,1.1399,1.2032,1.1742,1.1921,1.2778,1.2861,0.0,0.0,0.0,0.0,0.0,0.0,0.0,0.0,0.0,1.4098,1.4332,0.0,1.3868,0.0,1.4228,1.4092,1.4208,1.4053,0.0,0.0,1.43,1.43,1.4254,1.456,1.4849,1.5073,1.5774,1.6382,1.6649,1.7037,1.7301,1.7378,1.7081,1.6837,1.6769,1.6268,1.5886,1.5844,1.5836,1.5804,1.5957,1.6057,1.61,1.6001,1.6219,1.6436,1.6479,1.6607,1.6663,1.6491,1.6275,1.5913,1.5591,1.539,1.5435,1.5435,1.557,1.5748,1.5944,1.6088,1.6144,0.941,1.0135,1.1173,1.1951,1.2541,1.2602,1.2747,1.2958,1.3025,1.3092,1.316,1.3341,1.3707,1.4235,1.4728,1.492,1.4844,1.5059,1.5054,1.4874,1.4954,1.5047,1.5099,1.4999,1.5076,1.5291,1.5188,1.5229,1.5392,1.5326,1.5261,1.5144,1.5091,1.4941,1.4646,1.4796,1.4848,1.4802,1.4542,1.4276,1.3953,1.3378,1.3088,1.3111,1.2843,1.2669,1.2588,1.2138,1.2127,1.2646,1.2191,1.2296,1.3045,1.3116,1.2944,0.0,0.0,0.0,0.0,0.0,0.0,0.0,0.0,0.0,0.0,0.0,1.4028,1.4515,1.4337,1.4222,1.4287,1.4138,1.404,1.4105,1.4379,1.4493,1.4392,1.484,1.529,1.5651,1.6188,1.6665,1.685,1.7221,1.7378,1.7225,1.6989,1.6837,1.6667,1.6293,1.5957,1.5836,1.5881,1.5981,1.6044,1.6175,1.6275,1.6207,1.6392,1.6577,1.665,1.662,1.6547,1.6349,1.6001,1.5647,1.5367,1.5379,1.5435,1.5603,1.5736,1.5881,1.5957,1.61,1.62,0.9786,1.1455,1.1677,1.2119,1.2721,1.3184,1.3282,1.3091,1.3382,1.3546,1.3602,1.3805,1.3992,1.4137,1.4588,1.4736,1.4616,1.5033,1.5026,1.4701,1.487,1.4969,1.503,1.5047,1.5124,1.528,1.5284,1.5339,1.5409,1.5354,1.5292,1.5245,1.5201,1.5018,1.4772,1.5298,1.5422,1.511,1.4807,1.4568,1.4388,1.3566,1.3279,1.3546,1.3334,1.3342,1.367,1.325,1.3094,1.3323,1.2948,1.2838,1.3091,1.3288,1.3357,0.0,1.3914,0.0,0.0,0.0,0.0,0.0,0.0,0.0,0.0,1.4222,1.4254,1.4235,1.4078,1.4072,1.4316,1.4343,1.4285,1.4145,1.4615,1.4849,1.466,1.5227,1.5813,1.6336,1.6454,1.6676,1.7162,1.7308,1.7238,1.7002,1.6778,1.6637,1.668,1.6337,1.6001,1.6001,1.6132,1.6231,1.6349,1.6436,1.6479,1.6479,1.6663,1.6816,1.6876,1.6663,1.6436,1.6436,1.5944,1.5457,1.5668,1.5635,1.5647,1.5824,1.6001,1.6044,1.6044,1.6132,1.6231,0.901,1.0784,1.1723,1.2055,1.2116,1.3769,1.4286,1.3913,1.335,1.351,1.4154,1.4309,1.4507,1.4741,1.4833,1.4988,1.5155,1.5182,1.5201,1.5166,1.5155,1.5185,1.5245,1.525,1.5279,1.5299,1.5295,1.532,1.5404,1.5379,1.5272,1.5061,1.5006,1.4809,1.4534,0.0,0.0,0.0,1.519,1.5276,1.4866,1.4476,1.4212,1.4078,1.3879,0.0,1.3608,1.3209,1.3193,1.3574,1.3072,0.0,0.0,0.0,0.0,0.0,0.0,0.0,0.0,0.0,0.0,0.0,1.4369,1.4268,1.4203,1.4098,1.4046,1.3974,1.3954,1.4092,1.4506,1.4502,1.4663,1.5144,1.5265,1.5293,1.5319,1.5866,1.6284,1.6375,1.6781,1.7122,1.7282,1.7141,1.7099,1.7183,1.6718,1.6491,1.6791,1.6349,1.6001,1.6001,1.6219,1.6405,1.6479,1.6663,1.6791,1.6833,1.7044,1.7183,1.7044,1.7157,1.7102,1.6863,1.6466,1.625,1.6423,1.6076,1.5869,1.6318,1.6362,1.6318,1.6188,1.6275,1.6318,0.9603,0.0,1.2733,1.2955,0.0,1.3926,1.4418,1.4427,1.4128,1.4214,1.4595,1.4696,1.4743,1.4751,1.4889,1.5049,1.5199,1.5127,1.5139,1.5196,1.5222,1.5236,1.519,1.5251,1.5283,1.5295,1.5292,1.5313,1.5384,1.5375,1.528,1.5143,1.5075,1.4954,1.4765,1.5377,1.5706,1.5737,1.6043,1.5994,1.5578,1.5053,1.4788,1.4792,0.0,0.0,0.0,0.0,0.0,0.0,0.0,0.0,0.0,0.0,0.0,1.2896,1.3365,1.3669,1.3769,1.4214,1.4483,1.4388,1.4241,1.4124,1.4053,1.396,1.3861,1.3775,1.4044,1.4332,1.4572,1.4836,1.5149,1.5474,1.571,1.5905,1.5996,1.6441,1.6781,1.6807,1.7016,1.7253,1.7295,1.717,1.7044,1.7057,1.6803,1.6534,1.662,1.6362,1.6132,1.6306,1.6392,1.6509,1.6693,1.6833,1.696,1.7099,1.728,1.735,1.7282,1.7212,1.7115,1.6863,1.665,1.6509,1.6436,1.6349,1.6306,1.6392,1.6436,1.6392,1.6362,1.6405,1.6392,1.0382,1.3159,1.3691,1.383,1.3681,1.4016,1.4383,1.4756,0.0,0.0,0.0,1.4986,1.4907,1.4751,1.4919,1.505,1.5133,1.5082,1.5094,1.5149,1.526,1.5236,1.5143,1.5246,1.5283,1.5295,1.5288,1.5319,1.5371,1.5327,1.5291,1.5293,1.5229,1.5127,1.5114,1.5687,1.6308,1.6885,1.6829,1.664,1.6407,1.5548,1.5168,1.535,1.5232,1.5239,1.5402,1.5419,1.5255,1.4907,1.442,1.3967,1.3682,1.3263,1.2918,1.2709,1.3116,1.3391,1.3378,1.4052,1.442,1.4254,1.4098,1.398,1.3874,1.3775,1.3793,1.3757,1.4267,1.4676,1.4886,1.5343,1.5696,1.5787,1.6232,1.6532,1.6558,1.6924,1.7173,1.7212,1.724,1.7282,1.7295,1.7199,1.7073,1.6876,1.6791,1.6748,1.6479,1.6362,1.6318,1.6534,1.662,1.6693,1.6918,1.7044,1.7128,1.7404,1.7474,1.7515,1.7502,1.7253,1.7031,1.7115,1.6765,1.6637,1.6607,1.6595,1.6637,1.6607,1.6479,1.6436,1.6479,1.6436,1.6349,1.0277,1.3305,1.3555,1.3597,1.3587,1.435,1.4743,1.4882,1.5006,1.5173,1.5313,1.508,1.5113,1.5268,1.5105,1.5125,1.5349,1.528,1.5299,0.0,1.5319,1.5315,1.5354,1.5327,1.5289,1.5288,1.5295,1.5295,1.5315,1.5315,1.5299,1.5279,1.5168,1.5047,1.4995,1.5639,1.6226,1.6648,1.6852,1.7072,1.7282,1.608,1.5346,1.5232,1.5023,1.4839,1.4654,1.5125,1.5255,1.4998,1.4749,1.4369,1.3868,1.3488,1.301,1.252,1.3104,1.3263,1.2814,1.3782,1.4319,1.4065,1.4124,1.4026,1.3682,1.3628,1.3822,1.4314,1.4469,1.4995,1.597,1.6192,1.6428,1.6859,1.7016,1.7081,1.7068,1.7133,1.7212,1.7253,1.7352,1.7488,1.7556,1.7282,1.7102,1.7157,1.682,1.6479,1.6479,1.6479,1.6479,1.6565,1.6735,1.6918,1.7044,1.7337,1.7515,1.7651,1.772,1.776,1.7679,1.7597,1.7597,1.7706,1.724,1.7144,1.7652,1.7102,1.6808,1.7018,1.6765,1.6436,1.6479,1.6306,1.6132,1.1099,1.3494,1.4155,1.439,1.4392,1.4839,1.5037,1.5068,1.5164,1.5257,1.5329,1.5241,1.5233,1.5217,1.5101,1.5139,1.528,1.5209,1.5265,1.5339,1.5326,1.5311,1.5357,1.5318,1.5299,1.5295,1.5245,1.5255,1.5295,1.5255,1.5265,1.5231,1.5042,1.4863,1.4785,1.5476,1.6115,1.6639,1.6958,1.7242,1.7449,1.6329,1.5596,1.5294,1.5196,1.4985,1.4728,1.524,1.5315,1.4968,1.4735,1.4388,1.3921,1.3475,1.3045,1.2697,1.3501,1.3635,1.2743,1.3581,1.4092,1.4019,1.4124,1.4206,1.4253,1.4288,1.4384,1.453,1.5149,1.5774,1.6349,1.6663,1.6924,1.716,1.7212,1.7212,1.7212,1.7115,1.7157,1.7323,1.7419,1.7474,1.7515,1.7282,1.706,1.7031,1.665,1.6479,1.6479,1.6577,1.662,1.6705,1.6833,1.7031,1.724,1.7406,1.7625,1.7788,1.7842,1.7882,1.7801,1.7801,1.7842,1.7895,1.7598,1.7475,1.7841,1.7256,1.6921,1.6778,1.6723,1.6436,1.6436,1.638,1.6219,1.1919,1.389,1.4616,1.4972,1.4992,1.5161,1.519,1.5184,1.5283,1.5318,1.5336,1.539,1.5316,1.5187,1.5162,1.5194,1.5226,1.5187,1.5214,1.5283,1.5295,1.5295,1.5313,1.5448,1.5554,1.5579,1.5659,1.5766,1.582,1.5609,1.5356,1.5177,1.5068,1.4981,1.4941,1.56,1.63,1.6955,1.7098,1.7302,1.7541,1.6317,1.5479,1.5162,1.5067,1.4914,1.4656,1.5236,1.5418,1.5013,1.4766,1.4438,1.4019,1.3622,1.3263,1.3035,1.3802,1.398,1.3242,1.356,1.3894,1.4,1.4278,1.454,1.4782,1.5172,1.5246,1.5121,1.5865,1.6455,1.6517,1.6896,1.7157,1.7031,1.7073,1.7073,1.7115,1.6989,1.6989,1.731,1.7378,1.7308,1.7308,1.7253,1.7031,1.6748,1.6577,1.6565,1.6565,1.6675,1.6803,1.6918,1.696,1.7073,1.7393,1.7475,1.7557,1.7788,1.7788,1.7788,1.7842,1.7882,1.7922,1.7975,1.776,1.7598,1.7488,1.7102,1.6837,1.6693,1.6522,1.6362,1.6392,1.6436,1.6349,1.2272,1.4043,1.4399,1.4534,1.4705,1.5121,1.5232,1.5154,1.5309,1.5385,1.5387,1.5413,1.5399,1.5379,1.5353,1.5343,1.531,1.5351,1.5349,1.5303,1.5299,1.5295,1.5392,1.5996,1.6291,1.6388,1.6948,1.7236,1.7292,1.6629,1.5871,1.5167,1.5478,1.5759,1.5913,1.6423,1.7109,1.7928,1.7347,1.7287,1.7684,1.5884,1.4671,1.4396,1.4298,1.4046,1.3857,1.4943,1.5492,1.5268,1.5058,1.4783,1.4388,1.4084,1.3722,1.3319,1.3602,1.3848,1.4092,1.3894,1.3802,1.404,1.4675,1.4977,1.4902,1.6002,1.6658,1.6388,1.635,1.653,1.6654,1.6951,1.6905,1.6491,1.6607,1.6808,1.6876,1.6595,1.6582,1.7157,1.7186,1.7089,1.7199,1.7102,1.6879,1.6607,1.6633,1.6663,1.6675,1.6803,1.6918,1.7086,1.7157,1.7199,1.7269,1.7393,1.7516,1.7557,1.757,1.7666,1.7788,1.7801,1.7801,1.7935,1.7611,1.7406,1.7447,1.7157,1.6607,1.665,1.6491,1.6244,1.6231,1.6349,1.6362,1.3052,1.4107,1.4437,1.4734,1.498,1.5253,1.5327,1.5292,1.536,1.5407,1.5402,1.5416,1.5387,1.5339,1.5387,1.5363,1.5306,1.5326,1.5316,1.5361,1.5834,1.6019,1.6025,1.6798,1.714,1.7087,1.714,1.7309,1.7516,1.7248,1.6742,1.618,1.6275,1.6349,1.6466,1.6943,1.7417,1.7788,1.7697,1.7641,1.7429,1.6101,1.5169,1.4909,1.475,1.4546,1.4305,1.5064,1.5374,1.498,1.4951,1.4797,1.4369,1.4369,1.4195,1.3702,1.3535,1.3702,1.4254,1.3993,1.3795,1.3769,1.462,1.5087,1.5084,1.6083,1.6718,1.6753,1.6736,1.6798,1.6824,1.6637,1.6436,1.6293,1.6349,1.6436,1.6491,1.6565,1.6808,1.7227,1.7393,1.7393,1.7282,1.6976,1.6723,1.662,1.6688,1.6718,1.6803,1.6918,1.7002,1.7086,1.7157,1.7227,1.7323,1.7447,1.7475,1.7516,1.757,1.7666,1.7706,1.7747,1.7774,1.7895,1.7406,1.7157,1.7256,1.6892,1.6436,1.6577,1.6534,1.6318,1.6349,1.6491,1.6491,1.3602,1.4109,1.4634,1.4954,1.5103,1.5312,1.5395,1.5371,1.5403,1.5407,1.5414,1.5404,1.5359,1.533,1.5371,1.5371,1.5303,1.5287,1.5292,1.5351,1.5927,1.6273,1.6451,1.7274,1.7753,1.7848,1.7795,1.7757,1.7876,1.7813,1.7495,1.7003,1.6913,1.6951,1.7042,1.7518,1.7808,1.7896,1.8019,1.7837,1.7309,1.6418,1.5694,1.5309,1.5139,1.4917,1.4606,1.5168,1.5299,1.4902,1.498,1.4873,1.4525,1.4637,1.4511,1.4078,1.3769,1.3789,1.4254,1.4105,1.4007,1.4078,1.4756,1.523,1.5555,1.6126,1.6525,1.6676,1.6723,1.6655,1.6552,1.6262,1.6076,1.602,1.6032,1.6144,1.6231,1.6504,1.6735,1.7227,1.731,1.738,1.7227,1.6876,1.662,1.6688,1.6774,1.6803,1.6918,1.6989,1.7031,1.7031,1.7157,1.724,1.7393,1.7406,1.7434,1.7488,1.7556,1.7638,1.7666,1.7693,1.7679,1.772,1.724,1.6947,1.7031,1.6735,1.6436,1.6436,1.6392,1.6392,1.6436,1.6577,1.6577,1.3655,1.4272,1.4959,1.5106,1.4849,1.5234,1.5368,1.5313,1.5379,1.541,1.5403,1.5412,1.5362,1.5287,1.5359,1.5349,1.5295,1.5295,1.5272,1.5222,1.5375,1.5707,1.6444,1.7205,1.8003,1.8688,1.9225,1.919,1.8602,1.8534,1.7989,1.7001,1.7336,1.7567,1.774,1.8182,1.8461,1.8427,1.8151,1.7759,1.7287,1.6725,1.6056,1.5335,1.5106,1.4896,1.4637,1.5139,1.5403,1.5268,1.5208,1.5086,1.4856,1.4808,1.4637,1.4397,1.4332,1.4319,1.43,1.4235,1.4386,1.4881,1.5128,1.5492,1.5943,1.629,1.6451,1.6355,1.6194,1.5988,1.5724,1.5913,1.5836,1.5367,1.5724,1.6001,1.6156,1.6113,1.6262,1.6795,1.6921,1.6879,1.6905,1.6791,1.6675,1.6718,1.6846,1.7002,1.6989,1.7115,1.7157,1.7157,1.7199,1.7212,1.7199,1.7282,1.735,1.7391,1.7474,1.7515,1.7625,1.7733,1.7679,1.7503,1.7131,1.6892,1.6863,1.6748,1.6577,1.6479,1.6436,1.6436,1.6479,1.6479,1.6479,1.4187,1.4665,1.497,1.5115,1.5133,1.5264,1.5346,1.5371,1.5373,1.5412,1.5412,1.5404,1.5361,1.5283,1.5323,1.5291,1.5236,1.5274,1.5275,1.5334,1.6292,1.695,1.7256,1.8441,1.917,1.9479,1.9745,1.9717,1.9357,1.9132,1.872,1.8197,1.8179,1.8235,1.827,1.8537,1.8547,1.8217,1.8013,1.758,1.6926,1.6633,1.6269,1.5825,1.5689,1.5551,1.5326,1.5491,1.5507,1.5298,1.5268,1.5117,1.4839,1.4637,1.4529,1.4465,1.4383,1.4332,1.43,1.4268,1.4379,1.4713,1.5134,1.5466,1.5724,1.6128,1.6349,1.6076,1.5932,1.5712,1.548,1.5525,1.557,1.5513,1.5546,1.5736,1.5824,1.6175,1.6565,1.6667,1.6667,1.6723,1.665,1.662,1.662,1.6718,1.6876,1.7002,1.7128,1.7212,1.7212,1.7212,1.7212,1.7253,1.7295,1.735,1.735,1.7446,1.7487,1.761,1.772,1.7488,1.7393,1.7256,1.6964,1.6765,1.6705,1.6663,1.6534,1.6522,1.6479,1.6436,1.6479,1.6436,1.6362,1.4619,1.498,1.5037,1.5132,1.5291,1.527,1.532,1.5404,1.5414,1.5387,1.5362,1.5371,1.535,1.5313,1.5279,1.5236,1.5204,1.5236,1.5399,1.5715,1.6778,1.7547,1.8094,1.9039,1.9658,1.9851,1.9887,1.9763,1.9545,1.9357,1.9008,1.859,1.8478,1.8397,1.8275,1.8351,1.8208,1.7876,1.771,1.7278,1.6644,1.6448,1.6316,1.6123,1.6011,1.5898,1.5726,1.5639,1.5492,1.5358,1.5298,1.5117,1.4839,1.4637,1.4511,1.4501,1.442,1.4305,1.4295,1.443,1.464,1.4787,1.5183,1.55,1.559,1.5954,1.5964,1.5736,1.568,1.5591,1.539,1.5357,1.5435,1.5558,1.5635,1.5736,1.5812,1.6349,1.6577,1.6565,1.6595,1.6637,1.665,1.662,1.6663,1.6761,1.696,1.7115,1.7157,1.7212,1.7212,1.7212,1.7253,1.7308,1.7391,1.7432,1.7515,1.7556,1.7569,1.7638,1.7597,1.7323,1.7102,1.6976,1.6808,1.665,1.6565,1.6522,1.6522,1.6534,1.6479,1.6436,1.6392,1.6374,1.6268,1.491,1.5173,1.5131,1.5192,1.5295,1.5232,1.528,1.5402,1.5381,1.5351,1.5323,1.5313,1.5295,1.5284,1.5245,1.5199,1.5201,1.5306,1.5705,1.6362,1.6603,1.745,1.8687,1.8865,1.9262,1.9842,1.9832,1.9582,1.9237,1.9159,1.8859,1.8356,1.8115,1.8027,1.7927,1.7844,1.7664,1.7532,1.7302,1.6937,1.6512,1.6301,1.6179,1.6067,1.597,1.5827,1.5624,1.5551,1.5477,1.5403,1.5268,1.5117,1.4932,1.4777,1.47,1.4515,1.4483,1.4401,1.433,1.4728,1.5008,1.5322,1.55,1.5682,1.5911,1.5788,1.5558,1.548,1.5525,1.5468,1.539,1.5435,1.5468,1.5558,1.5824,1.6044,1.6207,1.6337,1.6436,1.6479,1.6509,1.6607,1.6791,1.6748,1.6761,1.6918,1.7073,1.7157,1.7199,1.7212,1.7212,1.7253,1.7295,1.735,1.7487,1.7569,1.7638,1.7679,1.7638,1.7638,1.7488,1.7269,1.7031,1.6863,1.6735,1.6577,1.662,1.662,1.6534,1.6534,1.6479,1.6442,1.6287,1.6225,1.6191,1.5254,1.5324,1.5267,1.5287,1.5352,1.5295,1.5326,1.5381,1.5349,1.5313,1.5303,1.5259,1.5231,1.5226,1.521,1.5207,1.5241,1.5778,1.6221,1.6592,1.7524,1.8266,1.8774,1.9179,1.9489,1.9668,1.9665,1.9489,1.9141,1.8875,1.8533,1.8273,1.8146,1.8086,1.8001,1.8044,1.7919,1.7505,1.7247,1.6834,1.6328,1.625,1.6139,1.597,1.5913,1.5799,1.561,1.558,1.5522,1.5433,1.5328,1.5147,1.4856,1.4686,1.4547,1.4433,1.4337,1.4536,1.4836,1.4812,1.5128,1.5698,1.5633,1.5723,1.6207,1.5925,1.5703,1.5736,1.5703,1.557,1.548,1.548,1.5513,1.5513,1.5647,1.578,1.5957,1.6076,1.6293,1.6552,1.6509,1.6522,1.6607,1.6705,1.6876,1.6918,1.7086,1.7212,1.7212,1.7212,1.7212,1.7212,1.7308,1.7432,1.7515,1.7597,1.7679,1.7666,1.7625,1.7543,1.7406,1.7186,1.6947,1.6791,1.6663,1.662,1.6663,1.662,1.6547,1.6567,1.6603,1.6409,1.6186,1.6163,1.6327,1.5287,1.5308,1.5281,1.5321,1.5392,1.5311,1.5315,1.5384,1.5329,1.5288,1.5313,1.5559,1.5474,1.5309,1.5472,1.5446,1.5376,1.6401,1.69,1.7018,1.8141,1.8935,1.9173,1.9388,1.9462,1.9368,1.9308,1.9146,1.8911,1.8534,1.82,1.798,1.7975,1.7866,1.776,1.7788,1.7614,1.7199,1.6885,1.6581,1.6277,1.6139,1.6026,1.5928,1.5871,1.577,1.561,1.5536,1.5477,1.5374,1.5238,1.5025,1.4777,1.4637,1.4529,1.4415,1.436,1.4544,1.5101,1.5197,1.5401,1.6088,1.6196,1.6191,1.6476,1.6262,1.6188,1.6001,1.5869,1.5703,1.5424,1.5334,1.5412,1.5546,1.5603,1.5736,1.5925,1.6207,1.6423,1.6637,1.6595,1.6607,1.6705,1.6748,1.6918,1.7002,1.7115,1.7212,1.7212,1.7212,1.7212,1.7253,1.7365,1.7502,1.7584,1.7666,1.772,1.7666,1.7529,1.7447,1.7323,1.7018,1.6778,1.6748,1.6633,1.6675,1.6663,1.659,1.6516,1.6603,1.6724,1.6669,1.659,1.6656,1.6729,1.5086,1.5192,1.5217,1.5302,1.5379,1.5253,1.5276,1.5361,1.5342,1.5334,1.5541,1.5898,1.5882,1.5536,1.595,1.5873,1.5671,1.7013,1.7711,1.7882,1.8545,1.9239,1.9717,1.9425,1.917,1.903,1.8859,1.8699,1.8531,1.8238,1.7893,1.7555,1.7618,1.7472,1.7345,1.7167,1.7076,1.6825,1.6436,1.6234,1.6194,1.6013,1.59,1.5856,1.5799,1.5712,1.558,1.5418,1.5344,1.5238,1.5025,1.4839,1.47,1.4683,1.4588,1.4443,1.4424,1.4787,1.5291,1.5784,1.619,1.6455,1.6927,1.731,1.6837,1.6735,1.6522,1.6132,1.5988,1.5724,1.5277,1.5198,1.5334,1.5603,1.5736,1.6013,1.6392,1.6667,1.671,1.6667,1.6765,1.6808,1.6833,1.6876,1.696,1.7086,1.7157,1.717,1.717,1.717,1.7253,1.7337,1.7365,1.7502,1.7597,1.7584,1.7638,1.7502,1.731,1.7102,1.7073,1.6863,1.668,1.6663,1.667,1.6701,1.669,1.6635,1.6695,1.6895,1.6952,1.7003,1.6991,1.6988,1.7116,1.5234,1.5351,1.5348,1.5355,1.539,1.5316,1.5292,1.5319,1.5298,1.5589,1.5958,1.5676,1.5837,1.6084,1.6292,1.6235,1.6449,1.7723,1.8497,1.8536,1.9133,1.9517,1.9657,1.932,1.9043,1.8928,1.8789,1.8587,1.8115,1.7945,1.7698,1.7296,1.7589,1.7658,1.7526,1.7377,1.7248,1.7052,1.6506,1.6169,1.607,1.5972,1.5827,1.5668,1.5668,1.5595,1.5463,1.5239,1.5088,1.498,1.4871,1.4686,1.4592,1.4547,1.4529,1.447,1.4853,1.5366,1.5935,1.6302,1.665,1.7116,1.7151,1.7115,1.7227,1.6934,1.6637,1.6337,1.6076,1.5647,1.5232,1.5277,1.5513,1.5703,1.5969,1.61,1.6088,1.6219,1.6436,1.6552,1.6607,1.6735,1.6833,1.6931,1.6918,1.7031,1.7031,1.7086,1.7086,1.7086,1.7128,1.7253,1.7337,1.7515,1.7597,1.7543,1.7502,1.7365,1.706,1.6625,1.6637,1.662,1.6522,1.6522,1.6629,1.6666,1.6796,1.6802,1.6973,1.7171,1.7301,1.7367,1.7185,1.7105,1.7361,1.5223,1.5312,1.533,1.5353,1.5354,1.532,1.5295,1.5287,1.5303,1.5716,1.6234,1.631,1.6448,1.6884,1.7221,1.7128,1.6987,1.8118,1.8627,1.867,1.9017,1.9258,1.9253,1.891,1.8717,1.8825,1.8455,1.8258,1.8094,1.7732,1.7492,1.7486,1.7542,1.7502,1.7425,1.7568,1.7455,1.7242,1.6952,1.6741,1.6409,1.6262,1.595,1.5699,1.5551,1.5463,1.5314,1.5102,1.4949,1.4856,1.4763,1.4655,1.4515,1.4547,1.4529,1.4456,1.501,1.5682,1.6302,1.6634,1.7139,1.7585,1.7475,1.7406,1.7406,1.7199,1.6989,1.6293,1.6207,1.5869,1.5424,1.5513,1.5812,1.5988,1.6231,1.6331,1.6088,1.6349,1.6534,1.6693,1.6778,1.6791,1.6876,1.6888,1.6918,1.696,1.696,1.696,1.696,1.696,1.7002,1.717,1.7308,1.7474,1.7515,1.7502,1.7157,1.7018,1.688,1.6424,1.6337,1.643,1.6641,1.6691,1.6666,1.6777,1.699,1.7133,1.7255,1.7419,1.7568,1.7676,1.7554,1.737,1.7612,1.5165,1.5233,1.5282,1.529,1.5294,1.5287,1.5288,1.5302,1.5463,1.5915,1.6586,1.7271,1.7428,1.7672,1.8136,1.822,1.7547,1.8421,1.8594,1.8615,1.8631,1.8681,1.8842,1.8378,1.8336,1.8545,1.7827,1.7898,1.8018,1.7566,1.7482,1.7683,1.755,1.7412,1.7542,1.7748,1.7685,1.7523,1.7547,1.7302,1.6864,1.6592,1.6262,1.5906,1.5874,1.5752,1.5569,1.5356,1.5156,1.4921,1.4836,1.47,1.4578,1.4624,1.4689,1.4773,1.5302,1.5965,1.652,1.7125,1.7584,1.8013,1.8016,1.7882,1.7598,1.7543,1.724,1.6411,1.6539,1.6293,1.5824,1.5957,1.6219,1.638,1.6577,1.662,1.6577,1.6705,1.6888,1.6947,1.7031,1.7044,1.696,1.6876,1.6833,1.6833,1.6876,1.6846,1.6833,1.6833,1.7002,1.7212,1.7308,1.7432,1.7419,1.7447,1.6976,1.6693,1.6648,1.6409,1.6256,1.6393,1.6773,1.691,1.6826,1.7051,1.7496,1.7579,1.7547,1.7667,1.7821,1.8031,1.8082,1.7871,1.7974,1.5252,1.536,1.5318,1.5297,1.5287,1.5283,1.5299,1.5362,1.5989,1.6644,1.7259,1.7486,1.7861,1.8399,1.8594,1.8474,1.835,1.8933,1.9203,1.8774,1.8297,1.8241,1.8318,1.804,1.81,1.826,1.8061,1.7888,1.785,1.8141,1.7856,1.7494,1.8334,1.8661,1.8036,1.8366,1.8582,1.8173,1.7926,1.7554,1.7089,1.6799,1.6539,1.6331,1.6571,1.6735,1.668,1.6546,1.6184,1.5614,1.5099,1.477,1.4669,1.4606,1.4828,1.5299,1.5916,1.6613,1.7227,1.7657,1.8023,1.8147,1.8029,1.7909,1.7868,1.7747,1.7488,1.7034,1.6951,1.6752,1.6454,1.638,1.6547,1.6675,1.6846,1.6833,1.6607,1.6565,1.6607,1.665,1.665,1.665,1.6607,1.662,1.6663,1.6705,1.6761,1.6774,1.6761,1.6718,1.6918,1.7128,1.717,1.7253,1.724,1.7144,1.6693,1.648,1.6483,1.6495,1.6333,1.647,1.6856,1.6979,1.6913,1.7266,1.7843,1.7769,1.7693,1.7903,1.804,1.8066,1.8135,1.8127,1.803,1.5291,1.5349,1.5315,1.5284,1.5353,1.5704,1.585,1.6011,1.667,1.7428,1.7965,1.7966,1.8331,1.9068,1.9131,1.9083,1.9005,1.9121,1.8942,1.8423,1.8031,1.8024,1.8093,1.8003,1.8024,1.8672,1.8984,1.8956,1.9039,1.881,1.8583,1.8021,1.8746,1.8483,1.8187,1.8672,1.8781,1.8634,1.8646,1.8343,1.7772,1.7522,1.7151,1.6892,1.704,1.7132,1.7055,1.6884,1.6673,1.6216,1.5595,1.498,1.478,1.4874,1.5254,1.5583,1.6515,1.7046,1.7525,1.7907,1.8175,1.8189,1.8069,1.7935,1.7882,1.7828,1.7529,1.7214,1.7089,1.7102,1.6892,1.681,1.6798,1.6837,1.705,1.6959,1.664,1.6534,1.6534,1.6534,1.6522,1.6522,1.6534,1.6534,1.6534,1.662,1.662,1.6633,1.6633,1.662,1.6791,1.696,1.7002,1.7031,1.7073,1.685,1.6349,1.6259,1.6381,1.6469,1.6445,1.6694,1.7005,1.7058,1.723,1.7613,1.8052,1.7973,1.7896,1.7963,1.8058,1.8116,1.8084,1.8084,1.7909,1.5297,1.5303,1.5418,1.5478,1.5618,1.6334,1.6689,1.6772,1.7466,1.8069,1.8591,1.8529,1.8955,1.9513,1.9599,1.9555,1.932,1.9091,1.8678,1.8198,1.8228,1.8185,1.816,1.8162,1.8367,1.9342,1.9567,1.9876,1.9802,1.9814,1.9151,1.8859,1.8908,1.8728,1.8369,1.8702,1.9113,1.9,1.9291,1.9161,1.855,1.8342,1.7925,1.749,1.7522,1.7574,1.7553,1.7405,1.7157,1.6972,1.6352,1.5641,1.518,1.524,1.5725,1.5674,1.6822,1.7451,1.7668,1.7951,1.8189,1.8189,1.8082,1.7962,1.7855,1.7828,1.757,1.7227,1.706,1.7115,1.7044,1.6841,1.6773,1.6797,1.7049,1.6974,1.6685,1.6534,1.6534,1.6534,1.6534,1.6534,1.6534,1.6534,1.6534,1.6534,1.6534,1.6534,1.6534,1.6577,1.6705,1.6791,1.6833,1.6735,1.6693,1.6701,1.6193,1.6221,1.6312,1.6502,1.6681,1.7133,1.7395,1.7507,1.7695,1.7977,1.8137,1.8082,1.8078,1.8084,1.8084,1.8084,1.8084,1.8073,1.7799,1.5299,1.5354,1.6019,1.6301,1.6405,1.7163,1.7466,1.7554,1.8193,1.8563,1.8699,1.9188,1.9438,1.9596,1.956,1.9301,1.8966,1.8783,1.8733,1.8507,1.8676,1.8675,1.8443,1.8637,1.89,1.8809,1.9154,1.9253,1.9293,1.9619,1.9547,1.8683,1.9466,1.9735,1.9247,1.9659,1.9706,1.939,1.9528,1.9233,1.8812,1.8508,1.8373,1.8035,1.8339,1.852,1.8547,1.845,1.8204,1.7624,1.741,1.683,1.6229,1.5853,1.5985,1.6361,1.6992,1.7682,1.8082,1.8157,1.8254,1.824,1.8121,1.8042,1.8029,1.7949,1.7733,1.7406,1.6921,1.6752,1.7282,1.6903,1.6598,1.6627,1.6746,1.6666,1.6541,1.6491,1.6479,1.6479,1.6479,1.6534,1.6534,1.6534,1.6534,1.6534,1.6534,1.6534,1.6534,1.6522,1.6607,1.6663,1.6705,1.6491,1.6318,1.6305,1.6195,1.6266,1.6432,1.6701,1.6991,1.7583,1.785,1.7634,1.7662,1.7886,1.8047,1.8104,1.8139,1.8084,1.8084,1.8084,1.7963,1.7788,1.7512,1.5546,1.595,1.6289,1.6708,1.7214,1.7952,1.8219,1.8279,1.893,1.922,1.9282,1.9513,1.9614,1.9476,1.9191,1.8802,1.8428,1.8302,1.8346,1.8425,1.8604,1.8993,1.8868,1.9164,1.9289,1.928,1.9261,1.9301,1.952,2.0545,2.0072,1.9353,1.9871,1.9851,1.9314,1.9531,1.9758,1.9596,1.9508,1.9353,1.9043,1.8869,1.8761,1.8753,1.8875,1.9003,1.8979,1.8827,1.8555,1.8144,1.7759,1.7339,1.6945,1.6786,1.6697,1.6987,1.7463,1.7907,1.8291,1.8254,1.824,1.8214,1.8135,1.8055,1.7975,1.7895,1.7814,1.7611,1.7337,1.7093,1.7617,1.7073,1.6992,1.6948,1.6867,1.6685,1.6523,1.6405,1.6392,1.6436,1.6479,1.6479,1.6534,1.6534,1.6534,1.6534,1.6534,1.6491,1.6491,1.6479,1.6479,1.6349,1.6318,1.6132,1.5985,1.6077,1.6109,1.6232,1.6527,1.6777,1.7048,1.7527,1.752,1.7311,1.75,1.7859,1.7997,1.8084,1.8084,1.8084,1.7975,1.7854,1.7678,1.7446,1.7112,1.5896,1.6507,1.6765,1.7286,1.7991,1.8735,1.8992,1.9063,1.9503,1.9701,1.9673,1.9523,1.9452,1.9313,1.887,1.8316,1.7788,1.7777,1.7972,1.8123,1.8448,1.9026,1.939,1.9443,1.9368,1.975,1.9724,1.963,1.9893,2.0613,2.0395,1.9719,1.9585,1.9551,1.9196,1.9445,1.9457,1.9465,1.9428,1.9428,1.9391,1.9302,1.9191,1.9101,1.9031,1.8993,1.8917,1.875,1.8581,1.8335,1.8005,1.7622,1.7443,1.7608,1.766,1.7616,1.8029,1.8224,1.8293,1.8293,1.8279,1.8254,1.8149,1.7935,1.7679,1.7585,1.7544,1.7611,1.7253,1.7063,1.7273,1.7276,1.7067,1.6978,1.6896,1.6859,1.6467,1.6318,1.6287,1.6362,1.6392,1.6436,1.6479,1.6479,1.6479,1.6479,1.6479,1.6405,1.6362,1.6262,1.6175,1.5969,1.5836,1.5691,1.5655,1.5881,1.5974,1.6115,1.6514,1.6893,1.7119,1.7359,1.7238,1.7238,1.7537,1.7872,1.8007,1.7975,1.7854,1.7744,1.7744,1.7567,1.7168,1.6877,1.6549,1.6314,1.654,1.7919,1.86,1.8783,1.9485,1.9782,1.9715,1.9688,1.9675,1.9582,1.9228,1.917,1.9095,1.8625,1.8076,1.7788,1.7971,1.8016,1.8054,1.8778,1.9267,1.9474,1.9574,1.971,1.9998,2.0069,1.9635,1.9613,1.9915,1.9704,1.9247,1.9526,1.9594,1.9417,1.9398,1.9398,1.9428,1.9391,1.9376,1.9288,1.9176,1.9078,1.9017,1.8993,1.8917,1.8764,1.8595,1.8464,1.8344,1.8249,1.8193,1.8168,1.8182,1.8221,1.8221,1.8277,1.8358,1.8386,1.8293,1.8279,1.8201,1.8002,1.772,1.7462,1.6993,1.6795,1.696,1.6559,1.6523,1.6904,1.6492,1.6323,1.6465,1.6601,1.649,1.6225,1.6441,1.6384,1.6188,1.6262,1.6349,1.6436,1.6479,1.6479,1.6436,1.6392,1.6362,1.6244,1.6057,1.5869,1.5647,1.5482,1.5335,1.551,1.5703,1.5947,1.6065,1.6551,1.7,1.7055,1.7124,1.7301,1.7357,1.76,1.7567,1.7401,1.7346,1.7401,1.7346,1.7179,1.6888,1.6482,1.6208,1.5921,1.7251,1.7807,1.8467,1.904,1.9476,1.982,1.9884,1.9775,1.9675,1.9614,1.9504,1.932,1.9028,1.8699,1.8582,1.8144,1.7601,1.8082,1.8223,1.8267,1.9079,1.9821,1.9972,2.0273,2.0521,2.03,1.997,1.9715,1.9546,1.9799,1.988,1.9455,1.9516,1.9596,1.9501,1.9391,1.9339,1.9339,1.9354,1.9265,1.9168,1.9055,1.9017,1.8889,1.8865,1.875,1.8595,1.8556,1.8386,1.8293,1.8333,1.8333,1.8293,1.8333,1.8372,1.8305,1.8305,1.8319,1.8372,1.8175,1.8135,1.8161,1.7962,1.7787,1.738,1.6795,1.6454,1.6876,1.691,1.696,1.7135,1.697,1.6979,1.6946,1.6683,1.6451,1.6357,1.6492,1.6528,1.6296,1.6088,1.6219,1.6306,1.6306,1.6349,1.6349,1.6306,1.6231,1.6025,1.5792,1.557,1.5289,1.5131,1.5005,1.5375,1.5661,1.6003,1.6225,1.6762,1.7049,1.6874,1.6907,1.7071,1.7003,1.6926,1.6858,1.6687,1.6832,1.7,1.6786,1.656,1.6151,1.5748,1.5459,1.5118,1.7868,1.8774,1.8935,1.9378,1.9947,1.9908,1.977,1.9572,1.9582,1.9489,1.9341,1.9182,1.8735,1.8225,1.828,1.7885,1.7094,1.8075,1.8231,1.8563,1.9281,2.0119,2.0477,2.0952,2.1177,2.1145,2.0361,1.9975,1.9988,2.0102,1.9969,1.9756,1.9515,1.9487,1.9376,1.9265,1.9191,1.9153,1.9191,1.9116,1.8979,1.8927,1.8889,1.8812,1.8736,1.8648,1.8517,1.8464,1.8347,1.8307,1.8333,1.8333,1.8293,1.8386,1.8425,1.8279,1.8133,1.8028,1.8042,1.7962,1.7949,1.7895,1.7666,1.7242,1.6934,1.6454,1.6374,1.6729,1.6992,1.7352,1.7638,1.7371,1.7316,1.7201,1.7188,1.6812,1.6536,1.6706,1.666,1.6417,1.6187,1.6001,1.6088,1.61,1.6144,1.6262,1.6175,1.61,1.5792,1.5525,1.5233,1.4971,1.5058,1.4971,1.5244,1.5609,1.597,1.6385,1.6917,1.7058,1.6806,1.6674,1.6725,1.6602,1.6325,1.6105,1.5921,1.6265,1.6549,1.6036,1.5633,1.5352,1.5001,1.4715,1.4478,1.7802,1.878,1.9506,1.9824,1.9881,1.9844,1.9591,1.9339,1.9438,1.9289,1.8999,1.8734,1.8298,1.7789,1.7676,1.7478,1.6911,1.7566,1.8006,1.8524,1.924,2.0279,2.082,2.1235,2.1498,2.1512,2.0852,2.0464,2.0198,1.9828,1.9756,1.9597,1.9428,1.9339,1.9265,1.9153,1.9003,1.8965,1.9003,1.8965,1.8889,1.8836,1.8812,1.8697,1.8673,1.8648,1.8517,1.8411,1.8319,1.8279,1.8358,1.8484,1.8472,1.8414,1.8425,1.8339,1.7841,1.7679,1.7666,1.7719,1.7692,1.7365,1.7005,1.657,1.6337,1.6044,1.6086,1.6608,1.6873,1.6995,1.7143,1.7157,1.7423,1.7423,1.7484,1.7351,1.7061,1.694,1.6857,1.6546,1.6411,1.636,1.6223,1.6296,1.6073,1.6169,1.5957,1.5824,1.5468,1.5165,1.4937,1.4818,1.4997,1.5099,1.5236,1.5604,1.6095,1.6385,1.6751,1.6856,1.6698,1.6595,1.6451,1.5985,1.5736,1.5439,1.5186,1.54,1.54,1.5001,1.4715,1.4597,1.4469,1.4231,1.4061,1.7697,1.8647,1.9456,1.9813,1.9842,1.9701,1.9601,1.9456,1.9387,1.9198,1.8878,1.855,1.8139,1.7805,1.7806,1.7441,1.7056,1.8559,1.8575,1.899,1.9877,2.0899,2.1383,2.1562,2.1877,2.1609,2.1134,2.0682,2.02,1.966,1.9398,1.928,1.9191,1.9265,1.9191,1.9093,1.8927,1.8836,1.8836,1.8798,1.8774,1.8745,1.8721,1.8595,1.8673,1.8595,1.8425,1.8425,1.8372,1.8358,1.8372,1.8581,1.8737,1.8595,1.8477,1.844,1.7839,1.7459,1.7293,1.7349,1.7493,1.739,1.6853,1.6238,1.6057,1.5981,1.6125,1.6498,1.6955,1.7195,1.7653,1.7822,1.7894,1.7811,1.7763,1.7738,1.7641,1.7496,1.7328,1.7087,1.7027,1.6955,1.675,1.6604,1.63,1.6029,1.5804,1.5546,1.5198,1.4982,1.484,1.4825,1.5018,1.5401,1.5566,1.5923,1.632,1.649,1.6658,1.6553,1.6457,1.6343,1.6093,1.5633,1.5108,1.4765,1.4597,1.4469,1.441,1.435,1.424,1.4061,1.3881,1.3761,1.3744,1.7832,1.8545,1.9287,1.9668,1.9726,1.9641,1.9518,1.9387,1.928,1.9034,1.8698,1.8301,1.7911,1.7719,1.7567,1.7587,1.7545,1.8667,1.9127,1.9836,2.0777,2.1535,2.1568,2.1578,2.1652,2.1306,2.0846,2.033,1.9788,1.942,1.9228,1.9093,1.9003,1.904,1.9064,1.9003,1.8851,1.876,1.876,1.8736,1.8711,1.8697,1.8721,1.8556,1.8634,1.8556,1.8464,1.8464,1.8464,1.8495,1.8635,1.8889,1.8961,1.8865,1.8672,1.8392,1.8054,1.7509,1.7055,1.6916,1.703,1.6886,1.6816,1.6392,1.6249,1.6256,1.6759,1.6871,1.7352,1.7808,1.8217,1.8289,1.8229,1.8135,1.8353,1.8389,1.822,1.8063,1.7845,1.7676,1.7544,1.7303,1.7207,1.6895,1.6359,1.6023,1.5593,1.5312,1.4925,1.4793,1.4906,1.4985,1.5182,1.5603,1.601,1.6298,1.6488,1.6507,1.6564,1.6244,1.6114,1.5931,1.5526,1.4883,1.441,1.4121,1.3941,1.3821,1.3881,1.3941,1.3821,1.37,1.37,1.3588,1.3578,1.8239,1.8491,1.9133,1.9499,1.9601,1.9611,1.9353,1.9046,1.9013,1.8789,1.8316,1.7907,1.7505,1.7191,1.7065,1.7247,1.7882,1.8816,1.9654,2.0644,2.1378,2.1749,2.1681,2.1595,2.1275,2.0465,2.0174,1.9859,1.9236,1.9139,1.9003,1.8865,1.8788,1.8788,1.8836,1.8836,1.8697,1.8584,1.8729,1.8687,1.8786,1.8705,1.8634,1.8595,1.8595,1.8556,1.8464,1.8618,1.8661,1.8703,1.9029,1.9211,1.9053,1.9222,1.8906,1.8143,1.8208,1.7695,1.6748,1.6492,1.6541,1.6638,1.6794,1.6769,1.6471,1.6803,1.7399,1.7424,1.7808,1.8109,1.8386,1.859,1.8518,1.8542,1.8799,1.8835,1.8642,1.8494,1.8313,1.8229,1.7808,1.746,1.7399,1.7195,1.6539,1.5986,1.5509,1.512,1.4838,1.4832,1.5012,1.5207,1.5467,1.5765,1.6145,1.6496,1.6698,1.6627,1.6343,1.5931,1.5526,1.5177,1.4647,1.4061,1.3821,1.3709,1.3407,1.3164,1.3338,1.3519,1.358,1.3519,1.3511,1.3476,1.3447,1.7768,1.8371,1.9062,1.9353,1.9387,1.9408,1.9264,1.9066,1.8735,1.8397,1.8027,1.7499,1.7142,1.7048,1.7321,1.7593,1.8118,1.9794,2.0816,2.0928,2.1714,2.1845,2.1688,2.129,2.0878,2.023,1.9864,1.9551,1.9055,1.8965,1.8851,1.875,1.8733,1.8595,1.862,1.8701,1.8814,1.9086,1.892,1.8764,1.9183,1.8917,1.8666,1.868,1.868,1.8627,1.8658,1.8885,1.8971,1.9056,1.9461,1.9544,1.9467,1.964,1.9028,1.8554,1.8621,1.8028,1.7492,1.7282,1.7211,1.7213,1.725,1.7335,1.7309,1.7361,1.7727,1.7944,1.8109,1.8386,1.8722,1.8831,1.8806,1.8819,1.8927,1.8939,1.8843,1.8819,1.8734,1.8734,1.8482,1.8058,1.7915,1.7478,1.6831,1.6367,1.5924,1.5605,1.5301,1.5254,1.5307,1.5574,1.5795,1.6025,1.6252,1.643,1.6353,1.6124,1.5768,1.5294,1.4883,1.4469,1.4001,1.3528,1.3407,1.3285,1.3103,1.2981,1.3042,1.3164,1.3224,1.3338,1.3398,1.3338,1.3319,1.8098,1.8646,1.9054,1.9214,1.92,1.9235,1.9152,1.8842,1.8401,1.8017,1.7591,1.7126,1.7052,1.7273,1.7588,1.8501,1.8875,2.0086,2.1273,2.1244,2.1649,2.1595,2.1306,2.0943,2.0299,1.9778,1.9485,1.9213,1.8903,1.8812,1.8853,1.8945,1.888,1.9079,1.9134,1.9284,1.9197,1.944,1.9369,1.9567,1.9749,1.9622,1.9315,1.9244,1.916,1.9047,1.9164,1.9279,1.9391,1.9501,1.9738,1.9879,1.9847,1.9647,1.9121,1.8978,1.8457,1.8113,1.8031,1.7995,1.7958,1.7995,1.8044,1.7934,1.7946,1.7982,1.8103,1.8244,1.835,1.8498,1.8785,1.8869,1.8869,1.8869,1.8881,1.8881,1.8869,1.8833,1.8821,1.8857,1.8821,1.8482,1.8128,1.7711,1.716,1.677,1.6384,1.6077,1.575,1.5648,1.5542,1.5729,1.5956,1.613,1.6151,1.613,1.5961,1.5672,1.5274,1.4831,1.435,1.3932,1.3459,1.305,1.2989,1.2928,1.2928,1.2867,1.2875,1.2936,1.2989,1.3164,1.3277,1.3283,1.3244,1.9164,1.9184,1.9134,1.9067,1.9036,1.9119,1.8842,1.8323,1.8183,1.7715,1.7027,1.6901,1.7093,1.7645,1.7753,1.8808,2.0256,2.0671,2.1238,2.1637,2.1625,2.1213,2.0699,2.0246,1.9758,1.9347,1.904,1.8965,1.8711,1.8711,1.8917,1.9274,1.9262,1.9571,1.9795,1.995,1.9863,2.0061,2.0062,2.0302,2.0472,2.0359,2.0147,1.9964,1.9767,1.9754,1.9782,1.9782,1.9622,1.9775,2.0105,1.9838,1.9726,1.9838,1.9371,1.8834,1.824,1.8351,1.8535,1.8571,1.8583,1.8596,1.8471,1.8228,1.8228,1.8556,1.8624,1.8518,1.8522,1.8531,1.8602,1.8655,1.8655,1.8655,1.8655,1.8667,1.8667,1.8655,1.8655,1.8655,1.8655,1.8372,1.7861,1.7455,1.7168,1.6917,1.6526,1.6181,1.5944,1.5857,1.5787,1.5673,1.593,1.6213,1.6144,1.5798,1.5478,1.5118,1.4846,1.4463,1.3908,1.357,1.3442,1.3219,1.2808,1.2691,1.2752,1.276,1.2653,1.2731,1.2889,1.2969,1.3161,1.3339,1.3377,1.8661,1.9251,1.9102,1.9018,1.8984,1.8843,1.8659,1.8467,1.8135,1.7625,1.7134,1.7035,1.7251,1.7706,1.8566,1.9596,2.0515,2.1197,2.1453,2.1549,2.1306,2.0781,2.0265,1.9808,1.9354,1.9049,1.8812,1.8764,1.8725,1.8687,1.9041,1.9454,1.9585,1.995,2.0415,2.074,2.0811,2.084,2.0697,2.0925,2.0982,2.081,2.0654,2.0471,2.0245,2.0244,2.0199,2.0127,2.0053,2.0219,2.0158,1.9938,2.0015,1.9748,1.9312,1.9288,1.9052,1.9064,1.9111,1.9083,1.9007,1.9022,1.8919,1.9034,1.9037,1.897,1.8996,1.8843,1.8543,1.8513,1.8506,1.8506,1.8506,1.8506,1.8506,1.8506,1.8506,1.8506,1.8506,1.8398,1.8398,1.807,1.7583,1.7334,1.7026,1.6804,1.6549,1.6242,1.6032,1.5976,1.5864,1.5725,1.5646,1.5778,1.5576,1.5234,1.4893,1.4529,1.4405,1.4215,1.3851,1.3589,1.3625,1.3457,1.3129,1.2897,1.2744,1.2755,1.2877,1.2767,1.2838,1.2915,1.2975,1.3219,1.3356,1.8652,1.9084,1.9018,1.8914,1.8788,1.8584,1.8465,1.8363,1.8023,1.7551,1.7044,1.7027,1.7339,1.8022,1.8963,1.9893,2.0737,2.1279,2.1505,2.1243,2.0878,2.0299,1.9793,1.9427,1.9109,1.8822,1.8683,1.8648,1.8691,1.8987,1.9301,1.9921,1.9964,2.0512,2.1091,2.1544,2.1671,2.1586,2.1502,2.1532,2.1403,2.1302,2.1128,2.0915,2.0715,2.0467,2.0574,2.0562,2.0281,2.0351,2.0117,1.9991,1.9965,1.9512,1.9368,1.9279,1.9267,1.9165,1.915,1.9109,1.9146,1.921,1.9158,1.9174,1.9097,1.8967,1.8963,1.8857,1.8602,1.8398,1.8398,1.8398,1.8398,1.8398,1.8398,1.8398,1.8398,1.8398,1.829,1.8127,1.7897,1.7678,1.7379,1.7134,1.6807,1.6482,1.6244,1.6099,1.5955,1.5887,1.5706,1.5543,1.5371,1.5303,1.4996,1.4847,1.4626,1.4374,1.4144,1.3953,1.3687,1.3655,1.3729,1.3664,1.3477,1.3283,1.3186,1.3124,1.3196,1.3089,1.3029,1.3089,1.3227,1.3375,1.3435,1.8984,1.8878,1.8896,1.8752,1.8542,1.8368,1.8243,1.813,1.7905,1.7422,1.6926,1.6901,1.7506,1.8441,1.9186,2.0069,2.0784,2.1294,2.1213,2.1007,2.023,1.9687,1.9391,1.9011,1.8836,1.8721,1.862,1.8556,1.8686,1.9063,1.9682,2.0414,2.085,2.1313,2.1819,2.1974,2.1969,2.1727,2.1806,2.1913,2.2076,2.2067,2.1983,2.1769,2.1211,2.0678,2.0948,2.0611,1.9879,2.0091,2.0029,1.9772,1.9577,1.9368,1.9328,1.9223,1.917,1.9158,1.9105,1.9052,1.9052,1.9117,1.9117,1.9105,1.8987,1.8934,1.8893,1.8732,1.8464,1.8302,1.8247,1.8247,1.8247,1.8247,1.8247,1.8247,1.8247,1.8139,1.7963,1.7744,1.7457,1.7179,1.6842,1.6581,1.6467,1.6087,1.5914,1.5856,1.5752,1.5684,1.5527,1.534,1.5081,1.4842,1.4763,1.4657,1.4536,1.4289,1.4131,1.4164,1.4197,1.4032,1.3824,1.3818,1.3876,1.3811,1.3704,1.3549,1.3425,1.3384,1.338,1.3388,1.3481,1.3568,1.3484,1.8734,1.8734,1.8622,1.8485,1.8287,1.8239,1.7966,1.7612,1.7766,1.7589,1.7281,1.7281,1.782,1.8923,1.9405,2.0251,2.1144,2.1004,2.083,2.0449,1.9793,1.9317,1.9072,1.8812,1.8673,1.8581,1.8503,1.8588,1.8796,1.9287,1.9906,2.0472,2.1062,2.1664,2.2002,2.2044,2.1841,2.1602,2.1492,2.1698,2.1888,2.1855,2.1746,2.1527,2.1027,2.0793,2.0792,2.0306,2.0016,2.0016,1.9629,1.938,1.9275,1.9275,1.917,1.9052,1.9052,1.9052,1.9052,1.8999,1.9052,1.9011,1.9011,1.8999,1.8893,1.8839,1.8679,1.8518,1.841,1.8193,1.8084,1.8084,1.8084,1.8084,1.8084,1.8084,1.8084,1.7865,1.7645,1.7301,1.7022,1.6684,1.6343,1.6124,1.6019,1.5904,1.5798,1.5703,1.547,1.5331,1.517,1.4976,1.4674,1.4488,1.4495,1.4473,1.4395,1.4455,1.4395,1.4538,1.4656,1.4723,1.4664,1.4328,1.4236,1.4236,1.4104,1.3616,1.3538,1.3629,1.3669,1.3685,1.377,1.3861,1.3628,1.8603,1.8601,1.8463,1.8322,1.8218,1.8151,1.79,1.7595,1.7542,1.7679,1.7896,1.793,1.8293,1.9207,1.9706,2.0119,2.0967,2.075,2.0369,1.9934,1.9522,1.9124,1.8851,1.8673,1.8634,1.857,1.884,1.8981,1.9033,1.9936,2.0655,2.0779,2.1268,2.1667,2.1902,2.1698,2.1396,2.1104,2.0921,2.0957,2.1299,2.1264,2.1264,2.1019,2.0759,2.061,2.0359,1.9965,1.9759,1.9668,1.938,1.9275,1.917,1.9158,1.9093,1.904,1.9052,1.8987,1.8999,1.9011,1.9023,1.897,1.8917,1.8905,1.8691,1.8583,1.8572,1.841,1.8247,1.8084,1.8084,1.8084,1.8084,1.8084,1.8084,1.803,1.792,1.7634,1.719,1.6673,1.6457,1.6228,1.5894,1.5614,1.5557,1.5473,1.5374,1.5345,1.5166,1.5178,1.4987,1.4737,1.4526,1.4351,1.4413,1.4404,1.4274,1.4396,1.4794,1.4714,1.4792,1.53,1.5451,1.4967,1.4734,1.4957,1.472,1.411,1.3846,1.3948,1.3947,1.3978,1.3988,1.3935,1.3742,1.8526,1.8463,1.8339,1.8215,1.813,1.8005,1.794,1.7849,1.7485,1.7839,1.8667,1.8851,1.8799,1.9244,1.9827,1.9984,2.0146,2.0295,1.9974,1.9507,1.9072,1.8874,1.875,1.8595,1.8595,1.8767,1.9065,1.9164,1.9232,2.0274,2.1002,2.1133,2.1444,2.1807,2.1541,2.1188,2.0795,2.0547,2.0346,2.0207,2.0308,2.0472,2.061,2.0446,2.0194,1.9952,1.9823,1.9629,1.9328,1.9263,1.9263,1.917,1.9117,1.9052,1.9052,1.9011,1.9167,1.9107,1.9047,1.9119,1.903,1.8887,1.881,1.8691,1.8476,1.8367,1.8356,1.8302,1.8139,1.8084,1.8084,1.8084,1.8084,1.803,1.7975,1.7931,1.7656,1.7379,1.6761,1.6134,1.5924,1.576,1.5606,1.5311,1.5134,1.5038,1.4989,1.4859,1.4906,1.5055,1.5103,1.4882,1.4681,1.4533,1.4596,1.4604,1.4645,1.503,1.5348,1.5051,1.495,1.547,1.5696,1.5337,1.523,1.5085,1.5118,1.4701,1.4546,1.4148,1.3996,1.3901,1.3932,1.3855,1.3717,1.8328,1.8319,1.8176,1.8053,1.7944,1.7816,1.7994,1.8302,1.8186,1.8562,1.9186,1.9876,2.0155,2.0139,1.9958,2.0063,2.0253,2.0147,1.9778,1.9391,1.8912,1.875,1.8634,1.8503,1.8517,1.877,1.9025,1.9067,1.9376,2.0468,2.0854,2.0415,2.1064,2.1237,2.0993,2.0597,2.0194,1.9952,1.9759,1.9552,1.9592,1.9798,2.0169,2.0118,1.9965,1.9668,1.9485,1.9275,1.9223,1.917,1.9105,1.9105,1.9052,1.9064,1.9023,1.9143,1.9312,1.9263,1.9227,1.9287,1.9156,1.881,1.8744,1.8572,1.841,1.8259,1.8193,1.8193,1.8084,1.8084,1.8084,1.8084,1.8084,1.792,1.7799,1.7623,1.7434,1.6882,1.6216,1.5908,1.5655,1.5623,1.5594,1.5345,1.5166,1.5079,1.4909,1.4849,1.474,1.4934,1.5172,1.4999,1.4846,1.511,1.5238,1.532,1.5415,1.5807,1.5982,1.57,1.5621,1.5754,1.5754,1.5409,1.4991,1.4649,1.4697,1.4919,1.4482,1.4114,1.392,1.3848,1.3783,1.3797,1.3674]},{"header":{"parameterUnit":"m.s-1","parameterCategory":1,"la1":31.0,"la2":29.5877,"lo1":-88.7671,"lo2":-86.6584,"dy":0.0162,"dx":0.0185,"nx":115,"ny":88,"refTime":"2023-08-18T12:00:00:Z","depth":0,"parameterNumber":3,"parameterNumberName":"V-component_of_WINDS"},"data":[0.0,0.0,0.0,0.0,0.0,0.0,0.0,0.0,0.0,0.0,0.0,0.0,0.0,0.0,0.0,0.0,0.0,0.0,0.0,0.0,0.0,0.0,0.0,0.0,0.0,0.0,0.0,0.0,0.0,0.0,0.0,0.0,0.0,0.0,0.0,0.0,0.0,0.0,0.0,0.0,0.0,0.0,0.0,0.0,0.0,0.0,0.0,0.0,0.0,0.0,0.0,0.0,0.0,0.0,0.0,0.0,0.0,0.0,0.0,0.0,0.0,0.0,0.0,0.0,0.0,0.0,0.0,0.0,0.0,0.0,0.0,0.0,0.0,0.0,0.0,0.0,0.0,0.0,0.0,0.0,0.0,0.0,0.0,0.0,0.0,0.0,0.0,0.0,0.0,0.0,0.0,0.0,0.0,0.0,0.0,0.0,0.0,0.0,0.0,0.0,0.0,0.0,0.0,0.0,0.0,0.0,0.0,0.0,0.0,0.0,0.0,0.0,0.0,0.0,0.0,0.0,0.0,0.0,0.0,0.0,0.0,0.0,0.0,0.0,0.0,0.0,0.0,0.0,0.0,0.0,0.0,0.0,0.0,0.0,0.0,0.0,0.0,0.0,0.0,0.0,0.0,0.0,0.0,0.0,0.0,0.0,0.0,0.0,0.0,0.0,0.0,0.0,0.0,0.0,0.0,0.0,0.0,0.0,0.0,0.0,0.0,0.0,0.0,0.0,0.0,0.0,0.0,0.0,0.0,0.0,0.0,0.0,0.0,0.0,0.0,0.0,0.0,0.0,0.0,0.0,0.0,0.0,0.0,0.0,0.0,0.0,0.0,0.0,0.0,0.0,0.0,0.0,0.0,0.0,0.0,0.0,0.0,0.0,0.0,0.0,0.0,0.0,0.0,0.0,0.0,0.0,0.0,0.0,0.0,0.0,0.0,0.0,0.0,0.0,0.0,0.0,0.0,0.0,0.0,0.0,0.0,0.0,0.0,0.0,0.0,0.0,0.0,0.0,0.0,0.0,0.0,0.0,0.0,0.0,0.0,0.0,0.0,0.0,0.0,0.0,0.0,0.0,0.0,0.0,0.0,0.0,0.0,0.0,0.0,0.0,0.0,0.0,0.0,0.0,0.0,0.0,0.0,0.0,0.0,0.0,0.0,0.0,0.0,0.0,0.0,0.0,0.0,0.0,0.0,0.0,0.0,0.0,0.0,0.0,0.0,0.0,0.0,0.0,0.0,0.0,0.0,0.0,0.0,0.0,0.0,0.0,0.0,0.0,0.0,0.0,0.0,0.0,0.0,0.0,0.0,0.0,0.0,0.0,0.0,0.0,0.0,0.0,0.0,0.0,0.0,0.0,0.0,0.0,0.0,0.0,0.0,0.0,0.0,0.0,0.0,0.0,0.0,0.0,0.0,0.0,0.0,0.0,0.0,0.0,0.0,0.0,0.0,0.0,0.0,0.0,0.0,0.0,0.0,0.0,0.0,0.0,0.0,0.0,0.0,0.0,0.0,0.0,0.0,0.0,0.0,0.0,0.0,0.0,0.0,0.0,0.0,0.0,0.0,0.0,0.0,0.0,0.0,0.0,0.0,0.0,0.0,0.0,0.0,0.0,0.0,0.0,0.0,0.0,0.0,0.0,0.0,0.0,0.0,0.0,0.0,0.0,0.0,0.0,0.0,0.0,0.0,0.0,0.0,0.0,0.0,0.0,0.0,0.0,0.0,0.0,0.0,0.0,0.0,0.0,0.0,0.0,0.0,0.0,0.0,0.0,0.0,0.0,0.0,0.0,0.0,0.0,0.0,0.0,0.0,0.0,0.0,0.0,0.0,0.0,0.0,0.0,0.0,0.0,0.0,0.0,0.0,0.0,0.0,0.0,0.0,0.0,0.0,0.0,0.0,0.0,0.0,0.0,0.0,0.0,0.0,0.0,0.0,0.0,0.0,0.0,0.0,0.0,0.0,0.0,0.0,0.0,0.0,0.0,0.0,0.0,0.0,0.0,0.0,0.0,0.0,0.0,0.0,0.0,0.0,0.0,0.0,0.0,0.0,0.0,0.0,0.0,0.0,0.0,0.0,0.0,0.0,0.0,0.0,0.0,0.0,0.0,0.0,0.0,0.0,0.0,0.0,0.0,0.0,0.0,0.0,0.0,0.0,0.0,0.0,0.0,0.0,0.0,0.0,0.0,0.0,0.0,0.0,0.0,0.0,0.0,0.0,0.0,0.0,0.0,0.0,0.0,0.0,0.0,0.0,0.0,0.0,0.0,0.0,0.0,0.0,0.0,0.0,0.0,0.0,0.0,0.0,0.0,0.0,0.0,0.0,0.0,0.0,0.0,0.0,0.0,0.0,0.0,0.0,0.0,0.0,0.0,0.0,0.0,0.0,0.0,0.0,0.0,0.0,0.0,0.0,0.0,0.0,0.0,0.0,0.0,0.0,0.0,0.0,0.0,0.0,0.0,0.0,0.0,0.0,0.0,0.0,0.0,0.0,0.0,0.0,0.0,0.0,0.0,0.0,0.0,0.0,0.0,0.0,0.0,0.0,0.0,0.0,0.0,0.0,0.0,0.0,0.0,0.0,0.0,0.0,0.0,0.0,0.0,0.0,0.0,0.0,0.0,0.0,0.0,0.0,0.0,0.0,0.0,0.0,0.0,0.0,0.0,0.0,0.0,0.0,0.0,0.0,0.0,0.0,0.0,0.0,0.0,0.0,0.0,0.0,0.0,0.0,0.0,0.0,0.0,0.0,0.0,0.0,0.0,0.0,0.0,0.0,0.0,0.0,0.0,0.0,0.0,0.0,0.0,0.0,0.0,0.0,0.0,0.0,0.0,0.0,0.0,0.0,0.0,0.0,0.0,0.0,0.0,0.0,0.0,0.0,0.0,0.0,0.0,0.0,0.0,0.0,0.0,0.0,0.0,0.0,0.0,0.0,0.0,0.0,0.0,0.0,0.0,0.0,0.0,0.0,0.0,0.0,0.0,0.0,0.0,0.0,0.0,0.0,0.0,0.0,0.0,0.0,0.0,0.0,0.0,0.0,0.0,0.0,0.0,0.0,0.0,0.0,0.0,0.0,0.0,0.0,0.0,0.0,0.0,0.0,0.0,0.0,0.0,0.0,0.0,0.0,0.0,0.0,0.0,0.0,0.0,0.0,0.0,0.0,0.0,0.0,0.0,0.0,0.0,0.0,0.0,0.0,0.0,0.0,0.0,0.0,0.0,0.0,0.0,0.0,0.0,0.0,0.0,0.0,0.0,0.0,0.0,0.0,0.0,0.0,0.0,0.0,0.0,0.0,0.0,0.0,0.0,0.0,0.0,0.0,0.0,0.0,0.0,0.0,0.0,0.0,0.0,0.0,0.0,0.0,0.0,0.0,0.0,0.0,0.0,0.0,0.0,0.0,0.0,0.0,0.0,0.0,0.0,0.0,0.0,0.0,0.0,0.0,0.0,0.0,0.0,0.0,0.0,0.0,0.0,0.0,0.0,0.0,0.0,0.0,0.0,0.0,0.0,0.0,0.0,0.0,0.0,0.0,0.0,0.0,0.0,0.0,0.0,0.0,0.0,0.0,0.0,0.0,0.0,0.0,0.0,0.0,0.0,0.0,0.0,0.0,0.0,0.0,0.0,0.0,0.0,0.0,0.0,0.0,0.0,0.0,0.0,0.0,0.0,0.0,0.0,0.0,0.0,0.0,0.0,0.0,0.0,0.0,0.0,0.0,0.0,0.0,0.0,0.0,0.0,0.0,0.0,0.0,0.0,0.0,0.0,0.0,0.0,0.0,0.0,0.0,0.0,0.0,0.0,0.0,0.0,0.0,0.0,0.0,0.0,0.0,0.0,0.0,0.0,0.0,0.0,0.0,0.0,0.0,0.0,0.0,0.0,0.0,0.0,0.0,0.0,0.0,0.0,0.0,0.0,0.0,0.0,0.0,0.0,0.0,0.0,0.0,0.0,0.0,0.0,0.0,0.0,0.0,0.0,0.0,0.0,0.0,0.0,0.0,0.0,0.0,0.0,0.0,0.0,0.0,0.0,0.0,0.0,0.0,0.0,0.0,0.0,0.0,0.0,0.0,0.0,0.0,0.0,0.0,0.0,0.0,0.0,0.0,0.0,0.0,0.0,0.0,0.0,0.0,0.0,0.0,0.0,0.0,0.0,0.0,0.0,0.0,0.0,0.0,0.0,0.0,0.0,0.0,0.0,0.0,0.0,0.0,0.0,0.0,0.0,0.0,0.0,0.0,0.0,0.0,0.0,0.0,0.0,0.0,0.0,0.9728,0.0,0.0,0.0,0.0,0.0,0.0,0.0,0.0,0.0,0.0,0.0,0.0,0.0,0.0,0.0,0.0,0.0,0.0,0.0,0.0,0.0,0.0,0.0,0.0,0.0,0.0,0.0,0.0,0.0,0.0,0.0,0.0,0.0,0.0,0.0,0.0,0.0,0.0,0.0,0.0,0.0,0.0,0.0,0.0,0.0,0.0,0.0,0.0,0.0,0.0,0.0,0.0,0.0,0.0,0.0,0.0,0.0,0.0,0.0,0.0,0.0,0.0,0.0,0.0,0.0,0.0,0.0,0.0,0.0,0.0,0.0,0.0,0.0,0.0,0.0,0.0,0.0,0.0,0.0,0.0,0.0,0.0,0.0,0.0,0.0,0.0,0.0,0.0,0.0,0.0,0.0,0.0,0.0,0.0,0.0,0.0,0.0,0.0,0.0,0.0,0.0,0.0,0.0,0.0,0.0,0.0,0.0,0.0,0.0,0.0,0.9146,0.9187,0.9421,0.9557,0.9597,0.0,0.0,0.0,0.0,0.0,0.0,0.0,0.0,0.0,0.0,0.0,0.0,0.0,0.0,0.0,0.0,0.0,0.0,0.0,0.0,0.0,0.0,0.0,0.0,0.0,0.0,0.0,0.0,0.0,0.0,0.0,0.0,0.0,0.0,0.0,0.0,0.0,0.0,0.0,0.0,0.0,0.0,0.0,0.0,0.0,0.0,0.0,0.0,0.0,0.0,0.0,0.0,0.0,0.0,0.0,0.0,0.0,0.0,0.0,0.0,0.0,0.0,0.0,0.0,0.0,0.0,0.0,0.0,0.0,0.0,0.0,0.0,0.0,0.0,0.0,0.0,0.0,0.0,0.0,0.0,0.0,0.0,0.0,0.0,0.0,0.0,0.0,0.0,0.0,0.0,0.0,0.0,0.0,0.0,0.0,0.0,0.0,0.0,0.0,0.0,0.0,0.0,0.0,0.0,0.0,0.0,0.0,0.0,0.0,0.0,0.0,0.0,0.9559,0.9726,0.9786,0.0,0.0,0.0,0.0,0.0,0.0,0.0,0.0,0.0,0.0,0.0,0.0,0.0,0.0,0.0,0.0,0.0,0.0,0.0,0.0,0.0,0.0,0.0,0.0,0.0,0.0,0.0,0.0,0.0,0.0,0.0,0.0,0.0,0.0,0.0,0.0,0.0,0.0,0.0,0.0,0.0,0.0,0.0,0.0,0.0,0.0,0.0,0.0,0.0,0.0,0.0,0.0,0.0,0.0,0.0,0.0,0.0,0.0,0.0,0.0,0.0,0.0,0.0,0.0,0.0,0.0,0.0,0.0,0.0,0.0,0.0,0.0,0.0,0.0,0.0,0.0,0.0,0.0,0.0,0.0,0.0,0.0,0.0,0.0,0.0,0.0,0.0,0.0,0.0,0.0,0.0,0.0,0.0,0.0,0.0,0.0,0.0,0.0,0.0,0.0,0.0,0.0,0.0,0.0,0.0,0.0,0.0,0.0,0.0,0.0,0.9207,0.9807,1.0152,0.0,1.0631,0.0,0.0,0.0,0.0,0.0,0.0,0.0,0.0,0.0,0.0,0.0,0.0,0.0,0.0,0.0,0.0,0.0,0.0,0.0,0.0,0.0,0.0,0.0,0.0,0.0,0.0,0.0,0.0,0.0,0.0,0.0,0.0,0.0,0.0,0.0,0.0,0.0,0.0,0.0,0.0,0.0,0.0,0.0,0.0,0.0,0.0,0.0,0.0,0.0,0.0,0.0,0.0,0.0,0.0,0.0,0.0,0.0,0.0,0.0,0.0,0.0,0.0,0.0,0.0,0.0,0.0,0.0,0.0,0.0,0.0,0.0,0.0,0.0,0.0,0.0,0.0,0.0,0.0,0.0,0.0,0.0,0.0,0.0,0.0,0.0,0.0,0.0,0.0,0.0,0.0,0.0,0.0,0.0,0.0,0.0,0.0,0.0,0.0,0.0,0.0,0.0,0.0,0.0,0.0,0.0,0.0,0.0,0.0,0.0,0.0,0.9064,0.9779,1.0108,1.0203,0.0,0.0,0.0,0.0,0.0,0.0,0.0,0.0,0.0,0.0,0.0,0.0,0.0,0.0,0.0,0.0,0.0,0.0,0.0,0.0,0.0,0.0,0.0,0.0,0.0,0.0,0.0,0.0,0.0,0.0,0.0,0.0,0.0,0.0,0.0,0.0,0.0,0.0,0.0,0.0,0.0,0.0,0.0,0.0,0.0,0.0,0.0,0.0,0.0,0.0,0.0,0.0,0.0,0.0,0.0,0.0,0.0,0.0,0.0,0.0,0.0,0.0,0.0,0.0,0.0,0.0,0.0,0.0,0.0,0.0,0.0,0.0,0.0,0.0,0.0,0.0,0.0,0.0,0.0,0.0,0.0,0.0,0.0,0.0,0.0,0.0,0.0,0.0,0.0,0.0,0.0,0.0,0.0,0.0,0.0,0.0,0.0,0.0,0.0,0.0,0.0,0.0,0.0,0.0,0.0,0.0,0.0,0.0,0.0,0.0,0.8847,0.9245,1.0021,0.9932,0.9798,0.9687,0.0,0.0,0.0,0.0,0.0,0.0,0.0,0.0,0.0,0.0,0.0,0.0,0.0,0.0,0.0,0.0,0.0,0.0,0.0,0.0,0.0,0.0,0.0,0.0,0.0,0.0,0.0,0.0,0.0,0.0,0.0,0.0,0.0,0.0,0.0,0.0,0.0,0.0,0.0,0.0,0.0,0.0,0.0,0.0,0.0,0.0,0.0,0.0,0.0,0.0,0.0,0.0,0.0,0.0,0.0,0.0,0.0,0.0,0.0,0.0,0.0,0.0,0.0,0.0,0.0,0.0,0.0,0.0,0.0,0.0,0.0,0.0,0.0,0.0,0.0,0.0,0.0,0.0,0.0,0.0,0.0,0.0,0.0,0.0,0.0,0.0,0.0,0.0,0.0,0.0,0.0,0.0,0.0,0.0,0.0,0.0,0.0,0.0,0.0,0.0,0.0,0.0,0.0,0.0,0.0,0.0,0.0,0.0,0.9668,0.9577,0.9978,1.0936,0.9757,0.9461,0.0,0.0,0.0,0.0,0.0,0.0,0.0,0.0,0.0,0.0,0.0,0.0,0.0,0.0,0.0,0.0,0.0,0.0,0.0,0.0,0.0,0.0,0.0,0.0,0.0,0.0,0.0,0.0,0.0,0.0,0.0,0.0,0.0,0.0,0.0,0.0,0.0,0.0,0.0,0.0,0.0,0.0,0.0,0.0,0.0,0.0,0.0,0.0,0.0,0.0,0.0,0.0,0.0,0.0,0.0,0.0,0.0,0.0,0.0,0.0,0.0,0.0,0.0,0.0,0.0,0.0,0.0,0.0,0.0,0.0,0.0,0.0,0.0,0.0,0.0,0.0,0.0,0.0,0.0,0.0,0.0,0.0,0.0,0.0,0.0,0.0,0.0,0.0,0.0,0.0,0.0,0.0,0.0,0.0,0.0,0.0,0.0,0.0,0.0,0.0,0.0,0.0,0.0,0.0,0.0,0.0,0.0,0.0,0.0,0.9168,1.0118,1.0655,1.07,1.0425,1.0216,0.0,0.0,0.0,0.0,0.0,0.0,0.0,0.0,0.0,0.0,0.0,0.0,0.0,0.0,0.0,0.0,0.0,0.0,0.0,0.0,0.0,0.0,0.0,0.0,0.0,0.0,0.0,0.0,0.0,0.0,0.0,0.0,0.0,0.0,0.0,0.0,0.0,0.0,0.0,0.0,0.0,0.0,0.0,0.0,0.0,0.0,0.0,0.0,0.0,0.0,0.0,0.0,0.0,0.0,0.0,0.0,0.0,0.0,0.0,0.0,0.0,0.0,0.0,0.0,0.0,0.0,0.0,0.0,0.0,0.0,0.0,0.0,0.0,0.0,0.0,0.0,0.0,0.0,0.0,0.0,0.0,0.0,0.0,0.0,0.0,0.0,0.0,0.0,0.0,0.0,0.0,0.0,0.0,0.0,0.0,0.0,0.0,0.0,0.0,0.0,0.0,0.0,0.0,0.0,0.0,0.0,0.0,0.0,0.0,0.9431,0.0,1.0971,1.0863,1.0602,1.03,0.0,0.0,0.0,0.0,0.0,0.0,0.0,0.0,0.0,0.0,0.0,0.0,0.0,0.0,0.0,0.0,0.0,0.0,0.0,0.0,0.0,0.0,0.0,0.0,0.0,0.0,0.0,0.0,0.0,0.0,0.0,0.0,0.0,0.0,0.0,0.0,0.0,0.0,0.0,0.0,0.0,0.0,0.0,0.0,0.0,0.0,0.0,0.0,0.0,0.0,0.0,0.0,0.0,0.0,0.0,0.0,0.0,0.0,0.0,0.0,0.0,0.0,0.0,0.0,0.0,0.0,0.0,0.0,0.0,0.0,0.0,0.0,0.0,0.0,0.0,0.0,0.0,0.0,0.0,0.0,0.0,0.0,0.0,0.0,0.0,0.0,0.0,0.0,0.0,0.0,0.0,0.0,0.0,0.0,0.0,0.0,0.0,0.0,0.0,0.0,0.0,0.0,0.0,0.0,0.0,0.0,0.0,0.0,0.9095,1.0604,1.0529,1.0857,1.1532,1.0272,0.9665,0.0,0.0,0.0,0.0,0.0,0.0,0.0,0.0,0.0,0.0,0.0,0.0,0.0,0.0,0.0,0.0,0.0,0.0,0.0,0.0,0.0,0.0,0.0,0.0,0.0,0.0,0.0,0.0,0.0,0.0,0.0,0.0,0.0,0.0,0.0,0.0,0.0,0.0,0.0,0.0,0.0,0.0,0.0,0.0,0.0,0.0,0.0,0.0,0.0,0.0,0.0,0.0,0.0,0.0,0.0,0.0,0.0,0.0,0.0,0.0,0.0,0.0,0.0,0.0,0.0,0.0,0.0,0.0,0.0,0.0,0.0,0.0,0.0,0.0,0.0,0.0,0.0,0.0,0.0,0.0,0.0,0.0,0.0,0.0,0.0,0.0,0.0,0.0,0.0,0.0,0.0,0.0,0.0,0.0,0.0,0.0,0.0,0.0,0.0,0.0,0.0,0.0,0.0,0.0,0.0,0.0,0.0,0.0,0.0,1.0889,1.1147,1.1694,1.243,1.1521,1.127,0.0,0.0,0.0,0.0,0.0,0.0,0.0,0.0,0.0,0.0,0.0,0.0,0.0,0.0,0.0,0.0,0.0,0.0,0.0,0.0,0.0,0.0,0.0,0.0,0.0,0.0,0.0,0.0,0.0,0.0,0.0,0.0,0.0,0.0,0.0,0.0,0.0,0.0,0.0,0.0,0.0,0.0,0.0,0.0,0.0,0.0,0.0,0.0,0.0,0.0,0.0,0.0,0.0,0.0,0.0,0.0,0.0,0.0,0.0,0.0,0.0,0.0,0.0,0.0,0.0,0.0,0.0,0.0,0.0,0.0,0.0,0.0,0.0,0.0,0.0,0.0,0.0,0.0,0.0,0.0,0.0,0.0,0.0,0.0,0.0,0.0,0.0,0.0,0.0,0.0,0.0,0.0,0.0,0.0,0.0,0.0,0.0,0.0,0.0,0.0,0.0,0.0,0.0,0.0,0.0,0.0,0.0,0.0,0.0,1.1091,1.1393,1.1896,1.2576,1.1932,1.1847,1.2338,0.0,0.0,0.0,0.0,0.0,0.0,0.0,0.0,0.0,0.0,0.0,0.0,0.0,0.0,0.0,0.0,0.0,0.0,0.0,0.0,0.0,0.0,0.0,0.0,0.0,0.0,0.0,0.0,0.0,0.0,0.0,0.0,0.0,0.0,0.0,0.0,0.0,0.0,0.0,0.0,0.0,0.0,0.0,0.0,0.0,0.0,0.0,0.0,0.0,0.0,0.0,0.0,0.0,0.0,0.0,0.0,0.0,0.0,0.0,0.0,0.0,0.0,0.0,0.0,0.0,0.0,0.0,0.0,0.0,0.0,0.0,0.0,0.0,0.0,0.0,0.0,0.0,0.0,0.0,0.0,0.0,0.0,0.0,0.0,0.0,0.0,0.0,0.0,0.0,0.0,0.0,0.0,0.0,0.0,0.0,0.0,0.0,0.0,0.0,0.0,0.0,0.0,0.0,0.0,0.0,0.0,0.0,0.0,1.1216,1.1266,1.1578,1.217,1.1757,1.1571,0.0,0.0,0.0,0.0,0.0,0.0,0.0,0.0,0.0,0.0,0.0,0.0,0.0,0.0,0.0,0.0,0.0,0.0,0.0,0.0,0.0,0.0,0.0,0.0,0.0,0.0,0.0,0.0,0.0,0.0,0.0,0.0,0.0,0.0,0.0,0.0,0.0,0.0,0.0,0.0,0.0,0.0,0.0,0.0,0.0,0.0,0.0,0.0,0.0,0.0,0.0,0.0,0.0,0.0,0.0,0.0,0.0,0.0,0.0,0.0,0.0,0.0,0.0,0.0,0.0,0.0,0.0,0.0,0.0,0.0,0.0,0.0,0.0,0.0,0.0,0.0,0.0,0.0,0.0,0.0,0.0,0.0,0.0,0.0,0.0,0.0,0.0,0.0,0.0,0.0,0.0,0.0,0.0,0.0,0.0,0.0,0.0,0.0,0.0,0.0,0.0,0.0,0.0,0.0,0.0,0.0,0.0,0.0,0.0,1.0545,1.0869,1.1716,1.3118,1.2743,1.2738,0.0,0.0,0.0,0.0,0.0,0.0,0.0,0.0,0.0,0.0,0.0,0.0,0.0,0.0,0.0,0.0,0.0,0.0,0.0,0.0,0.0,0.0,0.0,0.0,0.0,0.0,0.0,0.0,0.0,0.0,0.0,0.0,0.0,0.0,0.0,0.0,0.0,0.0,0.0,0.0,0.0,0.0,0.0,0.0,0.0,0.0,0.0,0.0,0.0,0.0,0.0,0.0,0.0,0.0,0.0,0.0,0.0,0.0,0.0,0.0,0.0,0.0,0.0,0.0,0.0,0.0,0.0,0.0,0.0,0.0,0.0,0.0,0.0,0.0,0.0,0.0,0.0,0.0,0.0,0.0,0.0,0.0,0.0,0.0,0.0,0.0,0.0,0.0,0.0,0.0,0.0,0.0,0.0,0.0,0.0,0.0,0.0,0.0,0.0,0.0,0.0,0.0,0.0,0.0,0.0,0.0,0.0,0.0,0.9719,1.0534,1.0662,1.1502,1.3065,1.3176,1.3245,0.0,0.0,0.0,0.0,0.0,0.0,0.0,0.0,0.0,0.0,0.0,0.0,0.0,0.0,0.0,0.0,0.0,0.0,0.0,0.0,0.0,0.0,0.0,0.0,0.0,0.0,0.0,0.0,0.0,0.0,0.0,0.0,0.0,0.0,0.0,0.0,0.0,0.0,0.0,0.0,0.0,0.0,0.0,0.0,0.0,0.0,0.0,0.0,0.0,0.0,0.0,0.0,0.0,0.0,0.0,0.0,0.0,0.0,0.0,0.0,0.0,0.0,0.0,0.0,0.0,0.0,0.0,0.0,0.0,0.0,0.0,0.0,0.0,0.0,0.0,0.0,0.0,0.0,0.0,0.0,0.0,0.0,0.0,0.0,0.0,0.0,0.0,0.0,0.0,0.0,0.0,0.0,0.0,0.0,0.0,0.0,0.0,0.0,0.0,0.0,0.0,0.0,0.0,0.0,0.0,0.0,0.0,0.0,0.9559,1.0634,1.0473,1.0978,1.2231,1.3089,1.3236,0.0,0.0,0.0,0.0,0.0,0.0,0.0,0.0,0.0,0.0,0.0,0.0,0.0,0.0,0.0,0.0,0.0,0.0,0.0,0.0,0.0,0.0,0.0,0.0,0.0,0.0,0.0,0.0,0.0,0.0,0.0,0.0,0.0,0.0,0.0,0.0,0.0,0.0,0.0,0.0,0.0,0.0,0.0,0.0,0.0,0.0,0.0,0.0,0.0,0.0,0.0,0.0,0.0,0.0,0.0,0.0,0.0,0.0,0.0,0.0,0.0,0.0,0.0,0.0,0.0,0.0,0.0,0.0,0.0,0.0,0.0,0.0,0.0,0.0,0.0,0.0,0.0,0.0,0.0,0.0,0.0,0.0,0.0,0.0,0.0,0.0,0.0,0.0,0.0,0.0,0.0,0.0,0.0,0.0,0.0,0.0,0.0,0.0,0.0,0.0,0.0,0.0,0.0,0.0,0.0,0.0,0.0,0.0,0.8695,0.9161,0.9417,1.0161,1.1416,1.2194,1.2591,0.0,0.0,0.0,0.0,0.0,0.0,0.0,0.0,0.0,0.0,0.0,0.0,0.0,0.0,0.0,0.0,0.0,0.0,0.0,0.0,0.0,0.0,0.0,0.0,0.0,0.0,0.0,0.0,0.0,0.0,0.0,0.0,0.0,0.0,0.0,0.0,0.0,0.0,0.0,0.0,0.0,0.0,0.0,0.0,0.0,0.0,0.0,0.0,1.5407,0.0,0.0,0.0,0.0,0.0,0.0,0.0,0.0,0.0,0.0,0.0,0.0,0.0,0.0,0.0,0.0,0.0,0.0,0.0,0.0,0.0,0.0,0.0,0.0,0.0,0.0,0.0,0.0,0.0,0.0,0.0,0.0,0.0,0.0,0.0,0.0,0.0,0.0,0.0,0.0,0.0,0.0,0.0,0.0,0.0,0.0,0.0,0.0,0.0,0.0,0.0,0.0,0.0,0.0,0.0,0.0,0.0,0.0,0.0,0.8116,0.816,0.8523,0.9462,1.1033,1.1545,1.1881,0.0,0.0,0.0,0.0,0.0,0.0,0.0,0.0,0.0,0.0,0.0,0.0,0.0,0.0,0.0,0.0,0.0,0.0,0.0,0.0,0.0,0.0,0.0,0.0,0.0,0.0,0.0,0.0,0.0,0.0,0.0,0.0,0.0,0.0,0.0,0.0,0.0,0.0,0.0,0.0,0.0,0.0,0.0,0.0,0.0,0.0,0.0,0.0,0.0,0.0,0.0,0.0,0.0,0.0,0.0,0.0,0.0,0.0,0.0,0.0,0.0,0.0,0.0,0.0,0.0,0.0,0.0,0.0,0.0,0.0,0.0,0.0,0.0,0.0,0.0,0.0,0.0,0.0,0.0,0.0,0.0,0.0,0.0,0.0,0.0,0.0,0.0,0.0,0.0,0.0,0.0,0.0,0.0,0.0,0.0,0.0,0.0,0.0,0.0,0.0,0.0,0.0,0.0,0.0,0.0,0.0,0.0,0.7517,0.7629,0.7273,0.7756,0.8947,1.0819,1.1073,1.1287,1.1562,0.0,0.0,0.0,0.0,0.0,0.0,0.0,0.0,0.0,0.0,0.0,0.0,0.0,0.0,0.0,0.0,0.0,0.0,0.0,0.0,0.0,0.0,0.0,0.0,0.0,0.0,0.0,0.0,0.0,0.0,0.0,0.0,0.0,0.0,0.0,0.0,0.0,0.0,1.1499,1.2555,0.0,0.0,0.0,0.0,0.0,0.0,0.0,0.0,1.6246,0.0,0.0,0.0,0.0,0.0,0.0,0.0,0.0,0.0,0.0,0.0,0.0,0.0,0.0,0.0,0.0,0.0,0.0,0.0,0.0,0.0,0.0,0.0,0.0,0.0,0.0,0.0,0.0,0.0,0.0,0.0,0.0,0.0,0.0,0.0,0.0,0.0,0.0,0.0,0.0,0.0,0.0,0.0,0.0,0.0,0.0,0.0,0.0,0.0,0.0,0.0,0.0,0.0,0.0,0.0,0.0,0.629,0.7328,0.7338,0.6209,0.7473,0.892,1.0419,1.0912,1.1232,1.1451,0.0,0.0,0.0,0.0,0.0,0.0,0.0,0.0,0.0,0.0,0.0,0.0,0.0,0.0,0.0,0.0,0.0,0.0,0.0,0.0,0.0,0.0,0.0,0.0,0.0,0.0,0.0,0.0,0.0,0.0,0.0,0.0,0.0,0.0,0.0,0.0,0.0,0.0,0.0,1.2623,1.3357,0.0,0.0,0.0,0.0,0.0,0.0,0.0,0.0,1.6623,0.0,0.0,0.0,0.0,0.0,0.0,0.0,0.0,0.0,0.0,0.0,0.0,0.0,0.0,0.0,0.0,0.0,0.0,0.0,0.0,0.0,0.0,0.0,0.0,0.0,0.0,0.0,0.0,0.0,0.0,0.0,0.0,0.0,0.0,0.0,0.0,0.0,0.0,0.0,0.0,0.0,0.0,0.0,0.0,0.0,0.0,0.0,0.0,0.0,0.0,0.0,0.0,0.0,0.0,0.0,0.5436,0.6201,0.6158,0.5209,0.6447,0.816,1.0198,0.9971,1.0311,0.0,0.0,0.0,0.0,0.0,0.0,0.0,0.0,0.0,0.0,0.0,0.0,0.0,0.0,0.0,0.0,0.0,0.0,0.0,0.0,0.0,0.0,0.0,0.0,0.0,0.0,0.0,0.0,0.0,0.0,0.0,0.0,0.0,0.0,0.0,0.0,0.0,0.0,0.0,0.0,1.3516,1.3944,1.5492,0.0,0.0,0.0,0.0,0.0,0.0,1.6328,1.6463,0.0,0.0,0.0,0.0,0.0,0.0,0.0,0.0,0.0,0.0,0.0,0.0,0.0,0.0,0.0,0.0,0.0,0.0,0.0,0.0,0.0,0.0,0.0,0.0,0.0,0.0,0.0,0.0,0.0,0.0,0.0,0.0,0.0,0.0,0.0,0.0,0.0,0.0,0.0,0.0,0.0,0.0,0.0,0.0,0.0,0.0,0.0,0.0,0.0,0.0,0.0,0.0,0.0,0.0,0.0,0.4736,0.5107,0.506,0.4545,0.56,0.7439,0.9975,0.906,0.9494,0.0,0.0,0.0,0.0,0.0,0.0,0.0,0.0,0.0,0.0,0.0,0.0,0.0,0.0,0.0,0.0,0.0,0.0,0.0,0.0,0.0,0.0,0.0,0.0,0.0,0.0,0.0,0.0,0.0,0.0,0.0,0.0,0.0,0.0,0.0,0.0,0.0,0.0,0.0,0.0,0.0,1.476,1.5973,1.5975,0.0,0.0,0.0,0.0,1.6065,1.6219,0.0,0.0,0.0,0.0,0.0,0.0,0.0,0.0,0.0,0.0,0.0,0.0,0.0,0.0,0.0,0.0,0.0,0.0,0.0,0.0,0.0,0.0,0.0,0.0,0.0,0.0,0.0,0.0,0.0,0.0,0.0,0.0,0.0,0.0,0.0,0.0,0.0,0.0,0.0,0.0,0.0,0.0,0.0,0.0,0.0,0.0,0.0,0.0,0.0,0.0,0.0,0.0,0.0,0.0,0.0,0.0,0.5038,0.4808,0.4685,0.4704,0.5667,0.7343,0.9654,0.8727,0.9433,0.0,0.0,0.0,0.0,0.0,0.0,0.0,0.0,0.0,0.0,0.0,0.0,0.0,0.0,0.0,0.0,0.0,0.0,0.0,0.0,0.0,0.0,0.0,0.0,0.0,0.0,0.0,0.0,0.0,0.0,0.0,0.0,0.0,0.0,0.0,0.0,0.0,0.0,0.0,0.0,0.0,1.5213,1.5924,1.6038,1.5937,0.0,0.0,1.678,1.6253,1.6591,0.0,0.0,0.0,0.0,0.0,0.0,0.0,0.0,0.0,0.0,0.0,0.0,0.0,0.0,0.0,0.0,0.0,0.0,0.0,0.0,0.0,0.0,0.0,0.0,0.0,0.0,0.0,0.0,0.0,0.0,0.0,0.0,0.0,0.0,0.0,0.0,0.0,0.0,0.0,0.0,0.0,0.0,0.0,0.0,0.0,0.0,0.0,0.0,0.0,0.0,0.0,0.0,0.0,0.0,0.0,0.4654,0.4947,0.3824,0.329,0.34,0.4479,0.6089,0.818,0.7417,0.8463,0.0,0.0,0.0,0.0,0.0,0.0,0.0,0.0,0.0,0.0,0.0,0.0,0.0,0.0,0.0,0.0,0.0,0.0,0.0,0.0,0.0,0.0,0.0,0.0,0.0,0.0,0.0,0.0,0.0,0.0,0.0,0.0,0.0,0.0,0.0,0.0,0.0,0.0,0.0,0.0,0.0,0.0,1.6352,1.6334,0.0,0.0,0.0,1.6623,1.6457,0.0,0.0,0.0,0.0,0.0,0.0,0.0,0.0,0.0,0.0,0.0,0.0,0.0,0.0,0.0,0.0,0.0,0.0,0.0,0.0,0.0,0.0,0.0,0.0,0.0,0.0,0.0,0.0,0.0,0.0,0.0,0.0,0.0,0.0,0.0,0.0,0.0,0.0,0.0,0.0,0.0,0.0,0.0,0.0,0.0,0.0,0.0,0.0,0.0,0.0,0.0,0.0,0.0,0.0,0.0,0.0,0.0,0.4474,0.2698,0.1972,0.2386,0.3478,0.5021,0.6969,0.6439,0.0,0.0,0.0,0.0,0.0,0.0,0.0,0.0,0.0,0.0,0.0,0.0,0.0,0.0,0.0,0.0,0.0,0.0,0.0,0.0,0.0,0.0,0.0,0.0,0.0,0.0,0.0,1.1052,0.0,0.0,0.0,0.0,0.0,0.0,0.0,0.0,0.0,0.0,0.0,0.0,0.0,0.0,1.5723,1.6352,1.6524,1.6608,0.0,0.0,1.6897,1.6741,1.6676,1.6573,0.0,0.0,0.0,0.0,0.0,0.0,0.0,0.0,0.0,0.0,0.0,0.0,0.0,0.0,0.0,0.0,0.0,0.0,0.0,0.0,0.0,0.0,0.0,0.0,0.0,0.0,0.0,0.0,0.0,0.0,0.0,0.0,0.0,0.0,0.0,0.0,0.0,0.0,0.0,0.0,0.0,0.0,0.0,0.0,0.0,0.0,0.0,0.0,0.0,0.0,0.0,0.0,0.0,0.0,0.0,0.3409,0.1593,0.1173,0.2272,0.3234,0.4774,0.6914,0.642,0.7633,0.0,0.0,0.0,0.0,0.0,0.0,0.0,0.0,0.0,0.0,0.0,0.0,0.0,0.0,0.0,0.0,0.0,0.0,0.0,0.0,0.0,0.0,0.0,0.0,0.0,0.0,0.0,0.0,0.0,0.0,0.0,0.0,0.0,0.0,0.0,0.0,0.0,0.0,0.0,0.0,0.0,1.5918,1.5535,1.6326,1.6857,0.0,0.0,1.8122,1.7212,1.7534,1.7572,1.6707,0.0,0.0,0.0,0.0,0.0,0.0,0.0,0.0,0.0,0.0,0.0,0.0,0.0,0.0,0.0,0.0,0.0,0.0,0.0,0.0,0.0,0.0,0.0,0.0,0.0,0.0,0.0,0.0,0.0,0.0,0.0,0.0,0.0,0.0,0.0,0.0,0.0,0.0,0.0,0.0,0.0,0.0,0.0,0.0,0.0,0.0,0.0,0.0,0.0,0.0,0.0,0.0,0.0,0.2384,0.196,0.0866,0.0632,0.1338,0.2715,0.4248,0.59,0.6416,0.7822,0.0,0.0,0.0,0.0,0.0,0.0,0.0,0.0,0.0,0.0,0.0,0.0,0.0,0.0,0.0,0.0,0.0,0.0,0.0,0.0,0.0,0.0,0.0,0.0,0.0,0.0,0.0,0.0,1.2499,1.2702,1.2603,0.0,0.0,0.0,0.0,0.0,0.0,0.0,0.0,0.0,0.0,1.6203,1.6155,1.6413,0.0,0.0,1.768,1.8062,1.8295,1.8207,1.8028,1.7764,1.7616,0.0,0.0,0.0,0.0,0.0,0.0,0.0,0.0,0.0,0.0,0.0,0.0,0.0,0.0,0.0,0.0,0.0,0.0,0.0,0.0,0.0,0.0,0.0,0.0,0.0,0.0,0.0,0.0,0.0,0.0,0.0,0.0,0.0,0.0,0.0,0.0,0.0,0.0,0.0,0.0,0.0,0.0,0.0,0.0,0.0,0.0,0.0,0.0,0.0,0.0,0.0,0.0,0.2548,0.1546,0.0765,0.0449,0.062,0.2682,0.4183,0.4996,0.6475,0.8074,0.0,0.0,0.0,0.0,0.0,0.0,0.0,0.0,0.0,0.0,0.0,0.0,0.0,0.0,0.0,0.0,0.0,0.0,0.0,0.0,0.0,0.0,0.0,0.0,0.0,0.0,0.0,0.0,1.3185,1.3435,1.3064,0.0,0.0,0.0,0.0,0.0,0.0,0.0,0.0,0.0,0.0,1.6615,1.6711,1.6808,1.7151,1.7858,1.8063,1.8354,1.8961,1.8759,1.8439,1.816,0.0,0.0,0.0,0.0,0.0,0.0,0.0,0.0,0.0,0.0,0.0,0.0,0.0,0.0,0.0,0.0,0.0,0.0,0.0,0.0,0.0,0.0,0.0,0.0,0.0,0.0,0.0,0.0,0.0,0.0,0.6867,0.0,0.0,0.0,0.0,0.0,0.0,0.0,0.0,0.0,0.0,0.0,0.0,0.0,0.0,0.0,0.0,0.0,0.0,0.0,0.0,0.0,0.0,0.353,0.2561,0.1309,0.0567,0.0499,0.3322,0.4679,0.4461,0.6684,0.836,0.9158,0.0,0.0,0.0,0.0,0.0,0.0,0.0,0.0,0.0,0.0,0.0,0.0,0.0,0.0,0.0,0.0,0.0,0.0,0.0,0.0,0.0,0.0,0.0,0.0,0.0,0.0,1.1386,1.232,1.3141,0.0,0.0,0.0,0.0,0.0,0.0,0.0,0.0,0.0,0.0,1.7001,1.7118,1.7001,1.7518,1.7992,1.8241,1.8876,1.9233,1.8967,1.9109,1.8873,0.0,0.0,0.0,0.0,0.0,0.0,0.0,0.0,0.0,0.0,0.0,0.0,0.0,0.0,0.0,0.0,0.0,0.0,0.0,0.0,0.0,0.0,0.0,0.0,0.0,0.0,0.0,0.8619,0.7745,0.0,0.0,0.0,0.0,0.0,0.0,0.0,0.0,0.0,0.0,0.0,0.4794,0.4809,0.0,0.0,0.0,0.0,0.0,0.0,0.0,0.0,0.0,0.0,0.0,0.0,0.2587,0.2459,0.0841,0.0352,0.1209,0.3262,0.4859,0.5887,0.7266,0.8813,1.052,0.0,0.0,0.0,0.0,0.0,0.0,0.0,0.0,0.0,0.0,0.0,0.0,0.0,0.0,0.0,0.0,0.0,0.0,0.0,0.0,0.0,0.0,0.0,0.0,0.0,1.295,0.0,0.0,0.0,0.0,0.0,0.0,0.0,0.0,0.0,0.0,0.0,1.6488,1.6393,1.7096,1.749,1.7127,1.7379,1.7728,0.0,0.0,0.0,0.0,0.0,0.0,0.0,0.0,0.0,0.0,0.0,0.0,0.0,0.0,1.7136,1.6348,1.6179,1.6179,1.6277,0.0,0.0,0.0,0.0,0.0,0.0,0.0,0.0,0.0,0.0,0.0,0.0,0.0,0.0,0.0,0.0,0.8442,0.0,0.0,0.0,0.0,0.0,0.0,0.0,0.0,0.4922,0.4607,0.4284,0.4108,0.3953,0.0,0.3943,0.4518,0.0,0.0,0.0,0.0,0.0,0.0,0.0,0.0,0.3615,0.3257,0.1448,0.096,0.197,0.3733,0.5205,0.6295,0.7611,0.9274,1.1275,1.1468,1.1719,0.0,0.0,0.0,0.0,0.0,0.0,0.0,0.0,0.0,0.0,0.0,0.0,0.0,0.0,0.0,0.0,0.0,0.0,0.0,0.0,0.0,0.0,0.0,1.3652,0.0,0.0,0.0,0.0,0.0,0.0,0.0,0.0,0.0,1.5673,1.6393,1.6886,1.7073,1.7555,1.7856,1.7691,0.0,0.0,0.0,0.0,0.0,0.0,0.0,1.9914,1.981,1.9661,1.9489,1.9216,1.8938,1.8794,1.8774,0.0,0.0,1.7144,1.6943,1.6928,1.7058,1.7042,1.7109,1.7454,1.7501,1.7609,0.0,0.0,0.0,0.0,0.0,0.0,0.0,0.0,0.9096,0.8459,0.0,0.8396,0.0,0.0,0.0,0.0,0.0,0.5415,0.0,0.0,0.3547,0.3163,0.3105,0.3364,0.3323,0.3053,0.376,0.3943,0.3667,0.3906,0.0,0.0,0.0,0.0,0.0,0.0,0.6292,0.4632,0.2885,0.2248,0.2653,0.4668,0.574,0.5761,0.7786,0.9681,1.1253,1.108,1.1532,1.2817,1.2283,0.0,0.0,0.0,0.0,0.0,0.0,0.0,0.0,0.0,0.0,0.0,0.0,0.0,0.0,0.0,0.0,0.0,0.0,0.0,0.0,1.356,0.0,0.0,0.0,0.0,0.0,0.0,0.0,0.0,0.0,0.0,1.6576,1.6829,1.737,1.8569,0.0,0.0,0.0,0.0,1.8498,1.9016,1.9273,1.9508,1.9666,1.9732,1.9657,1.9308,0.0,0.0,1.9137,1.9623,1.9721,1.8921,1.8902,1.8956,1.8717,1.8346,1.8223,1.8511,1.8299,1.8192,1.8144,1.8222,1.83,1.3169,0.0,0.0,0.0,0.0,1.0559,1.011,0.997,0.9215,0.8878,0.8809,0.8691,0.0,0.0,0.0,0.0,0.0,0.0,0.407,0.3486,0.3547,0.3261,0.2709,0.3188,0.3118,0.2531,0.298,0.2783,0.2034,0.2263,0.3358,0.5228,0.0,0.0,0.0,0.0,0.3898,0.2623,0.183,0.2026,0.3246,0.4544,0.5947,0.7417,0.8717,0.9842,1.0743,1.1089,1.1728,1.2701,1.2597,0.0,0.0,0.0,0.0,0.0,0.0,0.0,0.0,0.0,0.0,0.0,0.0,0.0,0.0,0.0,0.0,0.0,0.0,0.0,1.3243,1.3619,1.3821,0.0,0.0,0.0,0.0,0.0,0.0,0.0,0.0,0.0,1.671,1.6809,1.7121,0.0,0.0,1.8446,1.8731,1.8964,1.9087,1.9051,1.9517,0.0,0.0,1.9706,1.9894,1.9767,1.9526,1.9408,1.9576,1.9409,1.9288,1.9421,1.9552,1.9649,1.995,1.9029,1.8253,1.8145,1.8238,1.8455,1.8726,1.8783,1.8903,1.187,1.1055,1.1613,1.1514,1.0974,1.0169,0.9791,0.9736,0.9354,0.9124,0.8933,0.88,0.822,0.7306,0.6278,0.0,0.0,0.0,0.3849,0.3584,0.3649,0.3355,0.2805,0.3286,0.3016,0.2101,0.2428,0.2034,0.101,0.1771,0.2707,0.3871,0.0,0.0,0.4653,0.369,0.311,0.2812,0.2791,0.3295,0.4347,0.55,0.6827,0.829,0.9078,0.9778,1.037,1.0808,1.1642,1.2961,1.2996,1.3381,0.0,0.0,0.0,0.0,0.0,0.0,0.0,0.0,0.0,0.0,0.0,1.4514,0.0,0.0,0.0,0.0,1.3761,1.3638,1.3874,1.4158,0.0,0.0,0.0,0.0,0.0,0.0,0.0,1.5008,1.5515,1.6146,1.698,1.7178,1.7455,1.8147,1.8295,1.8489,1.8893,0.0,1.9211,1.9299,1.9756,1.9963,1.9565,1.9806,2.0061,2.0096,1.981,1.9588,1.9728,1.9541,1.9435,1.9504,1.9803,2.0085,2.0204,1.9562,1.9055,1.9023,1.9088,1.9258,1.9461,1.9485,1.9539,1.0937,1.0229,1.1353,1.1439,1.0782,1.0392,0.988,0.9393,0.9444,0.9178,0.869,0.8706,0.8248,0.7334,0.6136,0.0,0.5276,0.4343,0.3941,0.4006,0.3784,0.3458,0.3105,0.3486,0.302,0.1731,0.217,0.1738,0.0671,0.2029,0.2413,0.1877,0.2613,0.3423,0.4167,0.3414,0.3473,0.4447,0.4902,0.5361,0.5761,0.7098,0.8088,0.8572,0.9042,0.9542,1.016,1.0411,1.1435,1.3341,1.3391,1.3912,1.5065,0.0,0.0,0.0,0.0,0.0,0.0,0.0,0.0,0.0,0.0,0.0,0.0,0.0,0.0,0.0,1.3923,0.0,1.5016,1.4935,0.0,0.0,0.0,1.456,1.4859,1.4822,1.5089,1.5797,0.0,0.0,1.7481,1.7825,1.8229,1.8921,1.8549,1.8419,1.9119,1.906,1.9144,1.9753,2.0015,2.0045,1.9879,1.998,2.0115,2.0235,2.001,1.9767,1.9711,1.9854,1.9732,1.9362,1.9854,2.0224,1.9711,2.0058,2.0494,2.0581,2.0462,2.0308,2.0104,2.0054,2.0019,1.0677,1.0386,1.0331,0.9891,0.9271,0.9508,0.907,0.8269,0.8866,0.8889,0.8467,0.8277,0.7288,0.5691,0.4413,0.3787,0.3748,0.3436,0.3261,0.3196,0.3266,0.3142,0.2915,0.3388,0.3057,0.2075,0.2461,0.2131,0.1177,0.164,0.2029,0.2344,0.2783,0.3289,0.3924,0.4394,0.4394,0.3971,0.4796,0.5598,0.6372,0.7365,0.8088,0.8589,0.9015,0.9487,1.0046,1.0472,1.1499,1.3188,1.3627,1.4397,1.5639,1.5672,0.0,0.0,0.0,0.0,0.0,0.0,0.0,0.0,0.0,1.4921,1.4777,0.0,1.4112,0.0,1.4415,1.4656,1.4842,1.507,0.0,0.0,1.4808,1.4808,1.4825,1.5343,1.5716,1.5745,1.6695,1.7491,1.7776,1.827,1.8717,1.8965,1.897,1.9031,1.9376,1.9647,1.9882,2.0189,2.027,2.032,2.015,2.0096,2.0061,2.0115,1.994,1.9762,1.9726,1.9617,1.9596,1.9741,1.9919,2.0185,2.041,2.061,2.0577,2.0577,2.0475,2.0339,2.0135,2.0045,2.0025,1.045,0.9917,0.9713,0.9129,0.8301,0.842,0.8199,0.7824,0.7826,0.7789,0.7713,0.7395,0.6648,0.5536,0.4119,0.3616,0.3839,0.327,0.32,0.364,0.3384,0.3233,0.3175,0.336,0.2896,0.1911,0.2236,0.1937,0.1076,0.1408,0.184,0.2263,0.2593,0.3074,0.3822,0.4772,0.5112,0.4881,0.5875,0.6771,0.7497,0.7959,0.8499,0.9095,0.9503,0.9988,1.0704,1.1269,1.218,1.3444,1.3962,1.4719,1.5824,1.5841,1.5426,0.0,0.0,0.0,0.0,0.0,0.0,0.0,0.0,0.0,0.0,0.0,1.4337,1.4515,1.4718,1.4856,1.4794,1.4963,1.5056,1.4994,1.5219,1.5407,1.5501,1.6124,1.6613,1.6784,1.7512,1.8108,1.8389,1.8711,1.8965,1.913,1.9288,1.9369,1.9515,1.9854,2.015,2.027,2.0235,2.0181,2.008,1.9975,1.9919,1.9925,1.9797,1.9669,1.9581,1.9632,1.972,1.9833,2.0115,2.0392,2.0579,2.0595,2.0577,2.0426,2.0323,2.0235,2.015,2.0061,2.0005,0.9575,0.8909,0.9164,0.8805,0.7949,0.7195,0.7137,0.7482,0.6819,0.6534,0.6597,0.6255,0.5975,0.5676,0.439,0.4017,0.4364,0.3298,0.3331,0.4215,0.357,0.3318,0.3401,0.3233,0.2633,0.1673,0.1809,0.1477,0.0808,0.131,0.1742,0.2109,0.2408,0.2987,0.3958,0.4934,0.5766,0.6492,0.7464,0.8242,0.8817,0.8768,0.9127,0.9932,1.0278,1.0804,1.1572,1.2195,1.2924,1.3797,1.4255,1.49,1.5811,1.5697,1.5639,0.0,1.5118,0.0,0.0,0.0,0.0,0.0,0.0,0.0,0.0,1.4856,1.4825,1.4871,1.4966,1.5025,1.4955,1.4983,1.512,1.5437,1.588,1.6276,1.6498,1.6986,1.7563,1.8143,1.8274,1.8521,1.8977,1.9055,1.9145,1.9302,1.9472,1.9566,1.953,1.9818,2.0115,2.0115,2.001,1.9955,1.9833,1.9762,1.9726,1.9726,1.9596,1.9516,1.9413,1.9596,1.9762,1.9762,2.0135,2.0512,2.0326,2.0376,2.0392,2.0254,2.0115,2.008,2.008,2.001,1.9955,0.5992,0.7239,0.7907,0.8559,0.8843,0.5951,0.5235,0.6158,0.6839,0.6336,0.5082,0.5173,0.4714,0.3847,0.3802,0.3323,0.257,0.2643,0.2646,0.2504,0.257,0.2507,0.238,0.2347,0.2147,0.1845,0.1709,0.1475,0.1179,0.1244,0.174,0.2656,0.2951,0.3658,0.4757,0.0,0.0,0.0,0.8248,0.8775,0.9562,0.9903,1.0278,1.0753,1.104,0.0,1.1674,1.221,1.2852,1.3633,1.4141,0.0,0.0,0.0,0.0,0.0,0.0,0.0,0.0,0.0,0.0,0.0,1.4686,1.4839,1.4902,1.4921,1.4996,1.5117,1.5162,1.5379,1.59,1.6036,1.6285,1.6746,1.6953,1.7059,1.7088,1.7621,1.8085,1.8187,1.8637,1.8933,1.9026,1.9205,1.9242,1.9168,1.9574,1.9741,1.9487,1.9833,2.0115,2.0115,1.994,1.9812,1.9726,1.9596,1.9487,1.945,1.9265,1.9168,1.9265,1.9139,1.9161,1.9398,1.9711,1.9889,1.9747,2.003,2.022,1.9884,1.9848,1.9884,1.999,1.9919,1.9884,0.3307,0.0,0.5242,0.6495,0.0,0.5626,0.4859,0.5073,0.5212,0.4791,0.4013,0.3938,0.3916,0.3884,0.3575,0.313,0.2543,0.2838,0.2772,0.2441,0.2275,0.2311,0.2474,0.2211,0.1978,0.1878,0.1742,0.1542,0.1414,0.1514,0.1842,0.2398,0.2794,0.3384,0.413,0.5071,0.6586,0.8633,0.8847,0.9328,1.0116,1.0201,1.0548,1.1299,0.0,0.0,0.0,0.0,0.0,0.0,0.0,0.0,0.0,0.0,0.0,1.5996,1.558,1.5315,1.5225,1.4783,1.4547,1.4641,1.4811,1.4949,1.507,1.5102,1.5193,1.5298,1.5529,1.5848,1.6184,1.655,1.6899,1.7185,1.7524,1.7742,1.7766,1.8259,1.8637,1.8666,1.8898,1.9078,1.904,1.9153,1.9265,1.928,1.9501,1.9705,1.9632,1.9848,2.001,1.9869,1.9797,1.9675,1.9545,1.945,1.9339,1.9242,1.9107,1.9017,1.9026,1.9116,1.9176,1.9398,1.9581,1.9675,1.9762,1.9833,1.9869,1.9797,1.9762,1.9797,1.9848,1.9812,1.9797,0.0771,0.1645,0.2754,0.4394,0.6199,0.5451,0.4778,0.4162,0.0,0.0,0.0,0.2845,0.3237,0.3884,0.3273,0.2925,0.2805,0.2863,0.2798,0.2603,0.2145,0.2175,0.2636,0.2245,0.1978,0.1878,0.1776,0.1678,0.1548,0.178,0.1911,0.2047,0.248,0.294,0.3385,0.4314,0.6016,0.8418,0.8995,0.9655,1.0452,1.034,1.072,1.1726,1.1847,1.2341,1.3213,1.3462,1.3735,1.4084,1.461,1.5043,1.5329,1.5667,1.5953,1.6194,1.5841,1.561,1.5595,1.4937,1.461,1.4825,1.4921,1.5058,1.5208,1.5298,1.5386,1.555,1.5985,1.63,1.6532,1.704,1.7432,1.7534,1.8027,1.8361,1.839,1.8796,1.9072,1.9116,1.9064,1.9026,1.904,1.9101,1.9213,1.9413,1.9487,1.9523,1.9726,1.9848,1.9884,1.9705,1.9632,1.9545,1.9376,1.9265,1.9191,1.8993,1.8903,1.8865,1.8851,1.9078,1.925,1.9176,1.9457,1.9566,1.9617,1.9603,1.9566,1.9617,1.9726,1.9762,1.9726,1.9762,1.9833,-0.2373,0.096,0.2421,0.4092,0.5628,0.4628,0.3916,0.3436,0.2951,0.22,0.134,0.2422,0.2461,0.1773,0.2392,0.226,0.1579,0.1673,0.1676,0.0,0.1678,0.1711,0.1715,0.2086,0.2081,0.1776,0.1878,0.1878,0.1711,0.1711,0.1845,0.2147,0.2606,0.3233,0.3878,0.4484,0.5548,0.7067,0.8219,0.9366,1.0487,1.0948,1.1407,1.1847,1.2111,1.2397,1.2794,1.3323,1.3735,1.3986,1.4305,1.4686,1.5134,1.5448,1.5853,1.6316,1.5826,1.5667,1.6037,1.5239,1.4763,1.4951,1.4949,1.5041,1.5329,1.5403,1.5623,1.6179,1.6354,1.6801,1.7737,1.7983,1.8245,1.8724,1.8898,1.897,1.8956,1.9029,1.9116,1.9078,1.8936,1.8836,1.8827,1.9026,1.9161,1.9139,1.9435,1.9726,1.9726,1.9726,1.9726,1.9654,1.9508,1.9376,1.9265,1.9003,1.8865,1.8764,1.8673,1.8634,1.8711,1.8788,1.8788,1.8659,1.9064,1.9124,1.8602,1.9161,1.942,1.9236,1.9457,1.9762,1.9726,1.9869,2.001,-0.4541,-0.1478,-0.0371,0.1544,0.3789,0.2985,0.2889,0.3134,0.2266,0.1705,0.1375,0.1669,0.1904,0.2172,0.2291,0.2161,0.1842,0.1935,0.1807,0.1477,0.1611,0.1744,0.1852,0.2153,0.215,0.1878,0.2109,0.2042,0.1709,0.2042,0.2247,0.2344,0.3163,0.3844,0.4344,0.4954,0.5746,0.668,0.7908,0.9216,1.0588,1.0963,1.1331,1.1735,1.1926,1.2189,1.2468,1.3132,1.3669,1.4019,1.4292,1.4641,1.5059,1.5433,1.5824,1.6179,1.5463,1.5344,1.6093,1.5418,1.498,1.4968,1.4949,1.5167,1.5761,1.573,1.5906,1.6352,1.6899,1.7519,1.8158,1.8506,1.8796,1.9058,1.9116,1.9116,1.9116,1.9176,1.9139,1.8988,1.8927,1.8903,1.8865,1.9026,1.9199,1.925,1.9581,1.9726,1.9726,1.9669,1.9632,1.956,1.945,1.925,1.9064,1.8912,1.8736,1.8581,1.8556,1.8517,1.8595,1.8595,1.8556,1.845,1.8707,1.8822,1.8475,1.8997,1.9295,1.9472,1.9493,1.9762,1.9762,1.9782,1.994,-0.6205,-0.3625,-0.3007,-0.0916,0.194,0.1493,0.1932,0.2849,0.164,0.1273,0.151,0.111,0.1509,0.2371,0.1996,0.1899,0.2106,0.2101,0.1902,0.164,0.1709,0.1878,0.205,0.2343,0.2429,0.2259,0.2515,0.2462,0.2083,0.2577,0.2777,0.2779,0.3827,0.4509,0.4639,0.5448,0.6094,0.6679,0.7837,0.9103,1.0436,1.0698,1.0991,1.1425,1.1614,1.181,1.2189,1.2956,1.3581,1.4,1.4259,1.4564,1.4968,1.533,1.5667,1.5883,1.5195,1.5058,1.5711,1.5463,1.5163,1.5013,1.5046,1.5389,1.5992,1.627,1.6494,1.6793,1.7543,1.8115,1.8506,1.8848,1.9139,1.925,1.9213,1.9213,1.9176,1.9288,1.9288,1.8974,1.8965,1.9055,1.9055,1.9078,1.925,1.9523,1.9669,1.9654,1.9654,1.9611,1.9501,1.9376,1.9339,1.9213,1.8898,1.8822,1.8745,1.8581,1.8581,1.8581,1.8556,1.8517,1.8478,1.8372,1.8553,1.8707,1.8836,1.9161,1.9369,1.9545,1.969,1.9848,1.9797,1.9762,1.9833,-0.7373,-0.487,-0.4061,-0.1978,0.0803,0.0693,0.1366,0.2332,0.1138,0.0874,0.138,0.1315,0.1246,0.1244,0.1074,0.1208,0.1575,0.1343,0.1377,0.1642,0.1845,0.1878,0.189,0.2749,0.3093,0.289,0.3294,0.335,0.3049,0.3195,0.3301,0.3502,0.4548,0.4969,0.4865,0.5816,0.644,0.6703,0.7997,0.9047,0.9752,1.0217,1.061,1.0947,1.1171,1.1425,1.1835,1.2819,1.3527,1.3808,1.398,1.4214,1.4641,1.4907,1.524,1.5594,1.5374,1.5179,1.498,1.5163,1.5195,1.5056,1.5396,1.5783,1.6121,1.6937,1.7553,1.7806,1.8078,1.852,1.9243,1.9244,1.9362,1.9741,1.9617,1.942,1.9413,1.9603,1.9588,1.9139,1.9087,1.9147,1.9101,1.9161,1.9332,1.9617,1.9647,1.9596,1.9611,1.9501,1.9376,1.9228,1.9139,1.9101,1.9011,1.8898,1.8784,1.8745,1.876,1.8697,1.8581,1.8595,1.8595,1.8411,1.8721,1.8912,1.8874,1.9139,1.9617,1.9581,1.9741,1.997,1.9955,1.9833,1.9848,-0.6904,-0.51,-0.4483,-0.2598,-0.0131,0.02,0.087,0.1742,0.0973,0.0841,0.1212,0.1281,0.138,0.1477,0.1143,0.1209,0.1609,0.1408,0.1509,0.1818,0.1979,0.2216,0.2574,0.3038,0.3332,0.3399,0.3721,0.3679,0.3444,0.3588,0.4058,0.4793,0.5525,0.5789,0.575,0.676,0.7304,0.7277,0.8536,0.9628,1.0318,1.0707,1.1021,1.1337,1.1576,1.1831,1.2272,1.3037,1.3661,1.4092,1.4065,1.4227,1.4686,1.4686,1.4828,1.5285,1.5433,1.5285,1.4825,1.5072,1.5254,1.5225,1.5609,1.6108,1.6826,1.7475,1.8086,1.8688,1.8834,1.8987,1.9354,1.9566,1.9762,1.9854,1.9833,1.9762,1.9741,1.9654,1.942,1.9049,1.8898,1.8898,1.9026,1.9273,1.9493,1.9632,1.9626,1.9574,1.9501,1.9376,1.9302,1.9228,1.9139,1.9049,1.8988,1.8874,1.8822,1.8784,1.876,1.8697,1.8659,1.862,1.8567,1.845,1.8912,1.9139,1.8997,1.9347,1.9762,1.9669,1.9705,1.9884,1.9833,1.9741,1.9741,-0.6415,-0.5205,-0.4093,-0.2469,-0.0659,-0.0067,0.0672,0.1345,0.0908,0.0841,0.1044,0.1179,0.1479,0.1747,0.1345,0.1345,0.1642,0.1607,0.1742,0.2055,0.2168,0.2505,0.3086,0.3358,0.3652,0.3957,0.419,0.4181,0.3922,0.4112,0.4811,0.5689,0.6408,0.6634,0.667,0.7663,0.8069,0.7968,0.9033,1.004,1.0816,1.1284,1.156,1.1747,1.1934,1.2242,1.2641,1.3185,1.3715,1.4203,1.4092,1.4176,1.4588,1.4447,1.4574,1.4966,1.5225,1.518,1.4825,1.4994,1.5219,1.5498,1.5963,1.6694,1.7505,1.8147,1.876,1.9353,1.9493,1.95,1.9639,1.9904,2.003,2.005,2.0065,2.0025,1.9955,1.9756,1.9508,1.9049,1.8974,1.8884,1.9049,1.9413,1.9632,1.9626,1.9553,1.9501,1.9376,1.9288,1.925,1.925,1.9139,1.9064,1.8898,1.8912,1.886,1.8836,1.8827,1.875,1.8697,1.8644,1.863,1.8592,1.9064,1.9325,1.925,1.9508,1.9762,1.9762,1.9797,1.9797,1.9762,1.9669,1.9669,-0.644,-0.4984,-0.2671,-0.1455,-0.1006,0.0,0.0839,0.1542,0.0974,0.0774,0.0908,0.1078,0.1445,0.1945,0.1479,0.1377,0.1709,0.1709,0.1909,0.2275,0.2435,0.2699,0.3122,0.3696,0.4156,0.4487,0.4838,0.5052,0.4984,0.501,0.5286,0.5937,0.7092,0.7502,0.7393,0.819,0.8658,0.8593,0.9248,1.0099,1.096,1.1766,1.199,1.1874,1.207,1.2389,1.2724,1.3218,1.3628,1.3808,1.3874,1.4007,1.4222,1.43,1.4447,1.4714,1.4777,1.4763,1.4808,1.4871,1.5159,1.5819,1.6655,1.7587,1.8179,1.8989,1.9519,1.9752,1.9909,2.01,2.0308,2.0185,2.027,2.0579,2.0308,2.0115,2.0041,2.0076,1.9904,1.9406,1.9295,1.9332,1.9362,1.9487,1.9611,1.9574,1.9465,1.9302,1.9288,1.9176,1.9139,1.9139,1.9101,1.9116,1.9101,1.9026,1.9017,1.8979,1.8903,1.8865,1.8736,1.8606,1.863,1.8769,1.9109,1.9347,1.9398,1.9523,1.9669,1.9726,1.9762,1.9762,1.9726,1.9726,1.9726,-0.4989,-0.3419,-0.2104,-0.1123,-0.033,0.0533,0.1174,0.1548,0.1075,0.074,0.074,0.1179,0.1648,0.1978,0.1814,0.1911,0.2175,0.2045,0.2181,0.2566,0.2873,0.318,0.355,0.4257,0.4735,0.4947,0.5245,0.5422,0.555,0.5895,0.6583,0.7306,0.7857,0.8167,0.8326,0.8448,0.8797,0.9332,0.9679,1.0407,1.1579,1.2029,1.226,1.242,1.2592,1.2762,1.3032,1.3289,1.3539,1.3775,1.3808,1.3974,1.4268,1.4447,1.4529,1.4592,1.47,1.4777,1.4808,1.4839,1.5219,1.6056,1.6808,1.7714,1.8574,1.9306,1.9833,2.003,2.012,2.0292,2.0543,2.0509,2.0475,2.0494,2.0444,2.0323,2.0254,1.9975,1.9654,1.9515,1.9515,1.9493,1.9581,1.9632,1.9632,1.9574,1.9413,1.9302,1.9191,1.9116,1.9116,1.9116,1.9116,1.9078,1.904,1.9017,1.9017,1.8955,1.8917,1.8803,1.8673,1.8836,1.8898,1.8997,1.9258,1.9457,1.956,1.9596,1.9705,1.969,1.9726,1.9762,1.9726,1.9762,1.9848,-0.3611,-0.2172,-0.1117,-0.0363,0.0234,0.1135,0.1475,0.1415,0.1044,0.084,0.094,0.1345,0.1749,0.205,0.2147,0.2311,0.251,0.2311,0.2405,0.2771,0.3147,0.349,0.3929,0.4615,0.5038,0.5226,0.5468,0.5761,0.6209,0.6713,0.7487,0.8472,0.8715,0.8973,0.9262,0.9199,0.9478,1.0011,1.0225,1.0902,1.1982,1.2282,1.252,1.2768,1.2908,1.3047,1.3254,1.3357,1.3527,1.3708,1.3775,1.3974,1.4268,1.4447,1.4574,1.4501,1.461,1.4749,1.4868,1.5008,1.5563,1.6568,1.7313,1.8149,1.9167,1.9702,2.007,2.0323,2.0342,2.041,2.061,2.066,2.0577,2.046,2.0376,2.0323,2.0239,1.9833,1.9669,1.9654,1.9603,1.9566,1.9581,1.9632,1.9596,1.9538,1.9339,1.9176,1.9139,1.9116,1.9116,1.9116,1.9078,1.9055,1.8979,1.8941,1.8865,1.8827,1.8841,1.875,1.8788,1.8988,1.9161,1.9273,1.942,1.9581,1.9654,1.969,1.969,1.9705,1.9726,1.9762,1.9797,1.9863,2.0,-0.2495,-0.1361,0.0396,0.0829,0.0735,0.1567,0.1673,0.1212,0.0941,0.1107,0.1442,0.1542,0.1878,0.225,0.238,0.2543,0.2646,0.2493,0.2593,0.2922,0.3227,0.3669,0.4143,0.4747,0.5161,0.541,0.5593,0.6221,0.7049,0.7259,0.7957,0.9102,0.9531,0.9737,1.004,1.0147,1.0457,1.0639,1.0864,1.1424,1.2162,1.2508,1.2697,1.2838,1.299,1.3163,1.3404,1.3459,1.3514,1.3628,1.3808,1.3974,1.417,1.4332,1.4383,1.4515,1.4547,1.4655,1.4969,1.5453,1.6235,1.7242,1.8149,1.894,1.9737,2.0208,2.046,2.0543,2.0509,2.0527,2.061,2.0577,2.0527,2.046,2.0254,2.008,1.9925,1.9818,1.9762,1.9726,1.9675,1.9617,1.9487,1.9523,1.9538,1.9376,1.9213,1.9139,1.9101,1.9116,1.9116,1.9078,1.904,1.9017,1.8917,1.8841,1.875,1.8711,1.875,1.875,1.8836,1.9011,1.925,1.9398,1.9508,1.9669,1.9632,1.9632,1.9705,1.9705,1.9726,1.9858,1.9935,2.0036,2.0264,-0.1335,-0.0502,0.0433,0.117,0.1546,0.1709,0.1611,0.1447,0.1377,0.1542,0.1811,0.2009,0.2208,0.2377,0.2477,0.2613,0.2756,0.2747,0.2824,0.3075,0.3605,0.3966,0.4291,0.5094,0.5727,0.6013,0.6153,0.6568,0.7252,0.7867,0.8642,0.931,0.9597,0.9667,0.9825,0.9746,0.9933,1.057,1.0987,1.1678,1.2473,1.2639,1.278,1.299,1.306,1.3198,1.3391,1.3425,1.3493,1.3594,1.3741,1.3941,1.4222,1.4369,1.4483,1.4624,1.4718,1.4987,1.5431,1.5884,1.6655,1.7744,1.8548,1.9159,1.9748,2.02,2.0373,2.0323,2.0373,2.0475,2.0543,2.0543,2.0494,2.0494,2.0392,2.0289,2.015,2.003,1.9854,1.9639,1.9675,1.969,1.9617,1.956,1.9413,1.9376,1.9228,1.9116,1.9116,1.9116,1.9116,1.9116,1.9055,1.8941,1.8865,1.8788,1.8711,1.8697,1.8736,1.8812,1.8912,1.9087,1.9325,1.9487,1.9596,1.9632,1.9596,1.9632,1.972,2.0008,2.0231,2.0263,2.0167,2.0411,2.0804,-0.117,-0.0367,0.06,0.1239,0.172,0.1744,0.1711,0.1617,0.1577,0.1776,0.205,0.2395,0.2555,0.2596,0.2798,0.2828,0.278,0.2929,0.3132,0.3346,0.3897,0.4198,0.4471,0.5651,0.6465,0.6859,0.7027,0.7349,0.7833,0.8594,0.9323,0.9864,0.9913,1.0108,1.0254,1.0167,1.0427,1.1062,1.1605,1.2102,1.2603,1.278,1.292,1.3072,1.3141,1.3232,1.3391,1.3446,1.3514,1.3661,1.3841,1.4072,1.4332,1.4447,1.4529,1.4669,1.4805,1.5061,1.5637,1.6085,1.6882,1.7946,1.8632,1.9125,1.9549,1.9904,1.999,2.0115,2.022,2.0373,2.0561,2.0628,2.0545,2.0444,2.0426,2.0323,2.02,1.9925,1.9747,1.9566,1.9603,1.9617,1.956,1.9523,1.9376,1.9302,1.9176,1.9116,1.9116,1.9116,1.9116,1.9078,1.895,1.8851,1.8774,1.8697,1.8673,1.8697,1.8798,1.8874,1.8988,1.9236,1.9472,1.9523,1.9647,1.9611,1.9596,1.9683,1.9771,2.0231,2.0837,2.0956,2.1044,2.1414,2.1802,-0.1652,-0.0829,0.0731,0.1238,0.1244,0.1738,0.1876,0.1648,0.1646,0.1883,0.2253,0.2625,0.2836,0.2879,0.3209,0.3193,0.2904,0.3269,0.3563,0.3801,0.4239,0.453,0.4962,0.6265,0.712,0.7592,0.7957,0.8374,0.874,0.9293,1.0021,1.0601,1.0534,1.0812,1.105,1.1255,1.1356,1.1726,1.233,1.2627,1.2709,1.2967,1.3107,1.3129,1.3198,1.3301,1.3425,1.3581,1.3695,1.3841,1.4072,1.4268,1.4383,1.4429,1.4525,1.4697,1.4742,1.5179,1.5697,1.6416,1.7135,1.8115,1.8636,1.8974,1.9369,1.9508,1.969,2.001,2.01,2.0308,2.0646,2.0728,2.0628,2.0426,2.0323,2.0131,1.9797,1.9515,1.9479,1.9515,1.9457,1.942,1.945,1.9413,1.9339,1.9228,1.9139,1.9153,1.9153,1.9153,1.9078,1.9003,1.895,1.8851,1.8788,1.8774,1.875,1.8851,1.8974,1.9161,1.9213,1.9398,1.953,1.9596,1.9692,1.9641,1.9803,2.0002,2.0434,2.1051,2.1504,2.1763,2.2044,2.2341,2.2611,-0.1099,-0.0033,0.0335,0.0704,0.111,0.1509,0.1742,0.1847,0.2014,0.233,0.2742,0.2764,0.2971,0.3236,0.3389,0.3377,0.3496,0.3889,0.4185,0.445,0.5037,0.5413,0.5776,0.67,0.7453,0.7792,0.817,0.8618,0.9531,0.9845,1.0321,1.1019,1.0621,1.0505,1.0687,1.0964,1.1094,1.1394,1.2269,1.2804,1.2897,1.305,1.3163,1.3323,1.3323,1.3438,1.356,1.3782,1.3947,1.4092,1.4235,1.4369,1.4465,1.4483,1.4529,1.4725,1.5115,1.5569,1.6215,1.7029,1.7855,1.8516,1.8881,1.9176,1.9049,1.931,1.9566,1.9818,2.003,2.0392,2.0679,2.0646,2.0494,2.0373,2.0166,2.0061,2.0045,1.994,1.9762,1.9639,1.9617,1.9508,1.945,1.9391,1.9376,1.925,1.925,1.9228,1.9228,1.9228,1.9191,1.9078,1.9003,1.8865,1.8788,1.8812,1.8851,1.895,1.9199,1.9551,1.9566,1.9632,1.969,1.969,1.9906,1.9951,2.0376,2.0749,2.1338,2.1879,2.2446,2.2838,2.2805,2.3011,2.3356,-0.0964,0.0033,0.0268,0.0737,0.131,0.1475,0.1709,0.1945,0.2117,0.2524,0.2972,0.3097,0.3309,0.3704,0.3897,0.3954,0.4039,0.4433,0.4731,0.5178,0.6317,0.682,0.7007,0.7784,0.8236,0.8136,0.8852,0.9253,0.957,1.0186,1.0667,1.0715,1.0697,1.0725,1.0888,1.1354,1.1774,1.2185,1.3007,1.3496,1.3347,1.3465,1.3443,1.3467,1.3459,1.356,1.3728,1.396,1.4124,1.4222,1.4319,1.4401,1.4515,1.4483,1.4529,1.4711,1.5207,1.5751,1.6374,1.7225,1.7904,1.845,1.8822,1.8912,1.8912,1.9101,1.9288,1.9854,1.9925,2.022,2.0561,2.0494,2.0239,2.01,1.9955,1.9899,2.0045,1.9833,1.9705,1.9545,1.9472,1.9487,1.9413,1.9428,1.9376,1.9339,1.9339,1.9339,1.9339,1.9339,1.9302,1.9153,1.9055,1.8903,1.8865,1.8851,1.9139,1.9236,1.959,1.9924,1.9818,1.9843,1.9921,1.9981,2.0128,2.0442,2.1075,2.1636,2.2086,2.27,2.342,2.3779,2.3723,2.3689,2.402,-0.0961,-0.0166,0.0567,0.1136,0.154,0.1607,0.1776,0.1981,0.2104,0.2521,0.3111,0.3475,0.3864,0.4283,0.4522,0.467,0.462,0.4979,0.5376,0.6228,0.7433,0.8317,0.7998,0.9013,0.9142,0.8846,1.0137,0.9972,0.9834,1.0659,1.0871,1.073,1.102,1.1308,1.1501,1.2141,1.2908,1.3385,1.4083,1.4199,1.3902,1.3984,1.395,1.3705,1.3921,1.4059,1.4204,1.4319,1.4445,1.4409,1.4327,1.4383,1.4452,1.4433,1.4562,1.4837,1.5302,1.5827,1.6377,1.7125,1.7661,1.8171,1.8333,1.8436,1.8707,1.8812,1.9064,1.9732,1.9624,1.9854,2.0254,2.015,1.994,1.9782,1.9669,1.9632,1.9669,1.956,1.9428,1.9325,1.925,1.9265,1.9339,1.9413,1.945,1.945,1.9413,1.9465,1.945,1.945,1.9302,1.9116,1.9055,1.8941,1.8927,1.8874,1.9273,1.9545,2.0017,2.0263,1.9985,1.9974,2.0167,2.0332,2.0503,2.1151,2.2095,2.2601,2.2971,2.3444,2.4084,2.4367,2.4548,2.4484,2.4626,0.0266,0.0973,0.1273,0.1507,0.1607,0.164,0.1845,0.2125,0.2425,0.301,0.3629,0.3876,0.4247,0.4758,0.4939,0.508,0.5305,0.5743,0.6379,0.7443,0.8776,0.9244,0.9133,0.9795,0.9725,0.9506,0.9755,1.0069,1.041,1.0954,1.1376,1.1145,1.168,1.2003,1.1994,1.2622,1.3132,1.3757,1.4516,1.46,1.4212,1.4284,1.4377,1.4259,1.4725,1.5068,1.5217,1.5362,1.5291,1.5012,1.4645,1.4451,1.4415,1.4479,1.4699,1.5167,1.5709,1.6254,1.6855,1.7504,1.8023,1.8147,1.8347,1.8464,1.8422,1.862,1.8836,1.9169,1.9244,1.9442,1.9696,1.9782,1.972,1.9611,1.9465,1.945,1.9617,1.9654,1.9617,1.9581,1.9581,1.9581,1.9617,1.9632,1.9596,1.956,1.9538,1.9553,1.9538,1.9574,1.9376,1.9191,1.9153,1.9078,1.9064,1.9124,1.9545,1.9903,2.0354,2.0645,2.035,2.0339,2.063,2.0782,2.0886,2.1804,2.294,2.3367,2.3693,2.4194,2.4603,2.4753,2.4847,2.495,2.5045,0.0801,0.1579,0.1711,0.1809,0.1885,0.2068,0.2298,0.2536,0.2977,0.3585,0.4148,0.4313,0.4784,0.5423,0.5486,0.5653,0.6038,0.6678,0.7653,0.8738,0.9688,1.0146,1.0498,1.0342,1.0146,0.9772,1.0307,1.0561,1.0772,1.147,1.1725,1.1261,1.2408,1.2762,1.2675,1.3442,1.4281,1.4756,1.5302,1.5392,1.4979,1.5031,1.5041,1.5011,1.5343,1.5562,1.5559,1.5745,1.5684,1.5456,1.506,1.4656,1.4525,1.468,1.499,1.538,1.6159,1.6678,1.7222,1.7752,1.8175,1.8189,1.8307,1.8411,1.8436,1.8542,1.8798,1.9035,1.9147,1.9161,1.9347,2.0034,2.0019,1.9627,1.9701,1.9857,1.9743,1.9705,1.9705,1.9705,1.969,1.969,1.9705,1.9705,1.9705,1.9632,1.9632,1.9647,1.9647,1.9632,1.9487,1.9339,1.9302,1.925,1.9213,1.9384,1.9833,2.0259,2.0686,2.0891,2.086,2.0987,2.1188,2.1445,2.1758,2.2748,2.374,2.4069,2.4296,2.4611,2.4855,2.4934,2.5005,2.5005,2.5107,0.1036,0.1811,0.1996,0.2141,0.2264,0.2624,0.2868,0.3071,0.3593,0.413,0.4635,0.4878,0.5391,0.5919,0.6039,0.6307,0.6937,0.7908,0.911,1.0035,1.0577,1.1144,1.1625,1.1294,1.0765,1.0176,1.0624,1.0792,1.1089,1.1847,1.2142,1.1614,1.3178,1.3732,1.3593,1.448,1.5409,1.5732,1.6115,1.6149,1.5843,1.5875,1.5789,1.5748,1.5916,1.6033,1.6085,1.6159,1.6139,1.5965,1.5654,1.5237,1.4982,1.4976,1.5319,1.5538,1.6459,1.7074,1.7438,1.7873,1.8189,1.8189,1.824,1.8358,1.8489,1.8542,1.876,1.9049,1.9199,1.9176,1.9265,1.9982,2.0167,1.9841,2.0139,2.0228,1.9884,1.9705,1.9705,1.9705,1.9705,1.9705,1.9705,1.9705,1.9705,1.9705,1.9705,1.9705,1.9705,1.9669,1.956,1.9487,1.945,1.9508,1.9545,1.9641,2.0086,2.0762,2.1162,2.1409,2.1641,2.2329,2.2669,2.2509,2.2956,2.3748,2.4288,2.4548,2.4768,2.5005,2.5005,2.5005,2.5005,2.4989,2.5185,0.1271,0.131,0.2216,0.2582,0.2672,0.3104,0.3395,0.3651,0.42,0.4585,0.4923,0.5502,0.5896,0.6179,0.6355,0.693,0.7953,0.9161,1.0277,1.1065,1.1613,1.2302,1.2265,1.1931,1.1696,1.1246,1.1003,1.0948,1.1765,1.2498,1.2754,1.2781,1.4078,1.467,1.4636,1.5222,1.5887,1.6271,1.6532,1.6426,1.6138,1.616,1.6255,1.631,1.6585,1.6822,1.6995,1.713,1.705,1.6725,1.6667,1.6395,1.5948,1.5579,1.564,1.6148,1.6844,1.7452,1.7769,1.7999,1.8095,1.8082,1.8201,1.8279,1.8347,1.8425,1.8606,1.8912,1.9295,1.9442,1.9026,1.9879,1.9957,1.9728,1.9781,1.9951,1.9801,1.9741,1.9726,1.9726,1.9726,1.9705,1.9705,1.9705,1.9705,1.9705,1.9705,1.9705,1.9705,1.969,1.9617,1.9596,1.956,1.9741,1.9884,2.0046,2.036,2.1295,2.1806,2.2264,2.2754,2.3871,2.4233,2.3615,2.3545,2.4061,2.45,2.4918,2.4966,2.5005,2.5005,2.5005,2.5068,2.5169,2.5362,0.136,0.1994,0.2653,0.2984,0.3152,0.3652,0.3997,0.4262,0.4808,0.524,0.5529,0.5919,0.6184,0.6422,0.689,0.7788,0.9088,0.9885,1.0915,1.1682,1.2197,1.2811,1.2787,1.2267,1.2289,1.2047,1.1402,1.1256,1.2436,1.3152,1.3412,1.3868,1.5042,1.5579,1.5501,1.5886,1.6287,1.6663,1.6735,1.6676,1.6408,1.6548,1.6671,1.6885,1.707,1.7337,1.7391,1.7556,1.7531,1.7369,1.7149,1.6965,1.6725,1.6496,1.6336,1.6766,1.7312,1.7752,1.7974,1.8095,1.8082,1.8135,1.8214,1.8293,1.8372,1.845,1.8528,1.8721,1.9003,1.9405,1.9566,1.999,2.0161,2.0198,2.019,2.0062,1.9867,1.9812,1.9797,1.9762,1.9726,1.9726,1.9705,1.9705,1.9705,1.9705,1.9705,1.9741,1.9741,1.9726,1.9726,1.9833,1.9884,2.001,2.0277,2.0577,2.0899,2.1737,2.2539,2.2986,2.3465,2.4347,2.4449,2.4046,2.4198,2.4469,2.4658,2.5005,2.5005,2.5005,2.5084,2.5146,2.5246,2.5384,2.561,0.1601,0.2651,0.3107,0.3399,0.366,0.4196,0.4559,0.4841,0.5317,0.5696,0.6062,0.6343,0.6556,0.6839,0.7624,0.8736,1.0167,1.0419,1.1339,1.211,1.2327,1.2833,1.2956,1.2446,1.1868,1.2582,1.2146,1.1737,1.2613,1.3515,1.4083,1.4658,1.5789,1.6261,1.6107,1.6388,1.6765,1.6846,1.6888,1.6888,1.6931,1.7002,1.7128,1.7199,1.7363,1.7404,1.7487,1.7638,1.7788,1.7706,1.754,1.7317,1.7443,1.7304,1.7279,1.7463,1.7795,1.7987,1.8055,1.8055,1.8042,1.8095,1.8228,1.8411,1.863,1.8693,1.8731,1.8721,1.9078,1.9457,1.987,2.0228,2.043,2.0504,2.0496,2.0451,2.0065,1.9884,1.9935,1.9848,1.9797,1.9762,1.9726,1.9726,1.9726,1.9726,1.9726,1.9812,1.9848,1.9904,1.9975,2.0166,2.027,2.0357,2.068,2.117,2.1588,2.2283,2.3151,2.3792,2.4111,2.4563,2.4505,2.4505,2.47,2.4941,2.5013,2.5084,2.5146,2.5224,2.5224,2.5323,2.5572,2.5742,2.5977,0.2365,0.2435,0.3524,0.4081,0.425,0.4678,0.5024,0.5283,0.5599,0.5922,0.6221,0.6904,0.712,0.7426,0.8537,0.9561,1.0478,1.1449,1.2095,1.2524,1.2606,1.2753,1.2829,1.235,1.2019,1.2557,1.2663,1.269,1.3043,1.3816,1.458,1.5241,1.5954,1.6514,1.6511,1.6714,1.6863,1.6888,1.6931,1.6918,1.6989,1.7115,1.7253,1.735,1.7404,1.7487,1.7651,1.7801,1.7909,1.7948,1.7933,1.7879,1.7932,1.7946,1.7906,1.7906,1.7961,1.7962,1.7989,1.8055,1.8042,1.8121,1.8319,1.8592,1.8808,1.9207,1.9406,1.9339,1.9735,2.0044,2.0057,2.0095,2.0157,2.0243,2.0409,2.0273,2.0036,2.0212,2.0233,1.999,1.9904,1.9833,1.9762,1.9726,1.9726,1.9762,1.9797,1.9848,1.997,2.0096,2.022,2.0392,2.0639,2.0724,2.125,2.1713,2.2356,2.2943,2.3747,2.4505,2.4585,2.4799,2.5056,2.5137,2.5253,2.5323,2.5438,2.5476,2.5438,2.5476,2.5589,2.5758,2.5997,2.6191,2.6367,0.3667,0.3381,0.4052,0.444,0.4631,0.5034,0.5328,0.5577,0.5922,0.6184,0.6526,0.6937,0.7543,0.8374,0.9519,1.037,1.1267,1.2311,1.276,1.2731,1.2929,1.3119,1.3032,1.2484,1.2148,1.244,1.2783,1.3173,1.356,1.4385,1.5255,1.5825,1.6303,1.6663,1.6803,1.6931,1.696,1.696,1.6973,1.7044,1.7183,1.7308,1.735,1.7461,1.7515,1.7638,1.7801,1.7842,1.7989,1.8055,1.8016,1.8016,1.8055,1.8016,1.7975,1.7988,1.7988,1.8002,1.7975,1.8175,1.8214,1.8161,1.8358,1.85,1.8884,1.9406,1.9696,1.9413,1.9975,2.0392,2.0603,2.0587,2.0782,2.0834,2.0695,2.0406,2.0381,2.0548,2.0594,2.0304,2.0045,1.994,1.9869,1.9869,1.9833,1.9833,1.9869,1.9955,2.0146,2.0304,2.0475,2.0662,2.0922,2.1133,2.1756,2.2367,2.3176,2.3829,2.4503,2.504,2.4899,2.5065,2.5308,2.5447,2.5452,2.5591,2.5819,2.5795,2.5684,2.5848,2.5994,2.6227,2.647,2.6641,2.6858,0.4704,0.4291,0.4546,0.4787,0.4927,0.5241,0.5669,0.6124,0.6221,0.6568,0.6992,0.7363,0.8244,0.9487,1.0289,1.096,1.1748,1.2834,1.2884,1.2818,1.2944,1.3128,1.2858,1.2341,1.2227,1.2705,1.3222,1.3729,1.4522,1.5286,1.6027,1.6504,1.6667,1.6791,1.6918,1.7044,1.7128,1.717,1.7128,1.7212,1.7391,1.7419,1.7461,1.7543,1.7625,1.7774,1.7882,1.7909,1.8029,1.8069,1.8016,1.8016,1.8055,1.7989,1.7949,1.8042,1.8133,1.8266,1.8279,1.8358,1.8425,1.845,1.8616,1.8983,1.931,1.9696,2.004,2.0025,2.034,2.0956,2.1302,2.1167,2.1288,2.1432,2.1416,2.1042,2.0788,2.1002,2.1038,2.0732,2.0441,2.0115,2.0045,2.0061,2.0025,1.9904,1.9975,2.0061,2.0304,2.0509,2.0775,2.0989,2.1406,2.1681,2.2181,2.2925,2.3789,2.4522,2.5199,2.5529,2.5391,2.5432,2.5631,2.5688,2.5749,2.6025,2.6367,2.6156,2.5977,2.6297,2.6539,2.6725,2.6923,2.7103,2.723,0.5021,0.4683,0.4999,0.5173,0.5188,0.555,0.613,0.6706,0.6598,0.7021,0.7773,0.839,0.9173,1.0322,1.0779,1.1242,1.1841,1.2472,1.2491,1.2319,1.2257,1.2549,1.2448,1.2322,1.2412,1.3377,1.3933,1.453,1.5289,1.5985,1.6504,1.6812,1.6888,1.696,1.7044,1.717,1.7337,1.7378,1.7337,1.7378,1.7461,1.7488,1.7543,1.7666,1.772,1.7774,1.7882,1.7935,1.8002,1.8042,1.7962,1.8085,1.8152,1.8016,1.7949,1.8259,1.8475,1.863,1.8616,1.8754,1.8725,1.895,1.9221,1.9573,1.9818,2.008,2.0496,2.088,2.1118,2.1271,2.1552,2.1666,2.1904,2.1904,2.198,2.1911,2.1642,2.1489,2.148,2.1178,2.0911,2.0753,2.0487,2.0579,2.0207,2.0056,2.015,2.0254,2.0527,2.0777,2.1037,2.136,2.1924,2.228,2.2588,2.3353,2.4316,2.4873,2.5428,2.5709,2.5835,2.5924,2.5947,2.6214,2.6319,2.6607,2.6842,2.6674,2.6674,2.6923,2.7103,2.7166,2.7213,2.7338,2.7448,0.5242,0.504,0.5487,0.5588,0.541,0.5836,0.6227,0.6605,0.6865,0.7321,0.8062,0.8699,0.9442,1.0332,1.1235,1.1654,1.211,1.2995,1.2766,1.2569,1.2602,1.262,1.2533,1.2575,1.2887,1.37,1.4457,1.5096,1.564,1.6497,1.6863,1.7057,1.7128,1.7044,1.7128,1.7267,1.7419,1.7488,1.7488,1.7529,1.7584,1.7557,1.7611,1.7801,1.772,1.7801,1.7949,1.7949,1.7975,1.7962,1.7975,1.818,1.8413,1.8194,1.8397,1.8765,1.8963,1.897,1.9121,1.9438,1.9859,1.9742,1.9819,1.9874,2.0096,2.0181,2.0639,2.1116,2.1701,2.191,2.2494,2.2709,2.2801,2.2593,2.2532,2.2601,2.2478,2.2294,2.2079,2.187,2.1793,2.1701,2.1439,2.1157,2.0676,2.0242,2.032,2.0444,2.0728,2.1101,2.1392,2.1876,2.2476,2.3159,2.3518,2.4172,2.4893,2.5272,2.5651,2.5859,2.6082,2.6154,2.6262,2.6539,2.6841,2.7053,2.7166,2.7213,2.7244,2.7276,2.7355,2.7448,2.7539,2.76,2.7717,0.5537,0.5405,0.5989,0.6013,0.575,0.6099,0.6483,0.6865,0.716,0.7739,0.8423,0.9124,0.9826,1.0594,1.1463,1.2031,1.24,1.301,1.2962,1.2882,1.2857,1.3003,1.3024,1.3158,1.3595,1.4236,1.4869,1.5599,1.6312,1.6808,1.7086,1.7267,1.7337,1.7295,1.724,1.7337,1.7502,1.757,1.757,1.7625,1.7679,1.7666,1.7611,1.7842,1.776,1.7842,1.7909,1.7909,1.7909,1.8017,1.8153,1.8481,1.8714,1.8948,1.9084,1.9381,1.9617,1.9531,1.9619,1.9894,2.0385,2.0124,2.0309,2.0152,2.0066,2.0436,2.1259,2.1593,2.2209,2.2794,2.3317,2.3409,2.3332,2.3108,2.3385,2.3431,2.3216,2.3016,2.284,2.2624,2.2455,2.2147,2.2024,2.1723,2.1224,2.0694,2.0506,2.0693,2.1021,2.1424,2.1892,2.2427,2.3046,2.3798,2.4536,2.4977,2.5389,2.554,2.5875,2.6123,2.6295,2.6383,2.6624,2.6989,2.7244,2.7417,2.7509,2.7569,2.7539,2.7509,2.7569,2.763,2.763,2.7707,2.7994,0.6058,0.5786,0.6402,0.6477,0.6227,0.6325,0.6901,0.7551,0.7634,0.8218,0.9182,0.9875,1.057,1.1217,1.1894,1.2246,1.2463,1.2932,1.2947,1.2775,1.3036,1.3328,1.3548,1.3758,1.4283,1.5421,1.5832,1.6225,1.7018,1.7157,1.7337,1.7515,1.7597,1.7597,1.7488,1.7488,1.7666,1.7869,1.7773,1.7733,1.7827,1.7828,1.776,1.7801,1.7801,1.7842,1.7909,1.8058,1.8099,1.814,1.87,1.9127,1.9558,1.9992,2.0185,2.0327,2.0946,2.0718,1.9959,1.9918,2.0156,2.0455,2.0831,2.0801,2.0615,2.1124,2.1972,2.2202,2.2794,2.3179,2.3533,2.3794,2.3702,2.3733,2.3953,2.3999,2.3754,2.3671,2.344,2.3332,2.2794,2.2347,2.237,2.2207,2.175,2.1311,2.0863,2.1003,2.1488,2.1989,2.2573,2.3194,2.3817,2.4392,2.51,2.5524,2.5835,2.5974,2.6154,2.6383,2.6624,2.6825,2.7117,2.7448,2.7569,2.7647,2.7795,2.7911,2.7806,2.7719,2.7689,2.7719,2.7701,2.7783,2.8035,0.5988,0.5969,0.661,0.6901,0.6865,0.6921,0.7202,0.7607,0.8244,0.8973,0.9737,1.0619,1.1185,1.1608,1.2072,1.2433,1.2569,1.255,1.2569,1.2762,1.3047,1.3321,1.3684,1.4226,1.4824,1.5664,1.6157,1.6625,1.7308,1.7378,1.7502,1.7638,1.7855,1.7801,1.7747,1.7747,1.7854,1.8192,1.8112,1.7963,1.8204,1.803,1.7869,1.7882,1.7882,1.7909,1.8018,1.8317,1.8481,1.8645,1.9292,2.0062,2.0514,2.0969,2.1133,2.1344,2.1802,2.1485,2.122,2.1341,2.1348,2.1447,2.1492,2.1599,2.147,2.1728,2.2286,2.2762,2.3179,2.3533,2.3963,2.4102,2.4071,2.4087,2.4225,2.4241,2.4117,2.4087,2.3979,2.3979,2.3656,2.3218,2.3033,2.3195,2.2849,2.2631,2.2325,2.2287,2.2685,2.3046,2.3571,2.4097,2.4674,2.5153,2.5634,2.5914,2.617,2.6312,2.6504,2.6758,2.6989,2.7213,2.7478,2.7736,2.7795,2.7853,2.794,2.7996,2.7968,2.7911,2.7882,2.7806,2.7777,2.7806,2.7924,0.6409,0.6557,0.6982,0.728,0.737,0.7335,0.7496,0.8047,0.8876,0.963,1.0466,1.1282,1.1775,1.2039,1.2373,1.2597,1.2672,1.2673,1.2719,1.2955,1.3267,1.3758,1.4236,1.4732,1.5576,1.6232,1.6642,1.7073,1.7474,1.7543,1.7813,1.8057,1.8153,1.8425,1.8397,1.838,1.8217,1.8528,1.8461,1.865,1.8741,1.862,1.849,1.8422,1.8341,1.8233,1.8506,1.878,1.9056,1.9501,2.0173,2.104,2.147,2.1916,2.2093,2.2319,2.2094,2.1973,2.2167,2.2321,2.2276,2.2321,2.2382,2.2245,2.2261,2.2607,2.286,2.3247,2.3486,2.3891,2.4261,2.4369,2.4369,2.4369,2.4385,2.4385,2.4369,2.4323,2.4307,2.4354,2.4307,2.3977,2.3732,2.4044,2.4058,2.3951,2.3838,2.3835,2.3795,2.4095,2.4396,2.4809,2.5289,2.5688,2.5974,2.6193,2.6434,2.6606,2.6859,2.7173,2.7276,2.7491,2.7748,2.7986,2.8014,2.8042,2.8042,2.8071,2.8088,2.806,2.8014,2.7911,2.7836,2.8006,2.824,0.7356,0.7412,0.7489,0.7655,0.7836,0.7579,0.8095,0.9036,0.9315,1.0176,1.1431,1.1616,1.2024,1.2528,1.278,1.2806,1.2843,1.2917,1.3078,1.3324,1.3711,1.4376,1.5039,1.5676,1.6287,1.6892,1.7295,1.7378,1.7679,1.7679,1.803,1.8532,1.8601,1.89,1.9033,1.9098,1.8849,1.9037,1.9121,1.9266,1.9342,1.9404,1.9287,1.9195,1.9006,1.9076,1.9271,1.9439,1.9794,2.03,2.1094,2.1744,2.2395,2.3023,2.3086,2.2949,2.2425,2.2662,2.2889,2.3036,2.3051,2.3067,2.3117,2.2711,2.2711,2.3224,2.3519,2.3702,2.3921,2.4259,2.4574,2.4533,2.4533,2.4533,2.4533,2.4549,2.4549,2.4533,2.4533,2.4533,2.4533,2.438,2.4249,2.4471,2.4863,2.4846,2.4733,2.4797,2.4788,2.489,2.5142,2.5328,2.5743,2.6073,2.6345,2.6554,2.6674,2.6858,2.7343,2.7636,2.7744,2.7976,2.8341,2.851,2.8269,2.8172,2.8144,2.8162,2.8253,2.8261,2.8447,2.8131,2.8063,2.8605,2.9018,0.7304,0.7293,0.7621,0.7829,0.7912,0.8193,0.8602,0.9007,0.9491,1.033,1.1234,1.1383,1.1968,1.2746,1.2641,1.2786,1.2944,1.3181,1.3471,1.3794,1.4236,1.496,1.562,1.6256,1.6824,1.7227,1.7543,1.7651,1.7692,1.7733,1.8069,1.8542,1.8913,1.9266,1.9628,1.9854,1.9836,1.9777,1.9813,1.9857,1.9911,1.9921,1.9859,1.9683,1.9636,1.9721,1.985,2.0392,2.0765,2.1121,2.2192,2.2936,2.3024,2.3535,2.3743,2.3712,2.3527,2.3542,2.3705,2.3777,2.3788,2.3701,2.3784,2.3716,2.3614,2.3743,2.4096,2.4117,2.4275,2.4567,2.467,2.467,2.467,2.467,2.467,2.467,2.467,2.467,2.467,2.4751,2.4751,2.4871,2.4764,2.4986,2.5362,2.5509,2.5606,2.5617,2.5657,2.5692,2.5761,2.5914,2.6168,2.6521,2.6708,2.6927,2.7006,2.7181,2.782,2.8355,2.8556,2.8812,2.9054,2.9024,2.8809,2.8464,2.8126,2.8314,2.8752,2.9015,2.9175,2.8671,2.8472,2.9176,2.965,0.7536,0.7614,0.7829,0.8077,0.8365,0.8765,0.9056,0.9306,0.9785,1.0494,1.1335,1.1431,1.1806,1.2329,1.2433,1.2613,1.2958,1.3491,1.3899,1.4261,1.4824,1.5576,1.6244,1.674,1.7131,1.7475,1.7652,1.7774,1.7814,1.8097,1.8476,1.9071,1.9279,1.9809,2.0278,2.0624,2.0745,2.0664,2.0583,2.0523,2.0489,2.0481,2.0492,2.0375,2.0356,2.0467,2.0664,2.1386,2.1654,2.2015,2.3142,2.3406,2.348,2.3882,2.4024,2.4021,2.4006,2.3987,2.4074,2.4131,2.4177,2.4151,2.4193,2.4105,2.4116,2.4168,2.4271,2.4354,2.4574,2.4751,2.4751,2.4751,2.4751,2.4751,2.4751,2.4751,2.4751,2.4751,2.4831,2.495,2.5091,2.5246,2.5406,2.5642,2.5881,2.5997,2.6123,2.6144,2.6164,2.6182,2.6268,2.6387,2.6623,2.691,2.7194,2.7631,2.7947,2.8363,2.9,2.9417,2.952,2.9621,2.9781,2.9639,2.9402,2.9147,2.8934,2.9134,2.9465,2.9748,2.9966,2.9748,2.9708,3.0219,3.0534,0.7961,0.8209,0.8118,0.8447,0.8943,0.9208,0.9496,0.9793,1.0079,1.0781,1.1579,1.1616,1.1697,1.209,1.2341,1.2663,1.3177,1.3829,1.4376,1.4641,1.5664,1.6373,1.6782,1.7269,1.7488,1.7611,1.7747,1.7842,1.8045,1.8329,1.8841,1.9714,2.0134,2.0582,2.107,2.122,2.1308,2.1444,2.1336,2.1254,2.1226,2.1403,2.1602,2.1485,2.1491,2.16,2.1882,2.22,2.2469,2.301,2.3451,2.3668,2.3855,2.4024,2.4082,2.4166,2.4208,2.4193,2.4234,2.4276,2.4276,2.425,2.425,2.4234,2.4302,2.4343,2.44,2.4523,2.4726,2.4846,2.4886,2.4886,2.4886,2.4886,2.4886,2.4886,2.4886,2.4966,2.5068,2.5224,2.54,2.5589,2.5811,2.6026,2.6099,2.638,2.6485,2.652,2.6876,2.6894,2.703,2.7114,2.7348,2.7767,2.836,2.8766,2.9155,2.9624,3.0132,3.0203,3.0101,3.0264,3.051,3.032,3.01,3.013,3.0071,3.0077,3.0154,3.0599,3.0772,3.079,3.1004,3.1392,3.1386,0.8439,0.8439,0.8683,0.9016,0.9368,0.9545,1.001,1.0582,1.0361,1.0621,1.1115,1.133,1.1683,1.2172,1.2362,1.2778,1.3666,1.4301,1.4858,1.541,1.6244,1.6866,1.7173,1.7543,1.772,1.7788,1.7868,1.795,1.8072,1.8463,1.8973,1.9597,2.0251,2.0921,2.1527,2.1568,2.1746,2.1983,2.2063,2.1888,2.1698,2.1759,2.1841,2.2002,2.2158,2.2298,2.2591,2.2951,2.3127,2.3436,2.3812,2.404,2.4124,2.4124,2.4208,2.4276,2.4276,2.4276,2.4276,2.4317,2.4276,2.4333,2.4333,2.4317,2.44,2.4441,2.4564,2.4686,2.4766,2.4926,2.5005,2.5005,2.5005,2.5005,2.5005,2.5005,2.5005,2.5162,2.5317,2.553,2.5717,2.5937,2.6154,2.6312,2.6399,2.6468,2.6554,2.6792,2.7623,2.7946,2.8233,2.8315,2.834,2.8743,2.9394,2.9839,3.018,3.0476,3.0871,3.0826,3.0727,3.0695,3.0744,3.0902,3.088,3.088,3.0769,3.0582,3.0767,3.1345,3.1625,3.1661,3.205,3.2457,3.2301,0.8724,0.8773,0.9105,0.9386,0.9585,0.9753,1.0127,1.0572,1.0697,1.0887,1.1129,1.1259,1.1598,1.2236,1.2434,1.3128,1.4076,1.4801,1.5419,1.6071,1.66,1.7144,1.7502,1.772,1.776,1.7855,1.8194,1.833,1.822,1.9084,1.9773,2.0066,2.0628,2.1199,2.1712,2.1888,2.2156,2.2434,2.2632,2.2572,2.2249,2.231,2.231,2.254,2.2754,2.2889,2.3113,2.348,2.3653,2.3754,2.404,2.4124,2.4208,2.4193,2.4219,2.4261,2.4276,2.4302,2.4317,2.4333,2.4348,2.439,2.4431,2.4416,2.458,2.4661,2.4645,2.4766,2.4886,2.5005,2.5005,2.5005,2.5005,2.5005,2.5005,2.5045,2.5123,2.5301,2.5605,2.5921,2.6082,2.6225,2.6452,2.664,2.6809,2.7487,2.7453,2.7827,2.8523,2.9003,2.9256,2.9557,2.9618,2.992,3.0561,3.0889,3.1142,3.1408,3.1547,3.1735,3.1721,3.1196,3.0991,3.1379,3.1597,3.1535,3.1388,3.1324,3.1655,3.2271,3.2463,3.2534,3.2955,3.3232,3.2973,0.8886,0.9105,0.9395,0.9634,0.9793,0.998,1.0254,1.0566,1.1086,1.1475,1.1664,1.1665,1.1747,1.2142,1.2753,1.3543,1.437,1.5224,1.5959,1.6587,1.7173,1.7447,1.7638,1.7801,1.7801,1.8045,1.8411,1.8506,1.8491,1.9578,2.037,2.0767,2.1258,2.1807,2.2016,2.2328,2.2694,2.292,2.3098,2.3246,2.3157,2.3038,2.2889,2.3009,2.3231,2.3465,2.3625,2.3812,2.4082,2.4109,2.4109,2.4208,2.425,2.4276,2.4276,2.4333,2.4533,2.4456,2.4379,2.4471,2.4467,2.4503,2.4513,2.458,2.4742,2.4822,2.4806,2.4846,2.4966,2.5005,2.5005,2.5005,2.5005,2.5045,2.5084,2.5139,2.5333,2.5524,2.5934,2.6329,2.6502,2.6622,2.6894,2.7063,2.7586,2.8282,2.8793,2.9321,2.9735,3.0031,3.0291,3.0683,3.0953,3.1345,3.1661,3.1679,3.1767,3.1868,3.1998,3.2462,3.2616,3.1895,3.1654,3.2155,3.2292,3.2166,3.2237,3.2257,3.267,3.2929,3.2973,3.2949,3.3021,3.3244,3.3322,0.9288,0.9435,0.9664,0.9853,1.0049,1.0235,1.0705,1.1326,1.1585,1.1939,1.2341,1.2785,1.2964,1.2954,1.3336,1.4048,1.4987,1.574,1.6232,1.6782,1.7406,1.7638,1.776,1.7868,1.7882,1.8126,1.8453,1.8493,1.8876,1.9939,2.0493,2.0326,2.1717,2.2282,2.2512,2.2875,2.3231,2.3465,2.3653,2.3824,2.3767,2.3595,2.3304,2.3348,2.348,2.3754,2.3955,2.4124,2.4166,2.4208,2.4234,2.4234,2.4276,2.4291,2.4348,2.4502,2.4718,2.4656,2.461,2.4687,2.474,2.4513,2.4539,2.4645,2.4766,2.4902,2.4926,2.4926,2.5005,2.5005,2.5005,2.5005,2.5005,2.5123,2.5185,2.5404,2.5605,2.5995,2.6462,2.6739,2.6978,2.7335,2.7845,2.8116,2.8523,2.9121,2.958,3.0112,3.0903,3.1135,3.128,3.1623,3.2019,3.2219,3.2309,3.2119,3.2139,3.2231,3.2232,3.237,3.2386,3.23,3.23,3.2488,3.2705,3.2709,3.2816,3.2737,3.2912,3.305,3.3196,3.3226,3.3274,3.331,3.3424]}]]